GFSSW_700_spd_000.txt.gz
Wind_Speed
9 8 7 6 6 6 7 8 10 12 11 13 13 13 13 13 12 10 9 9 12 15 20 17 19 9 9 5 3 5 6 9 6 6 5 3 4 5 10 4 8 9 5 7 10
7 6 6 7 8 9 9 12 13 13 15 16 16 16 17 20 16 6 8 11 14 11 15 14 8 7 6 5 5 9 7 9 2 3 6 5 3 7 6 8 9 12 17 19 17
6 8 9 11 12 14 16 17 17 17 17 17 17 19 19 19 14 6 9 12 15 16 19 17 11 8 7 5 5 6 12 6 2 7 3 6 7 6 6 6 3 6 11 18 13
9 11 14 16 18 19 20 18 18 18 16 13 13 13 13 12 4 6 11 12 14 16 16 12 6 8 6 6 4 3 5 3 3 4 2 5 8 6 6 10 15 16 8 13 9
14 16 17 19 21 21 20 19 18 19 17 16 16 17 16 9 8 9 13 15 16 17 7 6 6 5 4 4 5 5 3 3 5 6 5 7 6 11 11 9 15 14 16 15 14
16 17 19 21 22 21 20 18 17 17 17 17 17 17 12 2 12 10 10 9 7 7 6 8 4 9 4 1 2 3 1 2 3 4 9 13 13 12 10 11 16 11 12 13 17
17 20 21 21 20 19 18 17 16 16 16 14 13 13 8 6 9 7 10 9 9 11 10 9 8 6 4 5 6 2 5 8 4 5 11 13 19 8 8 15 16 13 14 13 14
17 18 19 18 17 16 16 16 15 13 11 12 10 10 4 3 9 6 7 6 9 11 12 11 14 17 16 7 8 4 4 11 6 14 9 11 14 4 10 13 18 15 15 19 20
15 16 16 17 17 16 14 13 13 12 10 7 8 11 4 2 5 6 5 5 7 10 11 13 18 8 12 12 11 3 11 12 12 9 9 10 20 15 14 19 21 19 16 17 20
15 14 14 16 17 17 17 15 11 10 9 6 6 4 3 3 2 5 3 5 7 11 10 11 5 5 7 13 13 13 12 13 14 12 18 17 17 16 18 16 17 17 16 16 16
13 14 13 13 15 17 16 17 10 2 8 10 5 10 4 1 4 5 4 4 6 6 4 4 6 4 6 9 10 13 15 17 15 15 20 20 22 15 12 9 9 12 11 15 13
11 11 11 11 11 13 13 6 12 3 5 7 5 4 1 2 3 9 5 4 4 3 8 6 1 5 7 8 10 14 16 14 15 19 20 24 24 14 10 7 9 2 2 4 10
10 10 11 11 10 8 6 11 11 6 4 1 1 2 4 6 6 7 7 5 3 3 5 5 6 9 7 7 12 14 7 16 20 22 10 16 14 11 7 6 10 1 4 8 16
8 9 10 10 9 8 11 11 9 5 4 3 3 5 6 6 5 8 8 5 5 3 5 2 9 7 8 7 13 12 16 21 20 18 17 16 10 6 7 7 4 2 4 13 14
5 6 8 9 9 10 10 7 3 4 2 2 4 4 5 4 4 10 8 6 3 3 1 4 9 9 9 9 14 15 20 23 23 19 15 4 7 10 6 7 5 3 10 17 21
4 4 5 6 7 9 8 5 4 2 1 1 1 2 3 6 5 6 9 9 4 6 4 6 13 6 11 12 14 18 23 20 4 4 4 7 3 16 10 4 5 8 9 16 24
5 5 5 5 5 6 7 7 1 1 1 0 0 2 1 3 3 6 4 10 8 8 5 10 6 9 10 12 11 15 18 8 5 2 4 13 13 19 22 14 9 12 18 22 25
6 5 5 5 5 5 7 4 0 2 1 5 2 3 1 3 3 5 5 0 11 6 10 6 8 2 12 13 11 13 9 4 4 4 12 25 8 10 6 17 19 19 24 18 12
5 6 6 4 4 5 8 3 2 2 2 1 4 2 1 4 3 5 6 5 6 11 7 8 1 10 17 14 9 8 6 7 8 15 4 8 14 22 9 7 10 19 18 14 23
4 5 4 3 3 5 4 4 2 6 1 3 1 1 3 3 4 6 4 5 5 13 8 5 10 6 7 14 11 9 10 5 4 3 5 11 21 18 14 19 27 24 19 22 24
4 5 1 3 3 3 2 1 1 3 3 5 2 1 2 3 5 4 3 4 4 7 9 9 6 9 15 1 11 8 12 10 12 13 5 6 9 24 35 21 14 25 32 33 29
8 1 1 4 3 4 1 2 2 1 1 1 2 3 2 5 4 3 3 4 12 11 8 9 8 12 19 8 7 7 9 13 14 13 23 26 31 11 13 9 39 36 31 36 33
4 1 2 4 3 3 3 2 2 2 1 2 2 2 4 3 3 3 5 12 12 7 8 11 4 10 9 2 3 17 25 26 28 28 19 11 21 27 42 39 36 38 38 35 26
2 3 1 2 4 2 4 2 2 1 2 2 4 4 4 3 4 5 8 8 17 15 17 13 9 8 15 21 28 31 31 34 34 35 34 32 48 41 40 41 37 34 32 31 25
6 5 4 0 3 7 4 3 2 5 5 3 3 2 3 4 9 5 6 13 12 16 17 13 19 17 25 26 26 31 32 34 37 39 36 45 39 41 39 38 35 32 35 31 32
8 6 7 7 5 2 4 3 4 5 2 3 4 6 5 7 10 14 15 13 15 14 15 18 28 30 37 37 26 29 35 45 39 30 28 31 38 35 36 36 34 23 31 42 51
12 12 10 8 9 7 5 2 3 6 8 8 7 7 11 17 18 19 23 25 26 26 27 26 31 31 28 30 31 32 23 22 22 28 29 32 40 41 34 26 29 37 50 59 50

GFSSW_700_spd_003.txt.gz
Wind_Speed
7 7 8 7 8 8 8 9 10 12 10 12 13 12 12 12 12 13 14 15 17 20 23 24 21 20 16 12 9 13 8 17 12 13 10 8 5 2 8 4 9 12 16 15 8
6 8 8 9 10 10 12 14 15 13 14 15 16 15 16 17 16 16 13 15 16 17 22 19 19 16 7 5 11 9 11 10 6 6 5 9 1 10 13 2 11 10 13 16 15
9 9 9 11 14 15 17 19 18 16 17 18 19 20 19 18 16 15 13 16 21 22 20 17 14 9 10 6 8 6 11 5 5 6 12 10 4 3 6 3 2 1 5 13 22
8 10 13 16 17 20 22 21 21 20 19 18 18 16 14 13 12 15 15 16 16 18 16 15 13 10 3 9 9 5 4 4 4 5 2 3 6 12 11 6 15 13 17 23 26
13 15 17 19 23 23 22 21 21 21 18 17 18 16 16 15 17 17 17 20 18 11 19 11 9 9 8 2 1 4 5 9 7 13 11 7 5 2 12 8 10 8 12 13 16
16 17 18 21 23 22 22 22 21 21 21 21 20 16 15 11 16 12 9 16 15 9 10 11 14 10 6 4 2 3 4 1 6 10 11 12 15 16 5 6 11 13 17 11 11
17 17 19 22 23 22 21 20 20 20 20 18 16 14 11 9 12 14 12 9 14 12 14 11 14 11 9 6 8 9 7 7 8 9 11 17 7 4 8 9 12 19 21 20 16
17 20 21 21 21 20 18 18 17 15 15 15 14 12 8 5 9 9 10 7 13 17 17 15 15 15 10 11 9 14 9 8 11 11 10 17 12 12 11 15 19 24 24 22 19
17 19 20 21 20 18 18 17 16 16 13 13 12 8 5 2 4 5 7 6 8 16 12 10 12 12 9 14 9 7 12 10 12 3 11 13 21 15 7 12 22 24 22 17 15
16 17 18 19 19 19 19 17 15 15 13 10 5 5 1 3 2 3 5 4 8 12 9 8 9 5 4 8 10 14 14 16 9 10 13 17 23 18 9 13 16 17 9 8 9
15 15 16 17 21 22 21 20 14 8 9 8 6 6 1 3 1 7 3 3 8 9 4 1 6 3 8 8 8 8 12 16 13 16 20 21 20 12 12 14 14 13 12 17 19
14 15 14 16 18 19 16 13 11 5 6 6 4 3 1 1 3 7 5 6 2 5 5 2 8 7 10 6 12 13 13 12 18 20 15 16 18 15 15 18 16 6 1 4 7
11 12 14 14 12 10 3 13 10 7 5 4 2 3 4 3 4 7 7 4 3 4 5 6 6 11 8 7 12 13 11 18 23 24 6 15 13 5 15 18 15 9 8 10 15
8 9 10 11 11 10 13 14 10 7 4 3 6 5 8 5 8 8 9 4 5 6 3 1 6 12 6 7 13 20 14 18 19 20 15 23 7 18 17 14 15 10 11 14 15
7 8 8 8 8 10 13 10 5 5 2 4 3 2 5 7 4 9 8 6 6 5 2 3 12 14 10 15 13 15 19 23 17 14 17 14 7 7 7 16 9 6 8 13 19
6 7 6 7 6 9 9 5 5 3 1 3 3 5 5 10 8 7 8 10 3 4 8 11 14 9 18 9 11 15 21 15 2 2 2 12 11 7 15 11 6 11 10 13 17
4 5 5 4 6 7 7 7 5 3 3 2 2 3 4 5 3 9 9 11 12 7 5 6 7 10 14 19 15 12 20 9 5 2 4 18 14 8 24 9 8 10 14 18 24
5 4 3 3 4 4 7 4 4 5 4 4 5 6 2 6 5 6 6 8 9 8 7 5 3 6 14 19 13 11 12 5 2 1 10 22 3 8 18 8 12 18 20 19 27
6 6 4 3 4 5 8 7 3 3 1 2 3 3 1 7 7 7 6 5 11 14 7 10 2 8 12 14 11 8 9 10 6 9 2 7 8 20 10 14 27 20 16 20 26
5 6 5 4 5 7 6 5 2 5 3 7 5 1 6 6 2 6 5 5 6 10 8 5 12 3 6 12 8 7 9 5 3 2 3 6 18 11 17 26 17 16 34 36 35
5 6 5 5 6 6 6 3 3 0 1 5 5 3 2 2 5 3 4 4 5 11 5 8 7 9 14 3 6 5 10 10 10 8 3 3 6 13 34 17 21 27 34 33 28
6 5 4 6 7 7 5 4 1 4 4 2 2 3 3 2 2 2 2 5 12 11 8 10 8 15 12 2 5 1 13 19 17 8 20 23 24 21 13 33 31 35 21 33 28
1 5 4 6 4 4 5 3 2 2 2 2 2 1 1 2 2 2 5 9 11 15 10 15 4 10 9 4 5 15 25 26 28 30 27 15 23 37 38 35 26 31 34 37 40
2 3 4 4 6 4 4 2 3 2 0 1 1 2 2 4 1 2 3 8 12 14 17 18 10 7 11 19 20 27 34 34 27 25 33 30 40 36 34 26 30 31 36 40 42
5 3 4 8 9 8 7 6 4 3 3 1 5 6 3 3 6 2 4 11 14 15 13 16 22 24 28 25 27 30 34 38 38 42 36 41 29 29 29 32 32 32 38 44 42
5 4 6 5 6 6 5 6 6 6 4 1 3 4 5 5 8 13 16 16 20 21 19 18 26 26 33 34 32 24 44 40 21 17 30 38 38 27 30 30 32 34 38 41 52
8 10 8 6 7 6 1 3 4 9 7 8 10 13 13 15 19 21 21 23 25 26 25 26 24 25 33 31 27 25 23 24 29 36 30 31 29 31 31 28 29 31 40 50 48

GFSSW_700_spd_009.txt.gz
Wind_Speed
14 14 13 14 14 13 12 11 13 13 12 12 11 13 13 16 17 18 22 23 19 17 17 17 16 13 11 16 14 13 13 18 12 6 6 5 4 1 5 7 1 2 4 7 9
12 12 13 13 13 14 13 14 15 15 15 14 14 13 15 17 19 20 22 19 18 17 15 16 13 11 11 14 14 15 15 11 7 5 5 3 1 4 6 3 2 2 4 8 11
11 12 12 13 15 15 17 20 19 18 18 15 13 15 17 20 18 20 21 19 19 18 15 13 13 10 9 7 7 5 4 2 3 3 7 8 8 13 11 6 5 6 8 11 12
11 12 14 15 16 19 22 21 20 19 18 16 15 16 19 20 15 21 23 20 19 18 12 14 10 9 6 5 4 7 14 14 9 8 5 5 3 4 3 2 4 6 11 13 13
12 14 16 17 20 23 23 22 22 20 19 16 16 18 21 16 21 20 19 19 19 17 13 13 9 7 7 8 8 9 7 7 5 4 7 7 5 6 4 5 4 7 7 9 11
14 17 19 22 25 24 23 23 22 20 18 19 17 16 16 17 17 15 14 13 13 15 12 12 9 7 6 5 5 6 4 3 4 3 4 7 5 2 6 8 5 6 6 7 10
19 21 23 25 25 24 23 23 22 19 19 19 18 20 18 15 16 14 13 15 15 13 13 16 11 7 6 4 3 4 3 2 8 6 5 7 5 4 8 8 6 6 8 8 10
22 23 23 23 22 22 21 21 19 19 19 17 16 15 14 12 12 14 17 17 18 17 16 12 10 6 6 1 4 3 2 8 4 4 3 11 13 11 11 11 8 7 9 7 9
22 23 23 22 21 21 20 20 19 17 16 16 14 14 12 13 12 13 14 15 16 13 11 8 7 5 4 4 1 4 5 9 1 2 5 9 23 18 18 15 8 6 9 8 12
21 21 22 21 21 20 20 20 19 17 14 13 9 8 9 10 10 11 11 13 14 11 9 7 2 3 5 7 2 6 10 10 7 11 14 17 22 17 11 11 6 4 5 10 15
17 18 20 20 21 21 22 22 18 14 10 6 7 6 4 7 6 4 7 10 10 10 10 5 1 3 6 9 7 8 12 16 9 9 20 16 17 14 11 13 5 5 8 4 9
17 18 19 20 21 21 19 18 15 13 9 9 8 6 6 5 4 3 4 5 7 4 3 2 1 3 8 8 7 9 13 15 11 14 15 9 10 9 9 5 3 5 4 1 3
15 16 18 18 18 17 16 13 12 11 10 10 8 7 5 3 5 5 4 2 3 3 1 2 3 7 7 7 9 10 10 14 17 18 4 12 1 9 9 4 6 5 3 4 8
14 15 16 17 16 14 13 11 13 13 6 6 5 5 6 3 5 6 5 1 1 1 3 3 4 8 7 9 12 13 16 16 15 14 3 7 3 9 5 7 9 8 8 8 9
12 13 14 14 13 11 12 11 10 8 4 3 7 4 8 9 3 5 7 5 3 3 2 1 3 6 7 11 15 16 15 16 13 6 4 7 2 9 8 7 11 12 12 10 14
11 12 13 12 11 13 13 9 8 3 3 4 4 3 7 8 4 5 8 5 4 2 1 2 1 3 6 12 8 13 13 4 2 2 2 3 12 10 11 10 8 9 8 13 19
11 12 12 12 13 14 10 10 5 4 7 5 4 3 5 6 3 6 9 7 7 1 3 2 2 3 8 14 4 14 10 3 3 3 4 7 5 4 12 17 9 6 5 14 15
10 11 11 10 13 12 11 8 3 9 7 6 4 5 6 4 5 6 9 9 11 11 5 5 2 6 10 10 9 11 13 5 3 1 7 9 4 7 9 15 6 3 22 19 17
9 9 10 12 12 12 12 5 5 10 7 6 6 5 5 3 2 4 9 9 11 15 9 7 3 7 7 8 4 4 7 6 1 2 4 7 1 10 15 16 23 22 25 19 22
10 9 9 11 12 12 11 6 8 8 5 7 7 5 6 3 2 1 4 6 7 12 10 8 5 7 8 3 3 4 4 3 6 3 3 8 18 13 15 21 35 32 27 24 23
9 10 11 12 13 11 8 7 7 7 7 7 7 5 5 4 3 2 0 3 5 10 9 9 6 8 2 4 4 3 2 3 2 2 3 3 9 14 28 24 26 30 30 27 24
10 12 13 13 12 10 8 8 8 7 7 6 6 5 4 3 4 2 1 3 9 9 10 11 3 8 5 1 4 6 4 11 4 4 12 16 19 9 8 24 28 29 31 27 30
8 12 14 12 9 10 10 8 7 6 5 5 6 5 4 3 2 3 2 4 7 8 12 12 6 6 2 5 9 15 21 14 22 19 14 10 11 10 26 29 33 29 29 28 30
10 11 12 9 9 9 9 9 8 6 5 4 5 4 3 2 2 3 5 6 8 9 15 16 10 11 11 13 20 29 28 28 27 19 21 30 39 30 29 35 25 24 27 31 37
9 11 12 12 11 10 10 9 8 7 5 5 4 4 2 2 5 8 9 10 12 16 16 13 18 23 25 22 24 31 32 28 30 29 24 30 31 36 30 30 27 29 33 39 44
12 11 11 11 10 10 7 8 6 6 6 5 5 6 8 10 10 11 13 15 16 16 15 19 21 24 31 20 16 29 30 17 15 20 24 30 33 30 33 29 29 33 41 50 51
10 12 12 12 11 11 12 11 9 9 8 8 8 10 11 11 14 16 16 16 18 19 20 22 18 9 11 18 19 22 7 22 23 28 32 30 28 30 31 34 42 48 51 52 52

GFSSW_700_spd_012.txt.gz
Wind_Speed
16 17 16 16 16 14 12 11 12 13 13 14 15 16 16 17 16 17 18 16 15 14 17 17 15 14 16 15 13 13 18 12 9 6 8 5 2 2 6 3 2 1 2 3 2
13 13 14 15 14 11 12 14 15 15 15 16 16 17 18 19 17 18 17 14 13 10 13 13 13 12 15 16 13 11 11 7 4 2 2 3 3 6 8 5 2 2 3 6 7
12 13 13 13 12 13 15 17 18 18 18 17 17 19 19 20 19 18 16 15 14 11 14 13 10 9 12 10 11 10 7 5 3 2 5 5 7 10 8 2 6 8 11 13 11
11 11 13 13 14 16 18 20 19 19 17 17 17 18 20 19 13 17 16 16 14 11 9 9 9 4 4 8 12 18 16 11 9 6 5 4 3 3 5 6 10 8 9 10 10
11 13 14 15 18 20 21 22 21 18 15 15 17 20 20 16 15 18 16 15 14 10 7 8 6 3 5 11 15 13 8 5 3 3 4 2 3 3 4 4 3 5 5 5 8
13 14 16 18 20 21 21 21 20 18 16 13 14 17 17 9 15 16 13 11 9 8 7 5 8 10 12 11 8 7 5 2 2 4 1 2 1 1 5 7 3 1 2 3 5
16 18 20 21 22 22 23 21 19 16 14 14 16 16 17 13 15 13 11 11 11 10 9 11 12 10 9 8 6 5 3 2 1 2 5 5 4 1 5 6 4 3 2 3 5
19 19 21 22 22 22 21 19 16 14 14 15 16 16 13 11 9 11 13 12 11 11 11 11 8 5 4 3 2 2 1 2 3 1 5 8 9 4 12 15 12 10 5 4 6
20 20 21 21 21 21 21 17 15 15 14 15 14 12 10 10 10 11 13 13 13 14 14 10 6 3 6 4 1 2 2 6 2 2 5 9 18 20 15 16 7 8 8 8 9
20 20 20 20 20 20 18 18 17 14 14 14 12 8 9 9 9 10 11 12 12 9 5 4 2 0 2 7 4 6 8 10 12 13 15 16 20 17 13 10 4 6 6 9 10
18 19 20 21 21 21 21 18 18 15 13 7 9 7 9 7 5 5 7 10 11 9 7 5 2 4 7 9 6 7 11 14 13 11 18 17 13 8 5 9 8 4 4 6 10
17 18 18 19 19 18 17 16 14 13 10 10 10 8 8 6 5 3 5 8 8 7 5 3 1 4 6 7 7 10 12 12 8 11 16 8 4 6 7 6 3 2 2 5 6
16 16 16 14 13 13 15 13 11 9 12 12 11 9 7 5 5 4 3 3 2 1 1 2 4 6 4 5 7 8 7 13 15 14 6 9 2 3 4 4 5 4 2 6 7
14 14 14 14 14 14 12 9 11 13 7 6 5 8 5 3 5 7 5 3 1 3 6 5 2 4 5 9 11 12 13 14 13 10 1 9 2 10 3 3 5 5 3 5 7
14 14 14 15 14 11 12 9 11 10 4 4 8 6 7 4 3 6 6 4 3 3 2 2 2 4 6 9 12 10 14 16 10 4 2 3 2 5 8 6 6 7 5 7 11
12 13 15 14 14 11 12 10 10 4 3 5 5 6 5 7 7 9 8 3 3 1 0 2 3 3 4 10 11 13 13 5 3 2 2 1 9 7 4 10 13 4 2 6 12
12 14 14 14 13 15 14 11 5 3 8 7 5 7 5 6 5 7 9 4 3 2 3 2 3 3 6 9 5 11 7 2 2 3 3 4 5 4 7 7 5 5 7 11 14
12 13 13 13 16 15 11 9 3 10 7 8 7 6 4 3 6 7 7 10 11 8 3 5 1 4 6 8 8 10 10 5 2 1 6 5 5 10 10 11 5 6 16 19 24
11 11 11 12 15 12 12 4 4 11 10 8 9 6 4 1 1 4 8 10 11 13 7 7 2 5 10 5 4 4 5 6 1 2 3 4 3 9 20 17 19 27 32 28 21
11 11 11 14 13 14 12 6 10 9 9 8 7 4 5 2 1 3 5 6 6 11 10 8 2 5 4 2 3 2 2 3 4 2 3 8 13 6 16 18 28 32 28 27 23
11 11 12 12 12 12 9 7 11 9 7 7 6 5 5 3 2 1 1 3 6 9 8 8 3 5 4 3 2 2 1 2 2 2 3 3 7 11 21 25 27 28 33 31 26
12 11 12 13 12 10 8 10 9 8 7 5 5 4 3 2 2 1 1 2 5 7 9 11 4 8 7 4 2 4 3 6 3 2 8 12 18 11 9 20 32 31 34 29 27
10 10 13 13 10 11 10 10 9 7 7 6 5 4 4 3 2 3 2 4 6 9 10 14 7 7 5 4 2 8 11 20 16 15 12 9 13 18 21 29 29 26 24 25 29
10 11 13 12 8 10 12 11 10 8 7 6 5 4 3 2 1 1 3 5 10 10 13 16 7 7 7 15 22 28 25 26 25 18 20 31 37 28 27 25 28 28 25 29 35
10 9 13 13 12 11 11 10 9 8 6 5 3 2 1 0 3 4 5 7 11 15 15 12 13 17 20 20 22 24 25 24 24 27 23 28 27 28 28 29 30 27 33 42 44
10 8 12 12 12 13 11 10 9 7 5 4 3 2 3 5 6 9 11 12 12 13 14 19 16 21 25 13 17 30 28 13 12 20 25 27 34 29 26 29 24 35 50 50 46
12 10 11 12 13 13 11 10 9 7 6 6 4 4 7 6 9 12 13 11 16 18 17 17 15 13 14 18 22 20 2 18 27 19 23 29 30 27 32 32 34 46 56 50 48

GFSSW_700_spd_015.txt.gz
Wind_Speed
17 17 17 17 15 14 12 11 11 11 14 14 15 15 16 16 14 14 13 12 13 20 18 18 14 14 16 16 15 18 20 16 13 9 9 7 4 4 5 4 5 3 5 4 2
16 14 14 14 13 12 11 13 13 15 17 17 17 17 20 16 14 15 16 13 11 18 17 15 14 16 17 15 15 16 13 10 8 6 7 4 2 3 5 6 5 5 7 6 5
13 13 13 12 11 13 14 15 16 19 19 18 19 20 20 16 15 15 14 14 13 14 12 12 10 11 13 13 15 13 9 8 5 3 3 4 0 5 6 9 10 10 10 10 8
12 11 12 13 14 16 16 17 20 20 19 18 19 19 18 15 12 14 15 13 12 14 12 11 8 4 7 9 11 18 14 12 11 9 7 6 6 9 10 12 11 11 8 8 9
10 12 13 15 16 17 19 21 21 19 18 17 20 19 18 15 10 16 15 12 11 11 9 8 5 2 4 19 17 14 11 8 7 6 4 5 5 6 6 6 6 5 4 4 5
11 13 14 17 19 20 22 22 20 18 15 17 19 18 17 11 14 15 14 13 11 7 6 7 5 5 16 15 11 8 5 4 3 3 3 3 3 2 1 2 4 4 2 1 1
13 16 18 20 22 24 23 22 19 15 15 17 16 17 18 9 12 12 12 11 10 6 6 10 11 9 11 10 8 6 3 3 1 2 5 6 7 5 3 5 3 6 6 5 4
18 19 21 23 24 22 22 20 16 15 14 14 15 15 14 8 9 10 9 9 7 6 8 10 7 5 5 5 4 4 1 1 2 1 5 6 7 4 11 12 14 10 10 8 7
20 22 23 23 22 22 20 17 14 13 12 15 13 10 8 8 7 8 9 9 7 9 8 7 6 1 4 4 1 1 0 1 3 5 5 9 9 15 18 13 6 9 9 8 9
21 22 22 21 21 21 19 16 15 13 14 14 12 8 9 7 7 8 9 10 9 8 6 4 2 1 1 1 2 1 2 4 7 8 8 10 11 11 10 5 6 6 7 8 12
20 20 20 21 21 20 18 19 17 15 10 11 11 10 10 8 7 7 9 10 9 6 4 3 2 1 2 4 3 4 6 8 8 5 10 9 7 4 1 3 8 6 7 6 11
17 17 18 18 18 17 18 16 15 15 16 14 13 11 9 8 6 4 5 7 8 6 4 5 2 1 2 4 5 7 6 6 4 8 10 6 1 2 6 6 5 4 4 7 8
16 16 16 16 16 17 16 16 14 13 17 16 13 10 9 8 7 6 3 3 5 4 3 4 4 3 3 3 5 8 5 10 12 10 5 4 4 1 3 5 6 3 1 4 3
16 15 16 16 16 16 17 14 14 14 8 7 6 9 4 6 8 8 5 3 5 5 8 4 2 1 5 8 9 9 9 12 13 7 2 3 4 7 3 3 2 3 3 4 4
15 15 15 16 16 16 15 13 15 8 4 5 9 5 8 3 5 7 5 5 4 4 2 3 1 4 6 7 11 7 14 14 7 4 5 2 3 3 7 3 4 4 3 4 6
16 16 16 17 16 14 14 12 12 4 4 5 6 5 5 8 8 8 6 4 4 4 3 1 2 3 5 9 10 12 12 3 3 4 2 2 3 5 3 7 8 9 11 8 8
15 15 17 16 14 12 13 12 7 3 11 8 9 6 6 8 8 8 8 3 2 2 0 1 1 2 7 8 5 9 6 1 1 1 1 2 3 4 7 8 8 7 6 9 15
15 16 15 14 14 16 14 12 4 12 9 10 11 7 3 6 7 8 8 10 10 6 5 4 1 3 5 8 7 10 9 4 1 2 5 8 5 8 12 11 5 5 12 20 25
14 14 14 14 18 15 14 4 5 14 14 13 12 8 5 4 3 4 9 10 11 11 4 5 1 2 7 3 4 5 5 5 3 4 3 4 2 8 16 13 12 19 24 25 23
13 13 13 15 17 14 13 7 13 13 14 13 7 6 5 4 2 3 4 6 7 9 7 6 1 2 2 2 4 2 3 3 4 2 2 7 7 7 10 20 18 26 25 28 26
13 13 14 16 15 14 11 8 16 14 12 10 8 6 6 4 2 3 4 3 5 6 7 7 3 3 4 3 3 2 1 2 2 0 1 3 7 12 20 22 17 30 32 26 23
13 11 14 14 14 13 10 12 13 12 10 7 8 6 6 5 3 3 3 1 3 6 6 10 3 4 7 2 1 2 3 2 3 2 5 7 16 4 6 18 25 31 26 26 25
12 11 14 14 12 14 13 13 12 11 9 8 8 6 6 5 3 3 2 1 3 7 8 11 6 5 1 3 3 4 9 15 9 8 12 5 11 15 28 26 25 23 22 21 20
11 12 15 15 10 10 13 13 12 10 8 8 7 7 6 5 4 4 2 3 7 9 10 13 7 7 9 12 16 22 21 18 16 11 14 28 32 26 21 25 21 23 22 23 31
11 10 15 15 12 13 13 12 11 11 8 9 8 6 6 5 3 2 2 4 8 11 10 10 12 17 16 16 18 21 19 18 20 22 17 26 26 25 23 23 25 31 34 37 40
10 8 13 13 14 14 12 12 11 10 9 8 7 6 5 3 3 2 4 6 5 9 12 17 12 17 22 12 12 26 28 20 3 11 20 19 27 24 25 27 33 31 34 42 46
11 8 11 12 14 14 13 13 12 10 8 7 6 6 5 4 3 5 6 6 9 12 14 15 10 12 10 12 21 19 4 5 25 19 15 23 26 28 31 32 30 36 44 50 49

GFSSW_700_spd_018.txt.gz
Wind_Speed
17 17 17 17 15 13 13 12 12 11 11 12 14 14 14 13 12 12 11 14 24 20 18 16 16 18 19 19 18 13 11 13 11 11 10 10 7 3 4 8 5 5 7 9 9
15 14 15 14 13 14 13 13 13 13 14 15 16 17 17 15 15 14 13 15 22 20 16 13 13 15 15 13 17 9 9 9 11 8 9 7 6 2 5 6 5 6 6 6 6
13 13 12 12 14 14 15 16 15 17 17 18 18 20 16 15 15 15 14 14 20 17 15 12 13 14 13 16 17 12 8 10 8 10 10 7 5 6 7 7 7 6 6 6 6
12 12 12 14 15 17 17 16 19 19 19 19 19 19 15 15 8 15 14 15 17 13 13 11 11 9 11 12 14 13 10 9 10 10 8 6 7 7 10 8 12 11 8 7 7
10 12 13 14 16 17 19 21 21 19 20 19 20 18 16 14 12 18 16 15 15 13 10 9 7 6 7 16 16 13 12 12 9 8 8 7 8 7 11 12 10 10 7 4 4
11 13 14 16 18 20 23 23 20 20 19 19 19 18 15 8 11 17 15 14 12 9 8 9 8 6 17 20 11 13 8 6 5 4 5 7 7 6 6 6 8 8 5 5 4
13 16 18 20 21 24 24 22 20 17 16 17 16 16 16 11 11 16 13 12 9 7 6 8 10 14 16 11 9 8 7 5 1 5 8 6 5 5 8 5 3 8 10 9 9
16 18 20 22 24 24 24 21 17 15 15 16 16 15 13 7 11 12 12 10 8 8 10 11 9 9 10 10 8 6 5 5 1 4 4 5 5 7 12 7 13 13 11 14 13
19 21 23 25 25 25 22 18 15 14 15 16 14 12 9 7 7 7 9 9 9 9 10 8 7 4 6 6 4 4 3 2 2 5 6 5 5 10 17 19 14 19 18 17 16
23 25 25 25 26 24 21 17 16 16 17 15 12 7 7 6 6 8 9 10 11 10 7 4 4 3 3 2 2 3 2 2 3 6 6 5 6 10 13 8 10 12 12 15 17
23 24 25 25 25 23 20 20 19 18 16 10 11 9 9 8 8 8 9 10 9 7 5 5 3 4 2 2 3 2 2 3 4 5 2 2 3 4 3 6 11 9 10 11 16
21 22 22 23 23 20 20 19 17 19 18 15 14 12 10 8 9 8 10 10 10 8 7 3 3 2 1 1 2 3 3 2 4 4 5 3 1 2 4 6 7 7 9 8 11
20 21 22 22 21 19 20 17 17 18 16 14 13 13 11 9 6 8 9 9 9 7 6 6 5 3 2 2 3 5 1 4 6 8 4 2 3 3 5 6 6 4 4 8 11
19 19 19 20 20 20 21 19 18 17 8 9 7 6 7 9 8 7 7 7 9 8 11 6 5 2 2 4 4 4 7 11 10 5 5 7 5 3 6 5 5 6 7 7 7
19 19 19 19 19 19 20 19 19 9 3 8 9 7 7 5 7 7 6 8 7 9 4 4 3 1 2 5 8 4 11 11 6 5 4 3 6 3 5 4 4 7 9 9 9
19 20 20 19 20 20 18 18 15 3 3 6 8 8 6 9 9 8 7 6 7 6 4 3 1 1 4 8 8 8 10 5 1 3 5 3 3 6 5 3 3 3 11 10 10
19 19 21 21 20 20 16 16 7 3 13 9 11 10 8 10 10 9 7 4 4 3 2 2 1 2 4 4 5 8 4 2 2 4 1 4 4 2 6 8 7 11 11 11 13
20 20 21 21 18 18 16 16 4 10 8 14 14 11 8 10 9 8 9 9 6 5 4 2 1 3 6 4 3 7 6 3 3 2 3 4 4 6 11 12 13 13 13 15 21
19 20 20 18 18 19 18 8 5 12 16 17 13 6 6 5 6 6 8 9 8 7 3 3 1 2 6 4 5 4 3 3 1 4 3 1 2 6 13 13 13 14 18 24 24
19 17 17 18 21 18 16 8 12 13 17 16 7 7 6 7 4 4 4 4 6 8 6 4 2 2 4 5 4 1 1 2 3 3 3 3 7 10 8 13 14 18 26 26 27
19 18 18 21 19 17 12 9 17 18 15 14 8 9 9 9 6 5 5 5 4 4 5 5 1 3 3 2 3 3 1 1 1 1 3 4 7 8 5 10 12 19 26 26 26
18 15 19 21 18 17 13 17 17 17 13 10 10 8 11 9 7 6 6 5 2 2 2 5 1 2 4 6 5 5 4 2 2 3 5 5 12 8 4 14 23 19 27 27 23
15 16 19 19 14 17 15 17 18 16 13 11 11 10 9 10 5 7 7 4 2 3 4 7 3 3 2 3 7 5 5 10 12 8 12 7 7 10 19 20 19 24 26 25 29
15 14 18 19 13 15 16 17 16 14 12 11 10 10 10 10 6 7 6 3 3 3 5 6 5 5 7 10 10 11 12 12 11 9 12 21 23 20 17 19 20 24 27 25 29
15 14 18 19 14 16 15 15 15 15 11 12 11 11 10 9 8 6 5 4 4 6 5 6 8 12 12 13 17 17 16 15 19 19 16 18 20 18 20 22 25 29 26 31 34
14 12 17 14 16 16 16 17 15 13 14 13 11 11 10 7 6 6 4 4 7 6 7 10 9 15 19 17 14 19 23 20 11 13 18 20 20 16 26 30 27 23 26 37 48
13 10 15 15 18 18 17 16 15 12 12 11 10 10 9 7 6 5 5 7 9 10 9 11 9 10 9 13 24 13 4 5 15 11 13 12 16 25 24 21 24 28 41 45 44

GFSSW_700_spd_021.txt.gz
Wind_Speed
20 18 18 17 17 16 16 16 14 13 13 11 11 12 10 9 9 8 1 13 20 16 13 14 15 15 16 14 11 10 11 12 8 8 7 7 6 5 6 5 6 6 7 12 12
18 17 16 16 16 16 17 15 14 14 13 13 14 13 11 12 11 4 8 21 17 15 13 13 14 14 10 10 10 3 6 9 6 5 9 7 5 3 6 6 5 7 9 12 10
15 14 14 14 16 18 16 16 15 14 14 15 16 15 13 15 12 3 11 20 18 15 12 10 10 9 9 8 7 2 6 6 5 8 7 7 5 6 7 5 6 6 9 12 6
13 12 13 15 16 17 17 16 15 16 16 17 17 16 15 15 5 8 11 18 16 12 13 11 8 8 8 7 7 5 6 6 7 8 8 6 5 5 7 9 9 8 8 11 6
12 12 13 15 16 16 16 17 18 17 18 17 17 17 17 6 7 15 14 17 12 10 5 5 7 6 3 6 8 7 9 8 8 8 6 8 5 4 6 5 8 8 8 9 9
11 13 14 15 16 17 18 19 18 18 16 16 17 16 15 6 12 14 15 16 8 5 4 4 4 3 8 12 5 10 8 7 5 4 6 7 5 5 7 8 8 9 8 8 9
11 13 15 16 18 20 21 20 18 15 15 17 16 15 8 10 12 16 13 13 12 8 4 8 5 7 9 7 8 9 6 4 6 6 4 5 8 6 6 7 8 11 10 11 10
13 15 18 20 21 22 22 19 16 14 14 14 13 13 4 5 9 15 12 9 7 7 8 9 11 9 8 7 7 7 8 11 6 5 6 6 13 11 6 7 7 9 11 13 13
17 18 20 23 25 24 21 17 15 14 13 13 12 10 3 4 6 12 11 8 9 9 9 9 9 6 7 7 8 9 12 3 3 6 4 7 1 6 8 12 13 14 15 12 14
21 23 25 26 26 24 20 17 16 15 15 12 10 5 5 6 9 11 11 12 9 10 7 5 3 4 5 9 11 6 4 5 5 3 5 8 9 10 10 12 11 10 14 15 14
24 25 26 27 26 23 21 19 17 17 14 7 9 5 6 8 9 11 13 13 10 7 6 5 7 1 2 3 3 0 3 4 4 5 3 6 7 6 3 2 3 5 7 10 11
24 25 26 27 25 22 22 13 16 15 10 10 9 10 10 14 6 8 13 5 7 6 6 4 3 2 1 1 1 2 4 2 5 4 2 5 5 2 2 5 7 6 7 10 13
23 24 26 25 22 21 19 20 17 18 9 10 11 6 10 10 8 10 11 6 5 6 5 1 5 4 2 2 3 4 3 4 7 9 11 7 9 6 5 8 9 11 12 13 8
22 23 25 23 19 20 19 20 19 16 7 5 3 4 7 10 3 8 9 9 4 6 7 4 5 2 1 2 4 7 4 9 9 8 10 11 7 10 9 7 7 8 7 7 5
22 23 24 24 21 21 20 22 19 10 4 6 3 6 9 4 8 4 8 5 6 7 5 3 3 1 2 3 5 6 11 8 7 8 10 10 13 13 12 7 5 4 4 3 10
23 24 24 22 23 22 20 21 14 1 3 6 5 8 8 7 6 8 6 7 9 5 5 5 3 0 2 6 4 5 7 7 4 5 7 3 8 15 10 7 6 2 0 4 14
23 23 22 22 23 22 19 19 6 4 7 7 9 8 7 7 9 8 6 5 4 5 3 4 1 2 3 5 5 8 6 6 3 5 2 3 6 3 5 6 7 4 0 12 16
23 23 23 21 22 21 18 11 7 3 8 10 12 12 6 8 6 6 7 6 4 3 3 4 6 2 6 2 3 5 4 3 4 3 5 3 7 5 8 6 3 1 3 9 12
22 22 23 22 21 21 17 11 3 7 9 14 14 8 7 6 6 5 8 5 4 4 2 1 2 1 4 4 4 5 2 1 2 2 3 6 4 6 9 7 3 4 7 9 15
22 21 22 22 20 21 10 10 5 12 13 14 8 8 7 7 5 6 4 4 3 5 6 1 2 2 4 5 5 2 2 4 1 3 4 3 9 6 10 8 8 8 12 12 14
21 15 20 20 21 17 10 7 10 15 17 11 7 7 8 7 7 5 4 5 4 2 4 3 1 1 4 1 4 5 3 4 5 3 4 4 6 3 3 6 8 12 16 13 13
20 9 21 23 16 13 9 8 14 18 17 12 8 8 8 8 6 4 6 5 4 2 1 4 1 2 2 5 4 3 4 4 4 5 6 6 12 3 1 6 12 12 16 17 15
11 12 22 25 13 18 15 14 15 16 12 9 11 9 9 9 4 7 6 5 3 1 1 1 2 4 3 0 3 3 5 6 6 7 13 11 9 7 11 13 12 16 18 13 17
10 11 20 24 14 14 15 15 18 18 15 13 11 10 10 7 5 8 6 5 4 3 2 2 2 2 7 10 12 12 13 13 14 15 15 18 21 18 15 17 16 16 15 20 23
12 11 18 20 15 13 13 14 14 16 15 12 11 8 10 7 8 7 6 5 6 5 4 2 2 5 9 13 14 15 16 16 18 21 21 24 20 21 21 16 17 16 19 23 25
13 13 18 14 16 15 15 13 14 13 11 13 9 12 9 7 5 8 6 4 4 5 3 6 4 11 15 9 12 17 20 20 18 13 15 17 21 17 13 18 20 23 28 31 26
16 15 17 15 18 15 15 14 14 13 14 9 12 11 13 9 10 9 10 9 7 4 6 7 6 8 7 15 23 8 3 2 7 10 12 16 16 18 18 17 23 31 39 26 39

GFSSW_700_spd_024.txt.gz
Wind_Speed
24 22 21 19 18 17 17 16 15 14 13 12 11 11 8 6 6 7 1 5 14 13 11 11 13 16 19 8 3 5 2 11 9 11 10 8 6 7 6 3 3 6 4 12 10
23 20 19 18 18 18 17 15 14 13 12 11 12 11 9 11 9 4 6 12 14 11 10 11 12 13 8 3 5 5 11 14 10 8 7 6 5 3 8 4 5 6 8 11 11
20 18 16 17 17 17 17 15 13 13 12 13 13 13 15 15 8 4 8 17 12 8 11 10 6 10 6 6 5 5 12 9 10 4 5 8 3 6 5 4 5 7 12 8 7
17 15 14 16 16 16 16 15 14 13 14 15 15 15 20 10 6 4 16 14 11 11 14 5 10 7 7 9 6 1 5 6 7 13 7 5 5 5 4 11 8 8 11 10 6
14 13 14 15 15 15 16 14 14 15 16 17 17 19 17 10 3 10 17 12 10 12 9 4 7 6 8 6 5 3 6 7 8 12 6 6 4 3 5 7 9 8 9 9 8
12 12 13 14 15 15 15 16 16 16 16 17 18 19 11 4 9 6 17 14 5 1 2 5 1 2 5 9 7 7 8 8 7 6 4 10 4 9 8 6 8 9 6 5 6
10 11 12 14 14 16 17 18 17 16 16 16 18 19 5 0 7 7 11 9 6 8 3 7 6 4 5 4 5 8 7 6 5 3 1 4 9 8 10 8 9 8 7 8 7
11 12 14 15 17 18 19 19 16 15 13 14 15 14 3 7 11 15 6 4 4 6 4 5 13 4 1 5 6 7 7 9 8 7 7 8 9 13 10 6 7 7 9 10 12
13 14 17 19 20 21 21 18 15 14 14 14 13 7 1 2 8 8 12 5 6 6 9 10 10 3 4 6 7 8 10 8 8 6 4 7 3 12 7 6 9 10 12 11 11
16 19 21 23 25 23 20 17 15 15 14 13 13 1 3 6 9 10 10 10 5 8 7 6 3 5 5 9 2 10 6 2 2 5 3 7 9 4 6 8 10 12 11 15 9
19 22 26 27 25 23 20 18 16 17 17 2 8 2 2 7 11 9 12 10 8 4 5 3 6 1 6 3 5 6 4 3 5 2 5 9 10 6 6 3 2 5 10 11 15
22 25 27 27 25 24 24 13 14 12 6 10 12 10 9 11 5 7 12 8 5 7 4 4 4 4 2 5 4 3 3 4 2 5 4 4 8 6 1 4 5 6 11 15 21
24 26 27 25 24 25 15 10 15 16 8 9 9 4 11 8 9 6 11 4 7 6 5 1 5 3 2 2 3 4 3 3 4 9 12 11 10 9 6 8 14 17 14 9 13
23 26 26 23 20 21 14 20 15 18 8 6 4 1 6 6 2 5 10 9 5 4 6 3 1 3 1 1 4 6 1 6 9 10 13 16 6 13 13 10 10 11 10 7 6
21 25 25 22 21 15 17 22 19 9 4 9 7 10 7 3 4 1 8 7 3 5 4 4 2 2 2 3 4 5 11 10 8 10 11 15 11 21 17 12 11 10 8 5 9
23 25 25 21 20 22 22 25 10 1 4 7 5 8 7 3 4 5 6 10 9 4 3 4 2 1 2 5 6 5 8 10 9 9 8 14 6 10 13 13 10 7 6 5 4
22 22 23 22 23 19 21 18 2 4 7 6 12 10 6 7 6 6 6 6 2 5 5 4 2 4 4 6 2 7 8 7 3 6 2 1 3 9 13 12 12 9 3 3 4
21 22 23 21 22 20 19 11 6 2 6 9 12 11 8 7 5 8 7 6 3 2 4 9 7 1 5 3 3 4 4 3 4 4 8 5 4 12 12 11 9 4 2 2 3
21 22 22 21 20 19 20 10 1 2 7 10 13 11 7 5 6 7 6 3 2 8 3 2 5 1 3 3 5 5 4 3 4 4 4 7 6 12 11 9 7 1 2 4 8
20 21 21 19 21 19 16 10 4 6 7 12 10 7 7 7 7 7 4 3 1 7 7 2 4 2 4 6 6 8 3 4 2 2 3 9 8 9 10 6 4 3 7 8 7
21 19 19 21 21 21 9 8 7 11 10 12 7 7 5 9 5 6 4 4 5 3 5 5 3 2 4 3 5 4 3 4 5 3 2 3 4 5 2 3 7 6 11 13 11
19 9 11 21 20 19 9 9 8 9 16 14 7 7 8 7 6 5 8 6 5 6 3 3 4 2 3 3 3 3 3 4 2 5 3 4 12 7 4 4 7 10 11 9 17
18 7 11 21 13 18 12 8 8 9 9 6 6 8 8 8 5 8 8 7 6 5 7 6 2 2 7 0 4 5 3 5 5 8 12 8 8 7 13 13 10 8 10 11 14
9 7 18 26 9 17 10 9 12 15 15 8 7 7 9 8 5 8 6 7 6 4 4 3 2 1 1 5 9 10 11 12 14 15 15 18 19 18 18 16 9 12 11 13 20
9 7 18 27 12 11 13 9 10 16 10 9 6 6 8 7 6 7 7 5 5 4 4 3 2 3 6 9 9 11 14 14 16 18 20 21 21 17 17 10 12 14 21 25 30
8 5 15 6 17 11 14 12 12 9 8 11 7 9 9 7 5 8 6 4 2 4 3 4 4 9 12 3 9 19 20 14 13 16 16 13 15 13 15 15 20 26 27 36 42
15 12 14 13 15 15 15 10 13 14 13 9 9 13 13 14 15 17 14 12 8 2 3 6 5 8 5 12 21 4 2 5 8 8 10 12 14 13 15 17 21 29 35 39 36

GFSSW_700_spd_027.txt.gz
Wind_Speed
29 27 24 21 20 20 18 17 16 16 15 14 14 13 8 5 5 5 4 5 8 11 9 10 13 16 20 20 2 3 15 20 16 19 14 12 11 5 6 8 10 11 9 5 10
28 27 23 20 19 19 18 16 15 13 13 13 13 9 8 10 6 3 2 11 13 9 7 10 10 13 15 2 2 7 1 18 17 11 10 11 5 2 10 4 7 8 6 3 8
28 25 21 18 17 17 17 16 13 13 12 12 11 12 15 11 3 4 9 15 10 8 9 12 15 12 5 1 2 7 8 10 21 14 8 9 4 8 11 7 4 4 8 3 7
25 21 18 16 16 16 15 15 14 13 13 13 14 19 17 8 3 6 11 10 9 11 14 21 15 8 3 2 4 6 5 2 13 16 11 7 8 5 7 7 2 3 6 1 2
21 16 15 15 16 15 15 14 14 14 14 16 18 23 13 6 8 4 14 12 14 11 10 7 2 4 6 4 5 2 5 4 7 17 16 11 10 6 8 11 8 4 4 6 4
16 14 13 14 14 14 14 14 14 14 16 17 22 21 12 6 5 10 15 10 6 3 4 3 2 8 3 11 11 6 2 5 11 18 12 11 5 10 7 6 10 5 6 3 7
13 11 12 14 12 13 14 15 16 17 17 19 22 19 5 6 6 10 16 10 11 8 5 8 8 9 7 13 8 9 8 4 6 5 7 11 9 11 15 8 6 6 4 7 4
9 10 11 13 14 15 17 18 18 17 17 19 20 14 3 2 9 17 14 12 14 9 11 12 12 11 3 6 9 10 10 12 8 5 5 4 7 12 17 6 8 7 4 7 10
11 12 14 16 18 20 21 19 18 17 17 19 17 6 5 6 8 16 14 9 10 12 5 13 11 8 6 8 10 11 12 13 14 7 5 2 9 22 13 6 4 7 9 9 10
13 15 18 21 23 23 21 19 18 18 19 19 16 3 5 4 9 13 16 9 11 12 12 14 11 5 5 5 8 6 7 17 15 13 10 6 2 13 14 13 9 13 12 22 19
16 19 23 25 25 24 21 19 18 19 20 11 4 9 2 7 7 11 13 15 15 12 9 3 3 6 10 6 5 4 8 12 16 11 0 5 3 15 9 6 8 12 11 22 25
20 24 27 28 26 25 26 18 16 16 8 10 10 8 10 10 7 9 13 13 12 7 0 4 5 5 1 3 4 5 4 8 7 4 8 4 4 9 8 10 10 11 13 13 21
25 27 28 26 25 25 11 19 18 10 8 10 6 5 17 13 6 13 17 11 6 3 4 6 5 2 7 4 6 5 4 3 4 3 7 8 6 11 9 13 15 14 13 17 20
26 28 27 25 26 15 15 20 21 15 8 8 10 7 11 11 12 11 12 12 6 1 9 4 4 4 5 2 1 3 4 7 8 7 6 6 1 16 17 19 19 17 12 15 22
26 28 26 24 25 18 20 21 20 7 3 10 7 7 6 5 3 4 13 11 2 1 6 5 5 5 4 4 5 3 7 8 7 8 9 7 8 22 20 18 17 18 15 16 17
24 26 24 22 23 18 19 21 14 4 4 9 7 11 7 5 5 2 13 9 5 6 4 6 4 2 4 1 9 6 7 9 10 8 5 9 9 17 18 20 18 16 15 13 12
25 26 25 21 21 19 23 17 3 1 10 9 13 10 7 8 7 9 10 10 6 6 5 10 3 7 4 3 5 6 7 4 2 1 3 8 10 3 13 18 19 18 16 11 8
22 23 23 20 18 19 22 12 1 4 7 9 15 11 9 10 12 9 7 9 10 8 11 12 4 1 5 4 1 7 8 4 0 1 5 6 5 11 14 16 13 10 7 8 7
22 23 24 21 18 18 21 9 2 4 11 12 12 13 12 6 8 6 10 4 4 7 5 8 5 3 3 6 5 5 6 5 1 4 2 3 15 7 6 1 5 4 4 2 7
22 21 20 19 19 20 23 9 1 6 6 13 14 13 10 9 9 5 4 3 3 8 8 8 7 2 8 7 9 11 6 4 3 1 3 6 6 2 7 6 4 6 5 10 11
22 20 20 19 20 22 21 9 4 11 15 14 13 10 7 12 8 9 5 5 8 6 5 13 6 6 4 3 2 4 4 1 2 1 4 1 3 7 6 3 4 10 10 12 15
21 17 18 20 22 23 18 4 8 8 14 13 7 10 7 12 5 8 9 6 8 10 6 8 9 8 5 4 4 3 2 1 2 2 2 1 7 17 10 11 7 10 12 14 15
20 15 13 21 20 22 11 8 7 7 14 12 14 11 7 12 6 8 12 8 11 8 9 11 7 7 3 1 2 4 1 6 8 10 9 3 5 4 12 14 23 19 10 12 15
19 14 12 19 16 21 10 11 13 12 12 10 9 13 12 10 8 10 10 11 8 7 8 8 9 5 6 2 5 7 8 8 11 8 13 16 17 17 14 12 4 10 15 19 23
13 12 13 25 17 17 13 7 14 16 15 14 9 9 13 8 6 9 8 9 7 8 8 7 9 8 8 7 9 9 11 12 14 15 15 17 9 4 14 16 15 18 19 20 23
13 14 12 13 19 17 16 13 12 7 10 10 6 9 11 12 12 10 8 3 5 7 9 8 6 6 5 6 8 14 13 3 2 4 9 7 8 15 14 19 18 20 23 26 31
11 12 17 12 25 16 13 14 14 14 8 11 11 15 15 14 16 15 14 11 9 7 9 6 4 4 3 7 12 3 4 5 8 9 9 10 10 18 21 26 26 27 27 31 42

GFSSW_700_spd_030.txt.gz
Wind_Speed
29 28 27 28 24 22 20 17 16 15 16 16 16 16 14 11 10 7 7 6 6 11 12 12 15 17 23 20 5 4 9 7 7 16 14 10 12 11 9 6 3 2 5 8 9
28 27 28 27 23 21 19 17 15 15 15 16 15 12 11 8 5 3 4 6 13 12 10 14 15 17 20 10 3 7 7 2 18 18 21 13 9 1 7 7 7 9 7 3 10
28 27 27 25 22 20 17 16 15 14 14 14 11 11 12 10 4 4 6 14 12 12 12 13 13 14 18 11 5 2 8 11 16 16 9 7 8 6 6 2 2 3 4 6 6
27 26 24 22 20 18 16 15 15 14 13 12 11 15 17 8 2 10 16 12 11 14 13 17 14 11 9 5 4 15 10 13 14 10 8 9 11 6 5 2 3 4 7 3 1
25 23 21 18 17 15 14 14 14 14 13 13 17 22 15 10 8 11 13 9 9 10 4 1 3 5 6 0 15 8 6 11 21 13 10 14 10 3 5 8 4 1 4 6 8
22 19 17 16 14 12 13 14 14 15 15 18 23 20 13 10 7 12 10 7 2 3 5 5 4 1 3 8 12 9 8 9 15 16 13 10 10 7 7 4 6 5 4 3 4
18 14 13 13 12 12 13 15 16 17 18 22 26 17 9 10 9 12 10 7 3 5 10 5 2 6 15 15 9 3 8 8 11 15 12 11 10 11 10 7 4 1 4 5 0
13 11 12 12 12 14 16 18 19 19 21 24 24 13 6 9 9 12 8 13 9 8 9 9 6 9 10 13 7 6 4 6 8 8 9 8 7 15 15 10 5 1 4 1 4
11 11 12 13 16 18 20 21 20 20 21 24 21 9 5 9 14 14 17 16 13 8 9 11 6 9 7 7 10 11 10 14 8 10 4 6 5 17 17 9 5 3 10 8 12
10 12 13 17 20 22 23 21 20 19 21 22 18 7 6 8 10 19 15 13 14 8 10 14 9 10 4 7 9 9 11 17 18 15 9 6 2 15 16 11 12 14 18 18 18
12 15 18 21 25 25 24 21 19 19 23 19 14 8 6 4 2 14 13 13 14 14 15 10 2 4 5 5 3 1 3 17 19 13 8 5 13 18 19 18 17 18 19 20 21
15 20 24 27 26 24 21 19 23 22 16 11 11 8 13 8 11 15 15 18 20 15 8 4 7 9 7 8 8 8 16 17 14 11 5 7 18 16 17 18 15 15 18 14 25
21 26 29 28 26 26 19 23 23 16 10 9 9 8 9 11 8 16 19 20 13 8 5 7 8 9 9 5 8 8 14 16 10 5 4 6 14 14 14 18 17 16 15 16 17
27 30 29 28 28 17 25 22 18 11 7 11 10 9 13 10 12 19 17 14 5 1 7 7 8 8 8 4 4 5 4 1 4 6 2 5 9 18 20 19 17 18 18 17 16
30 31 30 29 26 22 23 24 19 9 2 12 9 15 11 10 8 18 16 10 7 8 9 9 8 8 5 2 3 3 4 3 2 3 5 4 5 19 20 16 16 16 18 19 20
32 31 29 30 25 25 24 24 14 3 4 8 11 12 13 10 7 13 17 11 7 5 8 6 1 4 3 2 6 2 1 3 5 5 2 4 7 27 26 24 15 16 17 17 15
31 30 26 28 24 23 19 17 7 4 13 13 13 13 11 9 8 13 16 14 10 9 8 7 4 5 4 8 6 4 3 3 3 2 4 3 2 6 21 21 16 19 20 15 14
31 29 25 25 23 17 20 15 4 7 12 16 18 13 15 12 9 12 11 10 9 7 13 6 3 2 5 5 4 5 6 3 3 2 4 3 4 1 13 21 19 17 7 7 12
29 28 25 23 20 18 20 10 3 6 12 20 17 16 13 12 10 11 10 8 9 9 12 7 5 4 6 6 5 4 5 5 3 1 0 4 10 8 10 13 10 13 18 16 10
26 27 24 23 19 22 21 5 4 11 18 14 17 14 12 11 12 8 7 6 7 9 9 10 8 7 9 8 9 10 7 2 2 2 0 2 9 7 16 9 9 7 10 6 13
25 24 24 22 21 23 24 7 3 12 14 15 16 9 9 10 12 9 8 6 8 12 9 11 6 10 6 3 3 5 5 3 2 2 4 2 1 3 12 11 11 10 11 9 11
24 22 24 22 23 24 26 7 6 11 16 14 12 7 10 16 14 15 12 7 9 11 11 12 9 10 7 6 3 3 5 2 2 3 2 1 3 6 12 17 13 5 6 11 20
24 22 22 23 24 25 21 8 9 10 17 14 12 10 15 16 10 7 9 8 10 9 10 14 10 10 5 6 6 4 5 2 5 8 9 4 4 12 7 14 17 18 20 22 22
26 20 21 23 24 24 15 10 11 8 14 17 14 12 13 12 11 9 10 9 11 10 11 13 14 8 11 5 7 7 8 9 9 8 12 18 15 15 21 19 20 20 19 20 22
29 21 19 25 26 24 18 11 12 12 13 12 16 15 14 13 12 12 10 11 12 11 12 11 11 10 8 9 11 12 11 11 14 15 12 15 15 16 20 19 18 18 21 23 25
20 19 16 11 21 22 21 14 8 16 15 15 11 12 14 15 15 12 9 11 10 12 14 13 9 12 11 13 13 11 12 13 6 7 9 8 11 14 18 17 17 19 22 24 29
19 18 18 18 24 21 26 16 11 9 13 12 12 13 13 11 11 8 8 6 6 8 11 11 10 8 6 10 10 13 12 12 9 12 14 17 19 17 17 17 17 21 27 31 32

GFSSW_700_spd_036.txt.gz
Wind_Speed
30 32 29 29 31 29 27 25 24 21 17 15 13 13 14 15 16 15 10 12 10 11 8 11 13 12 10 13 13 11 12 7 13 20 15 20 15 2 13 11 9 6 3 3 12
31 32 29 30 32 29 28 25 22 19 17 15 14 13 13 13 12 8 9 8 8 9 11 13 14 13 14 14 15 13 9 5 10 16 9 8 10 14 15 8 4 5 1 6 11
31 30 29 31 32 30 27 23 20 17 15 14 15 13 12 9 3 4 6 7 11 11 12 13 13 13 17 19 13 5 7 6 12 14 13 14 18 17 8 1 4 1 3 10 12
29 29 29 31 32 28 24 19 16 14 14 14 13 11 10 7 6 5 8 11 8 7 8 10 11 10 18 13 4 1 2 9 17 15 18 18 14 10 7 4 9 13 11 9 9
27 29 29 31 29 26 19 14 13 13 14 12 11 11 10 12 10 12 11 8 6 8 8 6 5 6 8 5 3 10 7 7 20 18 16 16 8 5 8 2 4 10 15 18 15
27 27 28 31 26 21 14 13 12 13 14 12 12 12 16 14 13 16 15 14 13 9 10 11 7 6 9 13 10 13 12 15 18 20 16 11 9 6 8 7 4 11 16 16 16
26 25 28 28 21 16 13 13 12 14 14 13 13 17 18 13 15 15 15 14 11 9 12 8 5 7 8 12 9 14 13 14 19 15 15 13 9 7 4 5 9 12 11 10 11
25 24 25 22 16 13 11 12 13 15 14 14 15 19 15 11 15 13 13 11 9 8 10 7 6 5 16 17 10 8 11 15 14 15 11 9 6 6 5 5 8 9 10 10 9
23 23 20 16 12 11 11 13 15 14 15 16 20 18 11 14 14 12 11 10 8 6 7 5 5 9 15 17 15 9 9 7 15 13 10 9 3 8 8 7 6 8 8 10 11
21 19 15 11 11 11 12 14 14 15 17 19 21 13 8 12 17 14 10 10 7 3 3 8 10 13 14 13 10 12 8 7 7 9 8 9 12 9 11 14 12 12 12 13 12
19 15 13 11 12 12 14 15 15 16 19 20 18 7 10 10 17 16 13 12 8 7 8 9 8 9 10 11 6 5 6 8 10 13 12 14 11 12 13 21 18 16 17 18 17
16 14 13 13 14 15 16 16 14 13 17 18 17 9 10 11 13 19 16 12 10 7 10 10 11 8 9 5 4 3 6 5 9 12 13 14 13 14 14 22 21 20 20 22 22
15 16 16 17 18 19 17 15 13 12 14 15 13 10 9 6 9 19 19 13 9 11 9 8 7 5 2 2 2 4 9 13 11 11 8 9 10 11 17 19 19 21 22 21 16
18 19 20 22 22 20 17 15 13 13 8 12 14 12 9 7 8 12 17 11 10 11 6 7 5 4 4 4 3 8 9 6 6 5 3 9 5 10 15 20 19 18 15 12 8
22 23 25 26 25 19 17 16 14 14 2 12 15 11 10 8 7 12 12 10 10 12 10 8 6 5 5 5 5 6 8 8 5 5 5 10 5 11 16 18 19 17 13 10 8
26 28 30 29 22 18 18 19 15 7 4 12 16 15 12 8 12 15 11 11 12 13 7 8 8 6 6 7 7 7 8 7 6 4 2 7 11 10 19 22 22 19 14 11 11
30 32 31 30 22 19 20 17 9 3 10 12 17 18 14 11 11 16 13 16 12 13 11 9 6 7 9 9 5 4 7 0 1 0 4 5 7 12 12 21 22 19 16 15 14
34 35 32 31 23 19 21 18 6 3 15 14 18 16 13 12 10 17 15 14 13 8 15 9 4 6 7 10 5 5 7 4 4 3 3 3 5 5 8 22 17 18 15 17 14
36 36 33 33 24 20 20 19 4 5 12 19 16 17 14 12 11 16 17 14 13 10 10 8 6 7 7 13 8 5 4 4 2 0 2 3 6 8 7 20 18 23 23 19 14
37 35 33 33 26 22 21 19 8 7 13 18 20 16 16 14 11 14 15 13 12 12 15 7 6 8 6 6 8 8 7 2 2 2 3 4 7 11 9 16 23 24 22 17 19
37 36 34 31 28 23 24 24 6 5 19 23 17 15 16 15 11 14 12 8 13 12 13 12 10 9 8 6 7 8 5 3 3 2 4 1 6 8 10 11 12 18 18 19 19
39 37 35 31 28 28 28 21 7 8 21 21 16 12 12 19 15 16 13 12 10 10 13 14 9 9 13 10 10 9 7 7 3 4 5 2 8 8 9 11 13 19 20 21 22
40 37 35 32 32 29 31 20 6 9 16 21 18 14 10 15 17 17 14 12 8 9 11 14 7 8 5 9 11 11 10 10 8 6 9 3 5 6 8 12 19 26 24 25 24
36 31 36 33 33 32 34 25 8 9 13 15 14 14 10 14 16 12 15 11 10 10 12 13 12 11 14 5 8 12 15 14 13 8 8 19 22 21 19 15 18 22 23 24 24
37 28 39 37 35 32 33 20 13 11 11 10 10 12 12 14 14 10 12 12 11 11 12 12 11 15 14 11 10 11 13 15 18 19 18 23 23 18 17 17 20 22 25 27 27
35 29 34 16 33 31 32 28 21 16 12 11 12 13 14 12 11 10 10 11 10 12 13 13 9 12 14 15 14 17 18 20 23 25 26 25 26 20 18 19 22 25 27 28 27
33 25 29 33 33 31 33 24 20 17 13 9 8 11 15 13 11 10 9 8 8 11 11 12 12 10 8 14 17 19 24 25 27 28 27 25 19 17 17 17 18 20 23 26 26

GFSSW_700_spd_039.txt.gz
Wind_Speed
28 28 28 28 28 28 28 28 27 29 24 20 16 12 11 12 13 13 8 14 13 12 11 11 13 13 11 17 15 12 9 9 11 11 18 14 8 9 12 11 9 9 6 4 13
29 28 29 27 27 29 29 28 29 28 22 18 14 11 11 11 11 9 12 10 11 11 12 12 14 14 16 17 15 12 10 2 8 13 8 4 2 8 16 9 11 10 6 9 16
29 27 28 26 26 29 29 28 28 26 20 16 13 12 10 10 7 8 8 8 9 9 8 10 10 12 17 15 13 13 9 6 10 10 13 8 9 11 11 7 4 5 5 16 19
29 27 26 26 27 28 29 27 26 23 18 14 12 10 9 7 7 6 4 7 8 5 5 8 10 11 15 14 12 6 8 6 9 14 18 14 9 8 9 9 9 14 12 15 18
27 26 25 26 27 28 27 26 21 19 14 12 10 9 9 11 9 9 10 8 7 7 7 7 8 8 9 11 5 4 8 8 11 19 20 12 8 9 9 6 10 20 18 15 15
25 24 24 25 27 27 24 21 18 16 12 11 10 9 12 14 13 13 11 9 10 9 7 8 7 7 10 9 6 6 6 14 18 21 16 15 12 10 9 6 16 21 20 21 17
23 23 24 25 27 24 19 17 16 14 12 11 11 12 17 14 16 15 12 13 10 8 8 9 7 8 8 11 7 7 7 13 15 17 15 14 11 7 10 9 14 15 13 14 17
21 22 24 24 24 19 15 14 13 12 11 11 11 16 16 15 18 14 13 12 9 7 9 7 7 9 16 15 12 10 9 17 15 16 16 15 10 9 10 13 13 8 9 9 10
20 21 22 22 20 15 14 13 12 13 12 12 13 19 15 14 19 13 11 11 8 4 4 8 5 8 14 15 12 8 8 12 16 14 14 14 6 10 10 14 14 11 8 8 8
20 20 19 19 15 13 13 12 12 12 13 13 18 15 12 13 19 16 12 11 9 3 4 11 4 6 15 15 10 9 9 10 15 15 11 10 8 5 7 13 13 13 11 11 12
20 18 17 16 12 12 13 12 12 12 14 13 19 9 10 11 19 17 13 11 7 3 3 8 7 11 14 13 5 7 7 7 10 11 14 11 9 8 9 10 17 16 15 14 13
20 17 16 14 12 13 13 12 11 9 11 16 20 9 10 10 17 20 18 13 6 4 8 9 10 10 9 8 5 5 5 5 7 13 14 12 12 10 9 11 19 21 19 17 17
19 17 15 13 14 14 13 12 10 7 11 15 14 11 7 10 13 21 19 14 8 8 11 12 11 11 8 7 3 2 3 6 6 10 11 10 11 11 13 14 19 23 21 20 20
20 18 16 16 17 18 15 13 10 8 8 16 12 11 9 7 10 20 21 15 9 11 12 11 11 9 6 4 2 4 5 5 7 8 5 8 5 12 16 18 20 22 20 19 13
22 20 20 21 22 19 15 13 12 13 3 12 14 12 10 9 10 13 18 13 12 15 10 10 10 7 6 2 1 3 5 4 6 7 6 9 6 15 19 21 22 23 19 15 11
25 25 25 26 24 19 16 15 13 8 4 12 19 14 13 10 11 14 15 14 14 14 10 12 10 7 4 2 3 3 6 5 5 4 3 9 11 10 17 19 23 22 19 15 14
29 29 29 30 24 21 19 18 9 6 7 12 21 18 15 11 13 16 14 15 15 14 11 10 8 6 5 6 5 4 5 0 1 0 4 7 8 17 9 11 15 19 19 17 19
33 33 34 33 26 22 22 20 6 9 12 11 19 19 15 13 13 18 14 18 14 11 14 9 4 6 6 9 5 6 7 4 4 3 2 6 6 6 8 13 14 15 17 20 19
36 36 38 36 29 24 24 21 10 6 13 15 18 20 16 15 11 19 16 15 14 10 8 9 5 8 6 9 8 6 5 7 3 2 2 5 8 12 11 9 14 20 22 20 17
36 38 38 38 31 25 24 19 11 6 16 17 21 19 18 15 11 17 17 15 13 12 10 7 6 9 7 8 11 9 5 3 4 3 3 4 8 10 4 5 12 19 22 22 19
38 38 39 38 31 26 27 27 18 8 15 20 18 16 16 17 10 16 15 11 14 13 12 11 8 8 9 8 8 10 11 5 4 3 3 1 5 5 3 5 7 11 17 20 17
40 38 39 37 33 30 29 25 14 9 17 19 19 14 17 18 12 14 13 12 11 15 13 14 10 9 14 10 10 10 10 9 4 4 5 2 7 2 3 5 11 13 16 20 20
44 36 37 37 36 31 30 25 15 12 18 22 20 13 13 16 14 14 14 11 10 9 11 15 10 8 4 10 14 15 16 14 13 9 9 4 5 4 10 9 9 16 19 23 24
43 30 38 36 33 33 30 27 16 12 16 23 20 15 11 11 17 10 15 14 13 12 12 13 16 13 15 7 8 17 19 17 16 10 12 20 21 18 16 15 12 15 20 23 26
45 32 43 42 37 34 29 28 16 14 14 18 18 18 16 10 17 15 16 17 14 14 14 15 15 18 17 14 12 12 13 16 20 22 20 24 24 20 19 19 16 13 18 22 28
40 33 38 17 35 33 31 28 23 13 15 16 14 13 13 12 12 15 10 11 13 13 15 17 11 13 16 17 17 19 18 19 21 24 28 29 30 20 15 15 15 14 17 22 26
37 28 30 34 36 34 31 30 24 17 11 11 11 14 15 12 10 9 9 11 11 13 14 15 14 11 8 14 16 18 25 25 26 27 28 31 25 21 19 17 15 14 15 18 24

GFSSW_700_spd_042.txt.gz
Wind_Speed
23 25 25 26 26 26 26 26 26 26 27 24 20 19 15 12 11 10 9 14 15 14 12 12 10 12 12 14 14 12 8 11 8 14 12 13 13 10 2 4 3 9 10 7 11
25 25 26 26 27 25 26 25 27 26 26 22 19 17 14 11 9 10 11 12 12 12 13 11 10 12 12 13 15 11 10 6 8 9 15 8 7 4 6 4 9 10 9 5 8
25 25 26 26 26 25 25 25 27 27 25 19 16 16 14 11 8 10 9 10 10 9 9 9 9 11 13 12 13 10 10 7 7 10 8 12 11 7 8 9 9 5 8 10 17
24 25 25 26 25 24 24 25 27 25 22 17 14 14 12 9 4 9 8 9 7 5 4 5 9 12 12 10 12 9 9 11 12 14 16 15 8 6 5 4 10 9 6 15 19
24 24 24 24 24 23 24 26 25 21 17 14 12 11 10 9 8 6 5 6 6 6 7 8 9 8 10 11 11 10 6 10 9 14 15 11 10 9 7 4 8 18 20 20 22
23 23 22 23 23 22 24 25 22 17 13 11 11 10 11 11 11 10 8 6 6 6 8 7 8 10 9 7 7 8 14 10 11 19 16 11 10 9 8 6 14 21 22 22 20
22 22 21 22 23 22 24 22 17 14 11 9 11 11 12 13 14 13 8 7 7 7 7 8 10 8 7 10 9 10 13 20 20 16 12 11 10 13 13 14 14 21 22 21 20
22 22 21 21 22 21 21 18 14 12 9 9 10 12 12 15 16 11 10 10 8 5 6 7 8 10 10 13 15 11 12 11 12 16 15 15 11 12 15 16 14 14 17 20 20
21 22 20 20 20 19 17 15 12 10 9 10 12 12 15 13 16 12 12 10 7 2 2 6 8 12 16 14 12 12 11 11 12 17 16 12 8 11 16 18 17 15 15 14 15
21 21 20 19 18 16 14 12 9 8 10 12 13 12 15 13 19 13 11 8 5 8 5 8 6 8 20 15 12 8 10 12 11 13 13 12 7 13 15 19 19 18 16 14 15
22 21 20 18 17 14 12 10 7 8 11 11 13 12 14 12 21 15 11 8 6 11 6 5 5 7 15 12 4 7 9 12 11 17 11 11 14 9 12 18 21 21 19 17 16
23 22 19 17 15 14 11 8 8 7 9 13 19 10 11 12 20 18 13 7 11 11 4 10 7 8 12 9 6 7 8 9 15 17 15 15 14 14 11 14 21 24 23 20 17
24 23 18 17 15 13 10 10 10 6 7 15 19 12 10 10 13 18 16 12 9 10 12 8 9 8 7 6 5 6 6 8 7 18 19 13 12 17 15 11 12 21 25 22 21
26 23 19 17 17 14 13 13 11 7 4 12 16 14 9 10 11 23 21 13 8 13 9 7 10 10 9 6 7 4 6 5 5 11 11 16 11 12 16 13 14 17 24 24 22
28 23 20 19 18 18 17 16 12 12 5 11 14 14 12 10 8 18 24 18 9 13 12 9 13 11 6 6 6 6 5 5 6 6 6 9 10 7 10 15 18 20 23 23 20
29 25 23 23 22 22 20 17 14 6 6 12 17 17 15 12 11 13 18 18 13 14 12 12 14 11 8 7 5 6 6 4 4 5 11 9 9 15 11 13 19 22 21 20 19
31 28 25 26 28 24 22 21 9 9 6 12 19 19 14 13 11 15 16 17 13 13 12 11 11 10 8 5 5 5 5 3 4 5 6 4 8 17 12 10 13 14 20 20 18
33 30 28 31 33 27 24 24 12 12 11 11 19 19 16 14 14 18 16 17 19 16 15 14 8 8 9 8 5 6 6 5 4 3 1 3 6 3 7 10 15 12 15 19 19
35 33 33 37 34 29 27 23 15 9 15 13 19 19 16 17 12 17 15 16 18 17 13 11 5 10 7 7 7 6 6 9 3 5 3 6 7 11 13 12 11 15 21 22 21
35 33 35 42 36 32 29 25 15 11 13 17 19 20 19 18 14 19 16 17 17 16 15 10 4 8 8 8 10 9 6 3 5 3 4 4 6 3 4 4 6 13 18 21 22
37 36 42 45 36 34 28 25 24 11 16 17 19 17 18 17 15 18 16 14 17 15 13 9 8 6 10 9 9 11 10 8 5 3 2 3 1 1 2 3 3 6 11 19 23
41 37 48 47 37 33 27 24 20 15 17 19 18 15 17 17 15 14 17 16 16 15 12 13 8 7 9 12 11 13 10 11 6 5 5 2 6 3 2 6 7 11 14 19 23
44 32 47 47 38 31 24 25 24 14 19 22 22 18 19 20 13 14 14 17 13 13 13 15 10 7 4 9 13 13 16 16 16 11 8 4 5 8 10 13 8 12 19 22 23
40 35 48 48 34 29 27 26 23 17 20 24 21 18 17 19 19 11 15 16 14 13 12 13 17 13 17 8 6 10 20 21 16 9 10 17 16 17 19 16 14 13 16 21 25
42 34 50 51 46 31 29 25 23 18 20 24 23 19 17 16 18 19 15 16 16 15 14 14 12 19 20 17 15 14 13 18 22 20 14 17 17 14 15 19 20 18 17 20 24
42 39 39 35 44 33 33 25 25 20 20 26 20 22 19 17 13 13 17 17 17 16 17 17 13 16 17 19 20 20 19 19 20 21 24 24 27 21 21 17 18 17 16 18 19
38 33 43 28 45 36 37 27 27 20 20 21 19 21 19 17 14 12 15 13 14 16 16 18 17 13 7 14 15 17 24 26 27 26 27 24 21 23 22 17 17 17 17 17 17

GFSSW_700_spd_045.txt.gz
Wind_Speed
24 23 23 23 24 24 26 26 26 26 26 26 26 22 17 14 11 11 10 13 14 14 13 13 10 10 10 10 13 12 14 22 17 18 16 17 14 10 6 4 9 2 5 5 7
24 24 24 24 24 24 25 25 25 25 26 26 24 19 16 11 10 11 11 12 13 12 13 11 8 9 10 10 12 13 14 12 8 12 10 13 11 2 5 3 8 8 16 11 8
24 24 24 24 24 24 24 24 24 26 27 26 22 16 12 9 8 9 9 10 12 10 8 8 9 10 10 10 13 13 14 7 4 3 2 1 5 7 8 10 7 7 6 3 11
25 23 23 24 23 23 23 23 24 26 25 23 18 13 10 7 5 11 9 9 8 7 4 7 8 9 10 11 12 11 13 9 8 10 11 9 7 6 4 3 7 7 7 8 14
24 23 23 23 23 22 22 22 24 26 22 18 13 10 9 8 9 10 5 1 4 4 3 7 7 8 9 10 9 13 9 6 8 8 7 10 12 10 2 5 9 13 12 17 18
24 22 22 22 22 22 22 23 24 23 18 14 10 8 8 9 11 7 3 2 3 4 5 9 7 9 7 8 11 7 5 4 8 14 12 9 4 7 3 8 13 14 19 19 20
23 22 21 22 21 21 21 22 23 18 14 10 7 8 9 10 12 8 5 3 4 4 5 9 11 6 4 4 7 11 8 12 9 12 12 9 7 8 6 9 14 17 18 19 19
24 22 21 21 20 20 20 21 20 14 11 9 8 9 8 13 11 11 7 4 4 3 4 8 10 12 7 9 8 9 12 13 13 13 10 12 13 9 8 11 14 16 17 18 18
24 22 21 21 19 19 19 19 16 12 9 8 9 9 7 12 12 7 7 5 6 3 3 4 5 7 7 10 15 13 11 14 11 15 10 12 13 12 13 13 14 16 18 19 19
25 23 21 20 19 17 18 15 12 10 9 8 10 5 9 7 13 12 6 4 4 3 4 1 7 8 12 14 15 15 17 16 14 15 15 9 7 12 17 16 15 16 17 19 19
25 24 21 20 17 16 16 10 8 8 9 9 7 13 9 14 17 13 8 4 5 4 6 4 7 11 15 16 5 8 11 12 13 12 13 12 8 12 18 18 18 16 16 17 18
27 25 22 20 16 16 13 8 11 9 7 11 12 15 12 13 15 14 13 7 9 13 11 12 9 12 13 13 6 6 6 10 9 11 10 11 12 12 15 18 19 19 18 18 19
28 26 23 19 16 13 10 11 10 8 5 10 14 15 11 11 12 15 15 9 11 7 17 11 8 8 9 7 6 5 8 4 8 13 14 10 16 17 17 16 20 19 20 20 20
29 26 24 19 16 12 10 12 11 8 4 11 20 17 12 10 11 16 15 11 10 11 11 0 10 8 6 7 8 10 9 5 5 11 21 19 18 19 20 21 19 19 21 22 19
30 27 25 21 15 14 20 16 13 10 5 10 17 12 11 12 2 14 17 13 11 10 15 9 7 6 9 4 9 3 4 4 8 15 12 17 12 25 19 18 17 17 18 19 21
32 30 27 21 17 20 20 19 15 7 8 11 19 19 15 14 10 9 17 17 11 9 12 12 7 6 2 8 6 5 2 5 9 13 12 17 15 6 16 12 14 15 17 20 20
33 32 27 24 23 26 24 21 10 14 7 14 20 20 18 13 12 12 17 19 19 13 14 11 9 8 6 5 4 6 8 13 7 6 9 1 7 18 6 7 9 15 17 19 19
36 34 30 26 27 31 28 25 15 11 13 8 19 20 20 15 14 13 16 21 21 18 17 17 10 12 10 10 5 8 10 8 6 7 7 3 8 5 7 8 8 13 16 17 18
40 37 33 28 32 35 32 26 25 8 17 12 16 22 21 16 12 15 18 21 19 20 16 21 7 10 10 8 6 7 8 4 5 7 7 16 8 5 7 7 8 13 17 19 19
40 37 32 32 40 38 32 29 25 10 14 15 20 22 22 20 16 17 18 19 16 17 16 6 5 6 7 8 9 9 4 4 7 3 6 5 5 5 1 4 6 13 17 19 19
41 38 35 36 43 42 36 28 20 13 12 17 20 19 20 19 19 18 18 12 17 16 19 14 13 6 6 11 12 7 11 9 7 5 4 3 2 4 2 3 5 11 16 19 19
45 32 41 41 47 41 37 27 20 17 14 14 18 17 19 19 18 16 20 16 17 15 15 16 10 13 13 10 13 10 11 12 11 8 7 4 9 6 4 1 3 8 14 17 19
48 33 30 44 48 38 33 26 25 19 18 17 18 20 18 18 16 17 16 19 14 19 16 14 12 15 12 11 14 13 13 13 13 9 11 5 6 4 9 13 11 7 12 16 20
42 36 36 52 46 38 36 29 27 22 17 18 19 18 16 17 18 14 14 17 21 17 18 15 16 16 17 13 5 12 14 16 17 14 15 18 17 12 11 10 10 11 12 17 20
46 43 50 53 54 42 34 28 27 28 19 18 20 21 18 17 18 13 14 14 17 17 17 15 13 15 19 14 11 12 12 13 20 23 22 19 17 14 14 15 14 15 16 17 22
49 41 31 32 46 36 38 33 31 27 20 21 21 22 19 15 17 14 15 12 14 18 17 17 12 13 14 14 14 17 18 18 19 21 23 24 25 21 20 16 16 15 17 17 20
46 38 35 36 48 41 41 36 30 26 22 20 23 23 20 16 15 11 13 12 10 13 16 11 12 10 11 9 9 14 21 22 22 22 21 23 22 19 16 16 14 13 16 17 18

GFSSW_700_spd_048.txt.gz
Wind_Speed
24 23 22 22 22 23 24 24 26 26 26 24 26 26 23 19 14 11 8 12 10 12 11 11 9 7 7 11 12 12 19 22 20 18 6 7 6 2 1 7 6 8 8 5 2
23 23 23 23 22 23 23 24 25 25 25 25 27 25 20 16 10 8 11 9 11 12 10 9 4 8 10 11 12 15 19 17 14 20 23 24 16 8 5 9 6 7 8 4 3
23 24 23 23 22 22 23 23 24 24 24 26 25 22 16 11 5 7 9 9 10 9 8 5 7 8 12 12 12 16 20 14 8 12 16 9 6 7 10 6 11 13 2 1 8
26 25 24 22 22 21 22 23 23 22 24 26 23 17 13 5 9 8 9 8 7 5 4 4 9 9 10 11 12 17 14 14 4 4 7 3 7 8 5 5 14 12 3 7 10
27 26 25 22 21 21 21 22 22 22 24 24 20 13 9 8 9 13 8 4 1 2 3 3 5 6 8 9 10 13 15 9 5 4 4 6 6 2 13 3 12 12 2 10 11
28 26 24 22 20 20 21 22 21 22 23 19 16 11 9 6 2 12 2 2 2 0 2 5 5 6 11 8 11 7 10 3 8 6 4 8 15 7 10 12 9 10 15 12 13
28 27 24 22 20 20 20 20 20 20 19 16 12 10 8 6 9 6 5 1 1 4 2 4 8 5 1 5 8 2 3 8 9 12 6 11 13 12 10 10 17 17 16 16 15
29 27 24 21 19 20 20 19 19 19 16 13 10 9 5 8 7 7 6 3 6 7 4 5 9 12 9 4 2 8 3 2 1 4 4 3 13 14 10 15 16 18 18 19 18
30 28 24 20 19 19 19 17 17 16 14 9 9 9 4 7 5 7 2 5 9 4 2 4 5 8 3 7 3 8 10 14 9 10 5 4 6 11 13 13 14 15 16 16 16
30 29 24 20 19 19 17 15 14 13 10 6 8 4 4 2 4 6 8 8 3 5 2 2 4 5 6 12 13 15 16 12 9 10 11 11 9 15 15 14 13 15 16 19 21
31 29 23 19 19 19 16 12 7 12 9 6 4 10 7 11 15 13 6 7 4 3 6 2 6 11 14 15 10 6 8 14 13 12 11 12 15 15 17 16 16 16 17 18 16
31 28 23 19 20 18 16 9 8 12 13 11 16 18 14 11 10 11 10 9 9 10 2 10 10 10 9 15 13 9 10 10 12 10 12 15 13 12 18 19 20 19 19 20 19
31 27 23 20 20 17 15 11 15 12 13 7 13 13 12 10 15 13 13 11 8 11 7 16 11 10 21 20 18 13 9 12 10 8 11 8 14 17 17 18 20 21 21 21 22
32 28 24 22 19 16 12 11 10 7 7 11 15 16 16 11 13 13 17 13 10 9 7 13 20 15 11 10 8 10 3 7 13 14 14 5 10 16 15 18 22 25 25 25 24
33 29 26 25 19 16 18 14 10 4 4 6 15 8 14 17 4 17 13 17 13 6 8 9 11 12 11 10 3 3 9 7 12 12 8 5 13 28 24 27 28 27 24 24 24
34 30 28 25 20 19 13 15 14 5 8 7 12 16 19 16 12 6 17 16 10 13 9 10 10 11 7 1 4 2 4 10 12 15 11 17 22 13 22 23 23 21 24 25 26
34 31 27 27 22 21 17 19 10 12 7 11 18 17 19 16 16 14 13 20 17 11 11 8 14 8 6 6 5 6 10 7 7 9 5 10 10 4 12 15 12 23 20 19 27
38 34 31 30 28 23 25 23 14 9 18 1 15 16 22 17 16 15 16 21 22 19 13 14 14 14 13 10 7 11 7 3 3 3 6 9 5 6 7 6 6 13 15 22 24
42 37 37 31 28 29 32 31 21 15 13 12 13 20 21 19 13 16 18 21 20 21 21 5 5 8 2 7 4 11 5 1 9 4 5 10 16 3 4 6 4 11 16 19 18
42 40 36 34 32 34 38 37 22 20 5 15 19 20 20 21 17 16 16 18 20 19 21 13 6 17 10 13 9 8 7 4 4 2 4 11 15 14 5 4 2 12 16 19 17
40 42 38 37 35 41 47 38 27 20 13 11 19 18 20 21 19 15 15 12 18 10 14 10 23 11 9 8 8 7 9 10 11 7 1 4 5 6 5 5 3 10 16 19 17
44 46 43 42 43 49 49 32 27 19 17 18 18 20 17 19 18 20 18 18 17 15 9 14 10 9 12 7 7 8 10 9 11 9 6 4 10 3 3 1 2 6 13 16 20
49 41 30 40 49 48 40 30 31 26 21 18 18 18 15 19 20 19 13 14 13 11 12 12 10 12 14 11 9 15 14 14 13 9 11 6 4 6 8 10 11 6 10 16 19
51 41 36 44 50 43 39 33 32 30 23 19 18 17 16 20 16 16 16 18 14 14 18 17 11 14 13 15 7 8 10 14 15 12 15 21 19 11 15 11 8 11 10 13 17
55 45 53 49 55 35 34 31 34 31 27 20 22 22 18 18 17 17 17 15 17 20 21 18 15 16 18 18 16 12 13 10 14 17 20 22 19 15 15 8 8 8 11 13 15
59 45 46 25 47 43 41 42 36 32 29 26 20 21 22 18 19 18 14 16 13 15 17 18 14 14 14 12 14 15 17 19 20 20 20 21 22 17 15 13 15 14 18 15 16
62 54 33 50 25 54 51 44 39 32 29 27 21 19 20 19 18 17 17 16 8 13 19 13 14 8 8 11 11 14 20 19 20 20 19 21 20 16 17 16 12 15 10 15 16

GFSSW_700_spd_051.txt.gz
Wind_Speed
24 23 22 22 22 22 22 22 23 24 24 23 24 25 25 22 16 11 6 10 7 8 6 7 6 8 6 6 8 10 20 28 23 18 17 15 19 18 12 5 11 8 7 6 7
23 23 22 22 23 22 22 22 23 24 22 23 23 26 24 18 10 7 6 9 8 8 6 7 4 3 11 12 2 9 14 17 15 19 22 17 8 6 5 12 11 7 7 10 8
25 25 24 23 23 22 21 22 23 24 22 22 24 25 21 12 5 4 4 9 8 5 5 5 8 8 8 13 9 9 17 11 18 14 9 8 10 9 15 13 12 12 12 6 11
27 26 26 24 23 21 21 21 23 23 23 22 24 22 17 8 4 4 4 10 6 2 3 5 4 2 3 7 5 15 14 12 6 10 4 7 3 14 10 9 12 18 7 8 11
28 27 27 25 23 21 20 21 22 22 22 21 21 18 14 7 7 12 6 5 3 2 3 10 7 1 6 10 16 14 9 12 2 5 5 4 15 14 6 5 10 10 5 11 14
29 29 28 24 22 20 19 20 22 21 21 20 18 15 11 4 10 6 2 0 0 2 1 12 7 2 14 9 9 4 8 8 8 1 3 5 5 7 11 11 16 10 14 12 12
31 31 28 24 22 19 18 20 21 19 19 18 16 12 9 5 10 5 6 4 4 5 4 9 2 7 2 12 3 4 6 2 7 9 3 7 7 15 9 11 11 14 12 13 10
32 31 28 24 22 19 17 19 20 18 18 15 14 10 6 5 5 5 8 7 8 8 10 4 4 13 10 5 3 5 2 9 4 2 3 5 8 12 11 17 17 17 15 16 7
33 31 28 25 22 18 17 19 18 17 15 12 11 8 5 5 3 8 5 8 3 7 4 4 3 8 6 6 2 3 14 7 5 8 9 9 8 13 15 18 17 17 15 15 13
33 31 26 24 21 17 17 18 17 16 15 10 8 3 1 6 6 4 3 2 7 3 2 6 2 6 4 3 6 7 9 12 13 18 14 8 8 17 13 11 13 14 17 17 13
32 29 26 23 19 16 17 17 16 15 13 11 9 12 13 6 12 12 10 3 7 6 2 3 1 3 1 6 11 4 22 19 13 12 15 20 23 18 18 14 10 12 14 14 14
31 28 25 23 18 16 18 15 19 22 17 13 14 14 17 10 11 11 13 12 6 8 4 6 4 8 10 18 19 19 21 7 14 13 9 9 26 18 21 20 15 14 15 18 19
29 28 25 22 18 17 18 13 17 17 18 10 10 11 18 9 8 16 13 13 10 10 7 10 12 13 18 11 13 14 15 14 7 3 11 12 12 21 22 23 19 18 18 17 21
28 27 25 23 18 18 17 13 12 14 10 11 11 12 19 12 11 17 17 13 10 13 10 12 15 13 17 20 20 20 13 4 4 8 6 8 4 6 20 19 21 22 21 20 22
26 28 25 24 19 21 17 13 11 6 4 0 8 3 13 15 5 16 11 20 12 7 3 2 16 17 16 17 10 3 12 6 7 12 15 8 3 15 16 18 21 22 27 27 27
27 29 28 22 20 19 14 11 11 6 8 9 9 12 14 15 11 6 12 17 16 10 7 6 12 15 5 8 1 3 3 6 5 2 7 22 12 5 20 30 27 23 24 26 27
29 28 27 26 23 23 18 16 11 8 6 13 16 14 19 15 13 11 17 19 20 11 16 12 10 8 11 14 6 5 8 3 4 7 5 10 12 24 12 20 25 27 27 28 25
31 30 28 26 29 24 24 24 13 6 15 9 18 14 21 19 13 15 16 18 18 19 12 16 6 14 7 9 9 7 5 3 4 1 7 5 5 2 10 11 18 22 18 27 30
33 36 35 29 29 26 30 34 19 15 24 9 13 19 17 18 19 18 21 20 21 22 26 11 8 11 11 5 7 11 4 6 5 6 4 5 3 8 11 8 6 20 24 28 26
39 40 36 30 32 32 37 40 28 21 11 14 17 18 19 20 20 22 21 14 20 23 20 21 7 8 13 13 10 9 5 6 6 2 3 5 7 10 9 5 12 13 13 13 17
41 40 34 34 35 38 50 43 30 30 17 6 5 14 19 21 21 24 17 19 15 18 28 20 9 3 8 19 13 13 13 11 10 8 4 1 1 5 5 4 2 8 10 10 11
48 47 37 43 43 49 54 50 29 36 21 15 12 14 19 18 23 25 19 19 13 18 13 9 5 5 16 11 10 11 8 6 14 8 2 2 8 9 6 6 8 6 8 15 16
49 46 28 41 49 54 52 48 43 37 29 17 15 20 20 14 16 22 21 21 16 18 13 14 8 8 8 11 10 12 13 19 14 8 13 6 4 4 17 17 11 5 6 13 16
53 39 43 44 53 53 55 47 48 39 32 21 15 21 19 18 16 13 26 21 18 20 18 17 10 8 12 9 11 11 12 9 15 16 13 15 18 21 19 24 14 9 8 10 14
53 47 45 52 58 51 38 47 44 44 38 27 23 21 22 20 17 15 25 14 14 13 14 15 20 16 13 12 19 10 12 11 9 14 16 15 15 14 18 5 7 11 6 7 10
56 53 54 39 49 53 42 44 48 44 40 33 27 23 22 24 20 21 18 16 19 16 18 19 18 17 15 17 16 15 13 19 22 17 17 16 16 9 11 9 8 9 11 10 9
58 50 49 58 31 44 61 44 43 39 40 30 24 22 21 24 19 21 19 19 18 17 16 18 18 16 13 16 18 19 25 22 18 15 16 15 10 13 14 8 8 12 15 16 15

GFSSW_700_spd_054.txt.gz
Wind_Speed
23 23 22 22 22 22 21 21 22 23 24 23 24 23 24 22 16 10 7 5 6 5 6 6 5 4 3 2 8 8 14 13 10 12 10 15 12 14 14 10 12 13 10 7 7
25 24 23 23 23 23 22 22 21 23 23 23 23 23 24 19 12 7 6 6 5 6 6 7 6 10 10 5 2 8 12 9 10 10 18 20 16 14 10 14 14 9 5 7 7
26 25 24 24 24 24 23 22 22 23 23 23 23 22 22 15 9 4 3 4 5 4 5 6 8 8 7 3 6 5 11 11 12 12 23 13 12 10 9 10 10 9 10 4 10
28 26 24 24 25 24 23 21 22 23 22 22 20 21 19 11 4 2 4 8 4 2 4 7 10 3 1 2 6 15 15 19 17 13 8 6 9 9 1 8 8 5 8 9 12
30 27 25 24 25 24 22 21 21 22 22 21 19 17 15 9 7 9 7 2 4 3 4 10 10 2 6 11 13 11 11 6 7 9 4 4 7 6 11 7 1 7 10 15 12
32 29 26 25 25 23 21 20 20 22 21 20 17 15 13 8 7 8 10 5 3 4 5 11 5 4 5 5 6 6 1 9 9 6 3 2 10 2 1 5 12 10 9 13 15
33 31 28 26 25 23 20 19 20 21 21 18 16 14 10 7 8 3 5 6 9 9 8 5 2 6 7 2 4 3 1 9 4 7 6 2 9 4 2 9 9 10 10 15 12
34 31 29 27 25 22 19 18 20 21 20 17 16 12 8 6 6 1 9 8 7 8 5 6 8 6 8 3 4 3 2 4 3 9 7 2 8 8 6 9 14 14 12 11 6
33 31 29 27 25 22 19 18 20 21 18 17 14 9 2 1 2 8 10 7 4 6 6 3 6 8 4 4 5 6 6 6 3 2 2 13 15 12 11 13 15 14 12 7 5
29 30 29 27 25 21 17 17 20 21 18 16 14 7 6 12 13 11 8 5 1 4 3 3 1 4 5 2 3 4 11 7 10 6 5 11 10 14 13 14 14 16 13 10 5
24 27 28 27 24 19 16 18 19 20 17 13 14 9 14 14 21 15 10 6 5 7 1 2 1 5 5 6 2 6 13 20 23 23 23 16 13 16 14 15 18 17 14 11 8
21 23 26 26 22 18 16 18 20 20 19 14 17 13 17 14 11 14 14 11 9 9 4 3 8 6 5 11 14 13 13 17 14 9 14 21 19 18 21 20 14 11 10 12 14
22 22 23 24 21 18 17 18 23 17 20 10 17 12 19 14 7 18 19 14 12 11 13 10 11 11 8 12 14 17 16 13 13 6 5 9 15 24 23 20 16 15 11 12 12
24 20 21 23 21 19 18 18 16 13 11 10 12 11 22 19 11 23 18 13 12 15 14 11 14 10 10 11 8 22 7 8 8 4 3 1 6 21 26 25 24 19 21 19 17
27 22 20 23 20 18 19 15 13 9 3 3 10 8 15 20 9 23 17 17 14 13 12 10 6 11 3 6 11 11 12 10 10 6 6 9 3 13 17 26 29 26 26 25 25
29 24 22 20 20 20 18 15 12 6 8 10 12 12 17 21 12 22 21 13 15 15 8 7 5 5 4 4 7 7 8 8 6 4 2 11 11 17 20 23 31 28 27 30 30
31 27 23 22 22 24 20 17 12 8 8 14 18 12 16 21 18 17 21 19 12 16 15 16 11 2 3 7 6 5 5 1 1 1 5 3 6 18 13 15 28 30 27 23 29
34 31 27 23 29 26 24 23 13 7 16 6 20 12 16 22 21 16 12 16 14 18 11 17 11 14 8 5 5 12 8 4 3 3 4 6 6 9 7 11 16 23 27 34 25
38 36 33 26 33 28 31 33 18 12 22 8 20 21 18 19 16 15 17 16 15 13 25 12 14 9 14 8 7 3 5 5 2 6 3 3 3 8 12 12 11 18 23 23 26
42 39 35 32 37 33 38 44 28 22 13 17 21 21 23 19 23 22 19 17 21 20 23 26 12 11 8 14 11 9 5 4 4 2 3 4 5 10 10 4 6 4 16 22 20
44 41 37 37 40 40 49 45 38 33 20 10 12 16 22 20 23 24 15 18 15 13 23 30 22 13 13 17 21 15 15 13 10 9 4 1 3 1 6 1 5 5 3 1 6
48 45 41 45 43 48 54 49 33 38 30 17 14 8 7 24 22 23 24 20 13 15 24 25 23 18 18 5 17 19 16 17 10 7 4 4 8 8 8 10 11 5 5 6 8
53 42 33 50 52 55 54 51 45 41 43 31 20 6 11 14 15 19 20 21 18 16 22 17 10 7 10 12 16 15 16 16 17 14 15 7 9 9 8 12 14 14 7 10 11
51 40 34 50 55 53 55 53 50 43 43 39 28 18 16 16 14 12 16 25 22 17 21 22 19 18 20 16 14 10 11 14 11 11 14 17 17 17 18 21 19 18 13 10 12
50 49 55 56 62 60 49 50 51 48 46 41 34 26 14 12 19 15 13 19 25 20 23 22 17 17 13 12 13 12 9 12 14 10 6 10 19 16 16 12 9 17 13 14 12
51 49 55 46 57 59 57 58 50 48 44 44 41 28 19 19 21 15 15 24 22 25 25 19 20 20 24 21 21 19 16 16 18 17 18 16 14 11 10 9 9 12 20 19 17
55 53 47 58 44 56 63 56 52 45 43 39 37 29 27 24 19 20 16 15 23 18 19 18 19 20 21 20 18 21 26 24 22 23 24 20 17 13 14 15 13 14 16 16 16

GFSSW_700_spd_057.txt.gz
Wind_Speed
22 21 21 21 20 21 22 23 23 23 23 24 23 23 21 20 17 11 8 6 5 4 5 6 8 5 2 2 3 9 12 12 10 10 5 11 12 15 13 12 11 12 15 14 14
25 24 23 22 21 22 22 23 24 22 22 23 23 23 20 18 13 8 6 5 4 4 5 6 9 7 9 7 7 11 13 10 7 7 11 10 10 12 9 12 13 17 15 11 8
30 28 26 24 23 23 23 23 23 22 21 22 22 21 19 16 10 4 4 4 7 3 4 6 9 9 4 3 3 9 15 11 11 12 13 8 8 9 5 12 11 13 8 6 6
31 29 28 26 24 24 24 24 22 21 20 21 20 19 16 13 7 4 5 6 4 2 4 8 9 3 2 2 9 16 12 13 14 11 8 5 10 6 4 7 2 2 2 8 5
33 31 29 27 25 24 24 24 22 20 20 20 19 18 14 11 10 7 6 5 4 3 4 8 5 1 3 5 8 9 6 1 3 6 2 7 8 3 6 3 6 7 6 14 8
34 32 31 29 26 26 25 24 21 19 19 19 17 17 14 11 9 5 3 4 5 5 10 10 3 3 1 4 9 5 3 5 3 3 3 2 7 3 7 5 0 4 9 9 11
34 33 31 30 28 27 26 24 21 19 19 18 16 16 13 9 7 1 2 7 8 7 12 4 2 3 4 3 7 1 1 5 3 3 7 6 4 2 2 7 11 6 12 14 13
33 32 32 31 29 28 26 24 21 19 18 17 15 14 9 5 2 6 9 11 11 8 9 8 8 6 3 3 4 4 2 2 7 6 7 8 5 6 5 4 6 8 13 15 10
28 30 28 30 29 28 26 24 21 20 18 17 13 12 6 7 10 14 12 11 9 6 1 7 9 6 6 5 2 5 7 3 3 9 8 11 8 7 7 11 9 8 12 12 13
23 24 24 27 29 28 26 24 22 21 19 16 14 12 9 10 11 20 14 11 8 4 2 2 3 4 8 6 2 2 4 2 6 10 17 9 11 10 8 10 8 6 9 9 10
22 19 22 23 27 27 25 23 21 22 20 16 13 8 8 12 17 20 16 12 9 5 3 1 3 7 6 5 5 5 4 12 22 18 18 20 15 12 9 11 12 10 9 11 12
21 19 20 20 24 25 24 22 24 23 21 16 16 14 16 16 20 20 17 15 13 8 5 4 6 4 4 10 11 13 10 18 15 11 18 13 21 14 17 16 11 7 9 10 12
24 21 19 19 22 23 21 25 22 17 21 16 20 17 21 18 20 20 21 18 14 10 7 11 11 10 13 10 16 16 19 21 21 16 9 6 15 20 23 24 18 17 12 9 8
27 23 20 19 20 20 22 22 17 13 12 12 12 15 23 22 20 23 25 20 16 10 6 10 15 15 11 13 14 20 9 14 11 8 5 7 5 15 22 26 25 21 19 15 14
30 26 23 19 17 20 22 18 13 10 4 5 13 15 20 22 11 21 25 24 18 12 6 8 7 10 12 6 8 15 15 9 8 9 7 5 3 4 21 28 26 23 25 22 19
34 29 26 21 19 21 19 16 13 7 8 9 15 17 23 24 14 23 27 22 16 13 10 12 4 3 6 4 8 11 7 4 8 4 2 7 4 5 12 21 23 27 28 26 26
38 34 29 24 20 25 21 19 12 10 9 14 20 17 21 26 21 28 29 25 21 14 17 15 12 12 7 7 9 7 2 3 3 2 5 5 6 14 15 14 20 24 25 29 30
41 39 33 28 27 29 26 24 16 7 17 11 20 18 19 30 24 23 28 24 24 18 13 20 11 12 10 7 11 8 7 6 4 2 3 4 6 6 7 12 12 16 16 22 26
46 44 40 33 33 32 34 34 17 14 26 10 21 22 20 25 25 26 27 23 25 23 17 11 11 10 15 12 8 9 8 7 3 2 1 4 8 12 11 11 9 7 14 22 25
52 47 43 35 36 37 42 43 33 28 16 21 17 25 24 27 24 24 23 22 24 20 15 21 15 14 8 16 15 13 8 6 7 2 3 4 6 10 11 5 4 3 8 13 18
54 51 47 39 41 43 56 45 38 31 18 17 16 24 25 24 32 28 19 19 21 19 22 20 18 16 17 19 20 20 17 12 8 5 4 1 5 8 3 4 3 5 2 3 12
57 55 52 44 43 54 60 47 29 43 31 17 18 17 25 26 25 31 28 22 19 20 19 21 16 19 23 24 23 22 23 16 12 7 8 6 14 12 15 12 11 8 7 5 2
59 53 40 49 56 57 55 53 45 38 43 31 18 15 16 10 30 26 29 25 23 18 14 22 14 16 17 21 24 16 21 22 19 20 15 8 11 12 13 15 14 13 11 11 7
57 38 40 48 59 52 56 50 52 46 40 44 35 16 14 15 15 21 26 28 25 24 19 16 19 19 15 19 21 20 20 18 19 20 18 22 24 17 16 16 17 17 20 15 11
52 44 54 55 68 54 55 52 48 47 48 37 45 36 20 13 15 14 20 19 24 24 22 24 22 21 20 18 18 16 24 19 15 19 15 16 17 15 18 18 17 16 19 18 17
59 47 52 58 63 64 50 57 49 49 40 44 47 41 33 25 13 8 16 18 18 21 23 28 16 21 16 16 17 18 19 18 18 20 19 20 21 18 18 16 16 14 13 20 22
64 44 50 57 55 55 69 62 55 48 48 39 34 41 38 26 15 11 13 14 17 20 26 28 25 21 20 19 21 23 32 30 30 27 28 28 28 26 24 24 19 17 16 17 21

GFSSW_700_spd_060.txt.gz
Wind_Speed
22 22 21 20 20 21 22 22 23 23 23 21 21 21 20 19 17 11 9 7 5 5 5 7 6 5 4 3 5 7 9 7 4 4 7 10 12 9 12 10 13 15 14 12 13
25 24 24 23 23 23 23 23 24 24 23 20 21 20 19 16 14 10 7 5 4 5 6 7 7 5 6 3 5 8 8 7 4 6 8 10 7 9 12 10 12 15 14 13 14
29 28 27 26 25 26 25 25 24 25 23 19 20 18 17 14 11 7 6 5 7 7 5 6 6 6 5 5 4 9 11 9 10 10 9 11 4 8 12 10 9 11 13 9 7
31 29 28 28 27 26 27 26 25 25 23 19 19 17 15 12 8 8 4 6 7 4 2 4 5 4 3 1 4 9 10 9 9 8 4 2 5 10 9 4 3 6 5 7 1
34 31 30 29 28 28 27 26 26 25 22 19 19 16 14 11 11 7 4 4 3 1 3 7 6 3 3 4 4 3 7 2 2 2 4 4 6 9 4 3 3 7 8 5 6
35 33 32 31 30 29 28 27 27 25 23 19 19 15 14 11 6 3 2 2 2 3 10 8 3 2 1 6 7 4 4 2 1 3 4 5 6 9 7 4 4 11 5 9 9
35 34 33 32 31 29 28 28 27 25 24 19 19 15 13 8 3 5 4 5 4 6 12 7 4 3 3 2 7 4 5 1 5 1 6 7 6 5 4 4 7 4 11 6 11
31 30 31 33 33 30 28 28 27 26 24 19 20 15 10 6 8 9 9 10 8 8 11 9 10 6 5 4 4 2 1 2 1 2 6 6 8 6 4 2 7 5 11 6 5
28 27 26 30 32 31 28 27 27 27 23 20 20 15 11 8 12 13 15 14 10 7 6 9 10 10 10 7 4 6 1 8 4 3 12 9 11 7 2 4 3 7 12 11 13
26 25 22 26 28 28 28 28 27 27 23 20 20 16 13 10 14 15 19 18 12 6 2 4 6 7 8 6 3 4 4 4 14 12 22 27 20 12 5 3 4 6 12 8 9
27 24 21 22 24 26 24 26 26 26 26 21 17 8 7 12 14 21 18 18 14 9 6 3 1 2 5 6 6 9 6 6 12 12 18 17 16 15 9 6 8 9 9 12 12
29 25 21 20 22 23 24 21 25 25 28 22 22 22 19 17 19 25 21 19 18 12 8 5 2 3 4 7 9 11 10 11 17 12 21 13 12 16 15 8 6 5 7 13 16
31 27 24 22 21 20 21 21 19 22 27 24 25 24 20 23 23 29 25 19 17 14 11 7 3 9 10 12 11 15 14 16 17 21 20 8 6 20 23 20 14 13 11 12 12
34 30 27 24 21 17 18 18 15 15 15 20 16 26 25 26 25 28 25 21 20 17 10 7 4 13 16 13 11 15 13 15 17 6 4 4 4 8 19 23 22 21 19 16 16
39 33 30 28 21 17 17 15 11 10 4 6 18 16 24 30 17 31 29 26 23 17 14 4 2 8 11 10 10 11 11 13 3 6 7 8 4 10 8 17 22 23 21 18 16
43 37 34 30 23 18 16 14 13 9 9 7 11 18 26 31 19 27 29 30 25 19 16 10 6 6 2 4 5 6 5 2 5 4 3 4 7 7 10 13 14 19 21 20 18
48 42 38 32 25 24 20 19 13 12 9 11 16 20 24 31 24 22 32 35 29 24 22 15 11 11 8 8 6 4 6 4 3 1 5 5 6 11 11 13 12 14 17 18 22
52 47 42 36 28 29 28 27 16 9 18 10 18 19 23 28 29 23 30 34 31 22 16 19 9 13 10 9 5 6 4 2 2 2 4 7 5 6 10 12 11 8 8 10 14
56 53 48 39 32 34 33 36 16 18 23 14 21 22 23 28 27 27 32 36 32 29 19 16 13 10 8 12 9 5 5 6 3 3 3 7 12 16 10 15 10 9 9 7 9
60 57 53 42 36 37 41 47 29 19 13 27 18 21 27 30 29 29 29 36 33 28 23 14 10 13 8 8 12 11 8 3 4 1 4 5 7 9 14 4 6 6 6 6 6
55 58 57 48 40 42 52 54 40 26 16 18 21 19 24 28 36 30 24 16 32 25 26 24 15 11 17 16 12 13 16 13 9 4 4 1 7 11 6 3 5 8 7 6 5
46 60 56 52 47 54 53 56 38 44 26 18 18 20 25 25 32 28 32 32 18 27 28 23 13 20 20 16 17 20 18 19 17 7 7 7 19 16 13 14 11 12 9 5 6
48 56 42 52 56 61 50 51 50 44 38 30 20 19 20 23 23 34 33 28 26 23 24 24 17 18 13 19 24 22 22 23 22 19 14 7 13 12 19 18 17 14 16 14 11
48 45 36 40 60 63 49 44 55 51 38 42 31 18 16 16 21 17 29 32 29 25 18 19 24 24 23 25 18 17 18 15 19 17 19 24 23 19 18 17 15 13 14 17 16
53 43 53 51 64 67 59 51 50 56 50 37 46 32 20 11 18 21 21 25 28 30 26 26 24 25 24 20 18 21 23 21 26 24 21 23 23 15 16 16 17 18 18 18 19
50 46 52 50 65 66 43 52 51 52 41 51 38 45 31 19 16 14 11 20 27 27 29 26 23 23 24 24 25 19 19 21 20 19 22 21 24 19 21 20 18 17 19 18 18
48 53 52 54 56 58 71 54 53 48 53 45 41 38 42 31 15 12 13 15 15 15 25 30 31 26 23 22 20 19 26 25 25 28 31 32 34 30 29 30 29 27 24 20 21

GFSSW_700_spd_063.txt.gz
Wind_Speed
21 19 19 19 19 19 19 19 20 20 21 21 20 19 20 17 15 12 9 6 4 4 5 4 3 3 4 5 3 3 4 7 6 4 5 6 10 8 11 13 11 10 12 11 8
26 24 23 23 23 22 21 21 21 21 21 21 20 18 19 15 12 11 6 5 3 5 6 3 4 2 3 1 4 6 5 5 2 5 9 7 6 9 13 14 11 10 12 12 11
30 29 27 26 26 25 24 23 23 22 21 21 20 18 18 15 11 7 6 4 5 6 4 3 4 4 5 4 4 8 6 6 5 6 7 6 3 8 13 11 8 9 11 14 10
34 31 31 30 28 27 26 25 23 23 22 20 20 17 17 13 8 8 5 4 4 4 2 4 4 5 4 2 6 10 8 8 8 8 5 3 4 9 7 4 4 6 2 7 6
35 34 32 32 30 30 28 26 25 24 23 21 20 16 16 13 10 7 6 4 2 1 5 7 7 5 6 1 4 5 8 2 5 7 4 5 6 8 4 2 3 3 5 3 5
34 34 33 33 33 32 30 28 27 26 24 22 20 16 16 12 9 7 7 4 2 3 9 10 7 7 6 1 1 3 7 3 1 3 5 6 7 8 5 3 4 3 6 8 6
35 31 33 34 34 34 32 30 28 27 25 24 20 17 15 12 8 9 9 8 5 6 12 10 6 7 4 1 1 1 3 3 3 3 6 8 9 10 5 5 3 3 3 7 14
30 31 28 32 33 33 33 31 29 28 26 24 21 19 15 13 11 13 12 12 9 9 12 11 9 5 5 3 2 1 1 1 2 5 7 7 6 13 4 3 6 5 7 4 9
30 29 29 28 30 31 32 32 30 28 27 24 21 20 17 15 14 17 15 16 12 10 12 10 10 8 7 8 3 4 2 2 2 8 6 9 11 14 7 1 2 6 8 10 11
32 30 28 27 26 27 27 30 30 29 27 26 21 19 16 10 16 18 19 20 16 13 10 8 8 8 10 9 3 5 6 1 6 10 14 18 15 11 8 2 4 6 8 9 15
34 30 29 26 26 24 23 26 28 28 27 25 16 10 15 15 17 19 23 22 19 16 10 6 5 4 6 7 6 7 6 9 6 12 19 16 20 7 7 5 4 5 8 8 11
36 33 30 28 27 23 22 21 26 27 28 25 23 23 19 15 19 22 26 25 23 18 13 10 6 6 3 4 7 7 9 7 8 12 15 17 5 10 7 3 2 3 7 11 13
40 35 31 30 28 23 21 18 22 24 28 29 24 24 23 27 22 26 29 27 23 20 15 12 6 7 7 8 10 10 12 11 13 15 8 9 5 9 10 11 10 8 9 13 12
44 39 34 32 29 23 19 19 15 16 16 23 19 25 27 28 29 29 31 27 23 22 15 11 12 8 12 12 11 14 8 9 12 11 2 4 4 3 8 15 15 14 16 15 18
47 42 38 35 29 24 20 15 12 10 4 7 16 21 26 34 24 34 34 31 25 23 20 9 8 6 8 10 8 8 5 8 8 5 4 3 2 6 9 9 11 13 19 21 19
51 46 43 39 30 22 20 16 14 10 9 8 10 18 23 35 30 33 37 32 26 23 20 16 9 6 2 5 5 5 5 3 4 3 1 4 5 6 9 10 8 10 16 20 23
54 51 47 41 31 25 20 18 14 11 7 10 13 20 22 35 34 29 42 39 33 26 26 20 18 11 7 4 7 8 5 1 1 2 2 5 5 9 9 8 9 7 12 17 21
58 54 50 45 35 29 26 25 17 12 21 7 17 17 23 33 31 26 40 41 37 30 22 22 11 17 9 8 6 9 8 4 3 2 1 4 5 5 12 10 10 9 5 11 18
55 57 56 48 40 33 36 34 24 22 15 17 12 18 23 31 26 28 33 42 39 38 22 24 17 10 11 8 10 8 8 5 4 2 1 4 8 13 7 12 7 5 7 4 8
44 55 60 49 45 39 43 45 31 21 19 27 14 19 23 29 29 30 28 35 38 37 30 15 8 18 15 12 12 10 5 3 4 3 3 4 4 4 10 3 7 9 7 2 6
38 40 63 52 48 45 56 50 44 32 25 14 25 13 18 27 34 37 21 16 36 35 32 27 17 10 17 16 13 14 14 9 5 5 3 2 5 4 8 5 10 10 10 8 6
38 44 49 53 52 55 61 49 37 46 26 20 17 19 17 22 30 30 36 27 20 33 35 28 16 21 18 16 16 17 16 15 9 6 9 9 17 16 7 6 9 12 12 6 11
43 46 32 47 61 61 63 51 41 33 46 31 22 15 15 17 21 31 32 29 15 30 34 30 18 18 10 19 20 19 21 19 18 20 19 10 10 10 13 13 13 16 12 13 12
48 45 33 41 63 68 60 47 49 47 35 44 31 21 14 13 22 14 34 30 30 18 28 24 28 21 20 23 16 21 24 23 23 16 20 27 28 22 16 14 11 13 15 14 14
54 39 52 52 60 69 63 64 50 41 51 47 40 32 19 9 13 18 21 32 30 29 26 26 20 23 27 24 25 25 23 20 19 22 24 27 28 22 17 18 15 15 15 17 17
59 43 51 44 60 67 52 55 52 46 42 54 50 40 30 17 9 18 16 18 28 33 33 32 26 24 26 24 25 22 22 21 20 21 24 25 29 23 21 20 18 18 17 16 17
67 64 46 62 43 55 72 61 44 45 51 40 47 43 41 26 19 15 7 10 14 16 28 32 31 29 25 25 25 22 27 26 24 24 26 31 33 28 27 27 28 28 29 27 25

GFSSW_700_spd_066.txt.gz
Wind_Speed
24 21 20 19 19 18 19 18 18 19 18 18 18 17 16 16 15 12 11 6 3 3 4 3 2 2 3 4 5 4 3 5 4 4 3 7 8 5 8 12 13 10 10 12 11
28 26 25 24 22 22 22 22 21 21 20 19 19 17 15 16 14 11 8 5 2 4 4 2 3 2 2 2 2 3 5 3 4 6 6 9 7 9 11 13 11 11 11 11 12
30 30 29 29 27 26 26 26 24 23 22 20 19 18 15 16 14 11 6 4 3 5 4 3 4 5 6 5 6 6 8 8 7 10 9 8 6 8 10 8 5 9 10 12 15
31 31 31 32 31 30 28 28 27 25 23 21 20 18 16 15 7 7 8 6 4 4 4 5 6 7 6 5 7 8 9 12 13 12 11 8 7 9 9 6 5 5 6 8 10
33 32 32 32 32 33 30 30 29 27 25 22 22 19 15 15 13 13 11 8 4 4 6 7 8 7 6 6 7 7 8 6 8 11 9 6 8 8 8 4 5 6 7 6 7
33 32 33 33 33 33 33 30 31 28 26 25 24 21 17 15 14 11 11 9 6 6 9 10 9 9 8 6 3 3 3 5 4 2 4 7 10 8 11 6 6 3 9 5 1
31 31 32 32 33 33 33 32 31 30 27 27 25 23 19 14 14 11 13 11 9 9 13 11 8 8 7 5 5 4 2 2 2 4 5 7 8 6 11 5 7 3 2 7 16
32 30 31 31 30 32 32 31 31 30 28 27 26 24 21 16 14 14 16 14 11 11 13 11 11 9 8 7 5 3 3 7 2 3 7 6 3 5 4 6 8 6 4 1 5
34 32 31 30 30 30 31 30 31 31 27 27 27 24 21 19 15 18 18 17 15 14 15 11 10 10 11 9 8 8 7 4 5 4 7 7 6 8 5 5 4 7 4 3 6
36 34 32 30 30 30 28 29 28 29 27 27 27 22 19 11 14 19 21 22 18 15 14 13 13 11 11 13 16 9 9 6 8 5 10 9 9 8 6 3 3 7 8 7 4
40 37 34 32 31 29 27 25 27 29 28 26 22 16 19 12 17 20 23 25 21 18 13 14 10 11 9 12 10 9 6 6 7 5 8 8 11 4 2 1 4 5 7 10 11
42 40 37 33 32 29 26 25 26 28 29 26 26 29 19 16 20 23 26 29 27 19 16 13 12 9 8 8 8 8 8 8 4 5 11 8 3 5 7 2 2 3 6 11 14
44 42 39 36 33 29 25 26 22 27 29 32 28 29 26 28 22 28 30 30 27 21 20 16 8 13 10 8 8 10 11 7 7 9 8 6 5 12 13 9 7 8 9 11 13
48 44 41 38 35 29 25 25 19 20 17 28 25 31 29 30 33 27 30 32 26 25 19 18 16 13 14 12 11 11 8 9 8 6 3 4 3 3 3 4 9 12 13 14 15
51 47 44 40 38 29 26 21 16 11 6 10 21 25 28 37 25 36 32 36 25 22 23 18 16 16 13 15 14 9 6 6 7 8 5 5 9 4 4 6 6 12 17 18 17
43 50 47 44 39 29 26 18 14 8 10 9 12 19 25 35 30 25 37 38 25 22 25 17 14 11 8 7 12 9 5 1 4 5 8 3 5 4 3 6 6 7 11 21 25
37 46 49 46 37 33 27 20 13 15 7 12 14 17 21 28 31 28 43 43 32 27 28 23 19 14 10 7 11 9 7 7 6 5 3 3 5 11 8 4 7 9 11 16 22
37 36 48 49 39 36 29 27 19 15 25 8 17 14 18 21 24 28 34 38 35 27 21 26 22 20 16 13 10 14 13 6 6 5 5 4 6 2 6 8 9 8 10 12 21
35 30 42 47 43 40 37 36 31 24 19 16 9 13 17 23 19 24 33 40 37 34 23 27 22 16 18 16 12 11 13 10 2 2 3 7 7 7 4 8 6 3 7 7 13
35 28 35 44 43 42 44 51 33 25 25 23 16 11 16 22 21 27 29 33 36 35 28 13 20 17 16 19 17 12 12 8 7 4 6 6 7 8 2 3 3 7 6 6 6
33 31 38 38 38 45 50 58 41 25 24 25 19 15 16 18 28 26 21 15 37 35 32 23 16 10 23 19 16 16 14 10 7 6 4 3 5 7 7 4 5 4 7 6 2
37 41 40 33 45 52 60 55 27 39 28 25 21 28 15 19 23 27 30 26 14 35 40 30 17 17 16 17 20 18 17 18 13 10 8 7 15 16 14 10 6 8 8 7 8
46 44 36 33 54 53 63 49 40 23 38 24 24 20 23 14 16 24 26 30 13 27 34 35 21 17 17 15 20 19 19 17 16 16 15 11 12 4 7 13 14 10 11 11 10
50 45 35 40 46 64 55 40 47 39 28 35 22 23 18 18 18 13 25 26 30 13 31 35 25 28 24 18 15 21 21 20 20 18 18 21 21 17 18 16 15 14 14 13 16
59 50 56 50 52 59 58 37 43 43 44 31 34 25 19 14 13 21 14 27 26 27 26 33 30 27 26 20 18 19 19 21 26 26 24 20 20 20 18 18 18 19 16 14 18
65 52 53 34 49 56 63 53 42 50 38 45 35 34 24 20 10 15 15 24 20 34 31 34 25 23 21 21 22 22 22 23 24 20 21 23 24 19 19 20 20 22 20 19 18
67 61 40 56 42 48 57 58 47 42 44 35 36 28 38 27 18 13 13 11 18 18 29 29 27 22 23 18 16 20 28 22 21 24 22 23 23 20 24 26 25 26 24 25 26

GFSSW_700_spd_069.txt.gz
Wind_Speed
24 24 23 22 21 20 20 21 20 19 19 18 18 19 18 15 16 16 12 8 5 5 5 4 3 2 2 6 7 6 11 13 7 6 2 6 10 16 4 10 15 10 7 18 14
28 28 26 25 25 24 23 24 24 23 23 21 20 19 18 16 16 15 12 6 6 6 5 3 3 3 5 4 4 6 15 7 4 6 8 9 12 14 8 10 10 16 17 14 13
30 30 29 28 28 28 27 26 26 26 26 25 23 20 17 16 15 11 7 6 7 7 6 4 7 8 7 7 6 6 12 12 9 9 8 10 10 8 9 16 2 8 18 16 13
31 31 31 30 30 30 29 29 28 28 27 27 25 23 19 14 4 12 9 9 8 7 7 5 6 9 7 10 7 10 10 11 12 12 10 8 9 7 10 10 13 12 14 17 13
31 32 32 32 32 31 32 30 29 29 28 27 27 26 21 17 16 15 14 12 10 9 7 7 8 8 10 9 10 11 9 10 9 9 13 11 8 9 8 6 9 13 14 14 9
32 31 31 32 33 33 31 32 31 30 29 27 29 26 26 20 18 15 15 13 11 10 8 10 6 11 10 11 10 8 9 9 7 5 8 10 12 10 10 10 11 10 10 7 10
32 31 31 31 32 32 32 33 30 32 30 29 28 28 27 18 18 17 14 14 13 11 9 10 10 7 6 9 12 11 14 14 9 5 5 11 15 16 11 6 5 8 7 4 14
35 33 32 31 31 31 30 30 31 31 31 29 27 30 29 19 19 15 15 16 15 14 15 13 13 9 11 10 11 12 16 17 8 5 7 9 7 8 4 1 4 4 3 3 6
37 36 35 32 31 31 30 28 30 30 29 29 29 28 27 22 20 17 18 18 16 15 16 13 12 9 10 10 14 16 15 13 6 6 7 8 8 8 2 3 5 5 6 7 4
39 38 36 35 33 31 29 27 28 29 28 28 29 25 21 16 12 20 18 22 19 17 16 16 12 11 12 14 20 6 14 7 11 7 7 9 10 4 3 4 5 7 9 9 8
43 40 38 36 34 32 28 26 27 26 29 27 15 20 20 16 17 15 20 24 20 18 17 14 14 16 12 15 16 12 10 12 8 4 8 8 10 1 3 7 8 6 11 11 8
45 44 40 38 35 33 29 25 28 27 33 30 27 32 25 22 18 21 22 27 26 23 18 17 19 13 12 9 12 11 12 12 9 7 7 9 6 4 7 4 10 11 8 9 11
39 44 44 40 36 33 30 26 27 27 33 34 31 31 26 26 24 21 26 28 26 24 22 22 12 14 11 10 10 11 13 11 9 11 12 10 7 9 10 11 10 12 12 7 8
32 36 43 42 34 35 30 28 23 23 20 24 28 31 33 32 36 25 26 29 24 27 24 22 18 12 15 14 12 15 12 12 12 14 1 11 4 15 12 11 14 14 15 16 10
33 31 34 41 40 33 28 24 20 13 7 5 17 21 22 37 18 34 29 31 31 25 27 25 21 19 18 16 13 15 8 10 11 13 15 8 11 11 13 12 14 17 17 18 18
36 34 31 35 41 32 28 22 15 8 14 10 12 15 24 29 23 11 34 32 28 24 24 24 17 18 18 14 16 13 10 9 10 13 11 13 9 14 13 5 5 7 15 20 20
38 36 33 31 38 29 26 21 15 21 13 22 11 14 18 21 31 23 38 39 36 34 33 26 22 18 15 10 12 13 12 10 7 8 9 4 6 15 6 5 5 8 9 15 22
41 38 36 33 27 34 28 28 22 30 37 8 10 14 17 17 28 28 34 39 36 33 26 29 31 26 18 19 14 18 17 9 7 7 9 7 8 4 6 5 6 7 9 12 15
38 39 38 36 27 38 35 33 50 41 15 38 9 14 15 19 17 29 35 40 40 38 27 30 30 25 22 19 17 16 23 17 10 6 6 10 11 12 7 6 6 4 4 8 11
36 34 41 35 29 40 39 44 41 34 33 21 31 16 15 18 22 32 33 37 39 40 31 13 25 18 24 19 19 15 16 14 15 9 9 17 12 9 4 3 5 2 1 2 5
34 36 40 31 27 41 53 55 48 30 27 28 23 28 17 16 26 23 22 22 37 38 34 26 20 22 19 26 23 20 17 17 15 20 7 8 8 2 2 5 6 6 4 2 1
41 44 37 35 38 43 61 60 43 41 27 29 22 20 25 18 20 26 28 30 19 36 41 34 19 22 24 22 22 21 21 23 19 18 16 17 19 13 12 14 12 11 10 8 6
48 47 37 40 48 50 54 64 43 37 40 31 29 24 19 14 13 21 24 26 20 34 37 34 31 22 21 19 18 24 22 22 24 21 20 14 15 12 11 10 10 13 11 11 10
52 43 44 47 48 48 51 55 50 43 37 38 33 25 25 22 17 11 18 27 24 19 34 36 28 33 27 26 22 24 25 25 24 22 22 25 23 18 17 17 16 15 14 12 11
62 48 51 55 58 51 41 39 53 52 46 30 39 28 27 19 19 17 19 19 26 29 28 31 38 28 29 24 17 20 23 26 27 27 29 25 24 20 15 14 15 15 16 18 15
69 52 45 34 54 50 45 44 48 50 49 47 36 38 26 24 15 18 13 14 15 23 34 29 30 32 31 25 25 23 21 22 23 24 26 26 26 20 19 17 18 17 16 20 24
68 67 38 50 33 45 53 47 52 44 48 46 42 33 35 26 12 16 20 20 13 10 21 25 31 29 30 27 27 31 28 25 23 24 23 25 21 18 18 18 19 19 22 23 26

GFSSW_700_spd_072.txt.gz
Wind_Speed
26 26 26 24 22 22 21 20 20 21 22 20 21 22 21 20 17 18 15 12 8 7 7 6 4 2 4 7 7 11 14 14 14 14 11 6 11 21 24 10 7 16 13 12 18
28 28 28 28 26 26 25 24 23 23 24 23 23 22 23 21 18 18 16 10 7 7 7 5 3 5 8 10 6 8 14 11 13 14 14 12 13 20 21 18 24 16 9 16 15
30 29 29 28 28 28 29 28 27 27 25 25 24 23 21 21 17 17 10 5 8 8 8 6 8 10 11 11 12 10 16 17 16 16 14 13 11 16 16 24 20 9 17 19 20
29 30 29 30 29 29 29 30 29 30 29 27 25 24 21 19 6 19 12 12 11 10 10 8 7 9 10 12 14 11 13 15 16 16 17 15 13 14 11 15 21 19 16 17 16
31 31 30 29 29 30 30 30 30 31 30 29 29 26 23 23 16 25 17 15 13 13 11 8 9 9 12 15 14 14 15 14 13 14 14 15 15 14 13 12 20 23 16 16 16
33 33 32 31 30 28 29 28 29 29 30 31 30 29 29 28 15 22 18 16 14 14 12 9 10 7 17 16 14 15 13 15 19 9 13 12 13 15 8 15 14 10 16 17 18
33 33 34 32 31 30 29 27 28 28 27 30 31 32 32 25 19 20 18 16 14 15 12 8 11 13 8 13 12 16 19 17 19 20 15 13 17 18 23 11 5 9 5 16 21
35 36 34 33 32 31 30 28 27 28 26 28 29 32 35 23 21 21 17 17 16 16 13 10 13 15 13 14 16 18 18 19 25 9 5 9 18 20 13 15 15 3 2 10 11
37 38 37 35 32 32 31 29 28 28 27 27 27 30 33 27 23 21 20 16 17 18 16 15 15 12 11 16 16 14 21 18 8 14 11 13 15 20 8 10 9 6 7 11 4
38 38 39 38 35 33 31 29 27 29 30 28 27 26 21 22 15 15 19 20 19 16 15 15 13 13 15 14 21 9 15 12 10 8 11 13 10 7 8 6 3 8 5 8 9
36 36 38 40 38 35 31 27 26 26 31 26 21 25 8 16 19 19 15 22 21 19 22 18 17 19 19 19 21 17 16 17 8 7 9 13 10 6 7 6 9 12 12 11 5
35 35 36 38 40 35 31 27 22 32 37 36 33 33 27 23 21 20 17 25 27 28 21 19 26 19 18 18 13 13 14 16 12 7 6 9 12 8 8 12 7 8 11 15 13
31 32 33 34 35 34 33 26 27 27 37 44 37 39 26 29 29 20 22 27 29 26 26 27 22 18 18 13 11 11 14 17 13 9 12 15 15 8 10 10 11 12 9 10 10
32 30 30 29 28 33 29 21 24 19 23 36 29 33 31 29 35 25 28 28 27 29 26 26 22 15 16 15 14 14 11 17 14 13 13 7 14 18 16 14 12 17 15 9 7
32 31 28 27 24 23 21 21 15 7 6 9 16 18 15 37 18 28 31 30 35 30 25 32 26 24 19 20 16 16 11 11 13 15 17 11 16 2 9 18 18 16 18 16 9
33 32 31 27 24 15 24 20 15 9 12 8 16 17 19 28 32 8 31 35 31 30 27 26 23 24 25 18 18 16 16 14 14 17 15 18 11 6 8 13 17 15 19 19 19
36 35 34 29 24 16 24 19 15 19 21 18 18 14 18 22 31 24 28 38 40 38 37 29 29 24 21 21 19 17 15 12 9 11 8 5 11 7 7 11 6 5 16 17 20
39 38 35 32 26 18 29 27 21 33 39 6 19 18 20 20 25 30 28 40 41 36 31 30 25 31 23 22 18 19 19 9 6 4 4 9 8 6 10 6 4 6 10 10 14
36 36 37 34 27 24 32 39 39 35 30 35 12 17 19 19 17 27 35 38 42 44 41 30 33 25 26 22 23 18 25 23 13 14 8 11 14 8 7 3 5 5 6 9 12
33 35 39 28 28 26 36 39 43 48 36 26 37 19 16 20 22 19 35 31 43 43 37 29 27 28 31 25 24 25 16 21 18 5 10 11 14 14 9 6 6 6 6 6 10
31 36 41 27 26 34 49 55 49 53 40 34 29 27 35 17 22 25 22 28 31 35 37 39 18 23 25 34 27 24 22 17 20 20 8 5 4 12 8 3 6 6 7 5 4
37 44 39 30 37 49 61 56 46 41 42 36 30 28 28 29 15 24 21 29 29 33 39 41 25 26 29 26 25 25 24 23 18 15 16 15 17 6 6 7 9 9 10 10 9
43 44 40 36 50 57 51 50 40 36 40 39 36 26 25 23 31 22 26 22 30 12 42 39 39 21 24 28 25 28 31 26 26 23 24 13 10 11 10 10 11 12 13 13 16
46 45 46 44 50 40 40 39 38 41 40 40 33 30 24 29 18 13 18 27 30 26 18 31 40 33 20 22 26 30 29 30 28 25 20 25 20 17 18 17 16 16 20 15 11
55 56 51 55 60 47 34 29 38 40 45 45 38 36 30 25 28 24 17 13 24 35 23 18 27 37 33 26 25 27 28 28 30 28 25 22 22 21 18 12 14 9 9 11 13
64 62 49 44 35 48 47 43 41 36 37 50 46 36 30 33 20 18 27 26 20 32 35 29 21 31 36 31 31 30 30 30 29 28 28 24 26 23 21 19 14 15 15 13 14
69 67 32 46 33 41 61 46 38 35 34 42 48 36 31 29 16 14 15 22 22 27 23 24 23 30 31 31 27 35 34 23 23 24 23 24 22 20 17 17 17 15 13 16 20

GFSSW_700_spd_075.txt.gz
Wind_Speed
28 27 27 26 25 23 24 23 22 21 20 19 20 19 21 20 16 17 18 16 13 10 8 6 4 2 3 4 4 1 13 20 19 19 20 15 13 19 22 21 21 22 36 13 17
29 28 28 27 26 26 26 27 26 25 25 23 23 23 21 22 17 16 16 12 8 8 8 8 7 2 4 3 8 12 15 18 17 19 23 19 17 19 16 21 23 21 20 15 13
29 29 29 28 28 26 27 27 27 28 28 27 26 25 23 23 19 18 10 6 7 9 11 10 9 9 14 10 12 15 21 18 19 20 20 17 17 15 20 21 16 17 12 11 11
30 29 30 29 29 27 27 27 27 28 29 29 29 28 25 24 15 13 13 10 12 13 13 11 10 9 7 7 6 18 17 16 19 23 25 23 18 15 22 10 7 10 13 11 12
31 31 31 30 29 29 28 28 27 27 27 29 30 29 28 27 19 22 20 17 13 14 14 12 14 5 7 7 19 26 12 14 22 22 23 22 14 16 23 19 17 16 12 10 16
31 30 30 31 31 30 29 28 27 29 27 28 31 30 30 30 17 21 20 16 15 15 14 14 14 5 11 19 21 15 19 16 21 24 27 20 18 17 19 25 24 11 14 14 15
32 33 31 29 29 30 30 29 28 28 28 28 30 33 31 24 18 24 22 16 16 15 15 11 9 10 11 17 13 16 16 21 23 25 23 21 20 17 25 25 23 32 12 13 14
32 34 34 33 31 30 29 27 28 29 29 29 30 35 34 25 23 22 23 19 18 18 15 13 6 16 20 19 17 19 17 23 17 21 14 14 22 18 15 29 17 9 7 13 7
32 34 35 35 34 33 30 27 26 29 29 30 29 35 31 25 17 17 22 22 17 18 16 17 13 22 22 12 15 14 26 23 25 16 6 15 21 11 21 16 7 5 2 9 8
31 32 33 35 35 34 32 28 26 30 29 31 31 33 21 19 21 16 15 20 21 18 19 19 21 21 20 15 22 15 19 14 17 12 11 10 20 13 11 9 5 3 2 8 5
31 31 31 32 31 33 32 28 27 29 34 32 28 30 20 19 23 12 12 17 21 23 22 18 21 27 21 17 15 18 21 24 13 10 9 12 17 15 14 7 5 4 5 8 11
30 30 29 27 25 28 30 25 24 30 40 37 34 38 27 21 29 23 14 20 27 30 22 20 35 24 16 15 22 28 17 15 15 10 5 11 11 15 14 9 10 8 10 10 9
33 31 30 29 24 20 21 22 25 28 39 50 38 38 27 31 36 28 22 24 27 30 29 32 30 19 16 14 21 16 12 15 14 15 10 15 16 8 13 11 9 9 10 11 9
30 31 30 29 28 17 17 18 23 26 24 45 35 37 30 31 42 29 30 28 32 32 30 33 29 24 27 24 18 15 12 17 13 10 10 16 9 19 14 17 14 12 17 15 12
29 28 28 27 22 12 16 11 15 14 5 11 11 14 8 27 25 22 33 33 37 33 29 37 25 31 28 25 17 20 16 13 12 13 16 17 6 16 15 26 21 17 18 19 16
31 29 30 27 20 14 9 10 12 10 12 6 15 19 18 18 23 15 29 38 34 33 34 30 28 28 30 23 19 17 18 16 15 13 11 23 10 14 14 22 21 22 22 20 18
36 33 32 30 18 19 14 19 15 14 14 20 13 17 19 22 19 22 18 45 40 32 40 37 36 29 28 27 24 19 18 3 5 3 7 10 11 22 21 11 13 26 17 17 20
37 37 36 32 21 21 20 23 18 35 44 11 10 10 20 22 24 28 29 36 47 36 21 32 25 36 30 32 25 23 23 11 6 2 4 13 6 10 9 9 12 7 6 21 14
37 37 38 33 22 25 24 32 42 49 26 40 24 26 23 15 19 24 39 36 40 49 35 27 27 19 33 26 27 22 23 25 4 3 4 12 13 5 11 9 6 6 7 9 14
36 33 39 26 19 30 34 50 53 45 36 22 23 17 24 11 19 26 26 36 35 41 45 30 18 31 28 30 27 32 17 22 23 7 5 8 12 8 19 6 6 8 11 12 14
29 33 41 25 24 34 54 51 37 49 35 36 37 38 37 33 24 22 21 28 27 32 39 44 25 23 26 36 34 29 29 23 14 14 6 2 5 3 7 9 7 10 13 13 18
32 38 38 29 38 47 59 49 50 34 29 38 39 35 32 31 34 26 33 24 25 23 41 40 27 29 33 19 40 36 33 29 20 12 12 17 8 12 5 8 6 12 14 11 12
38 41 38 32 49 56 45 39 48 43 39 38 32 40 38 34 25 18 25 21 21 31 38 31 32 24 25 29 31 41 31 27 26 28 27 6 11 22 12 10 16 13 16 13 10
40 40 44 45 50 44 47 49 44 42 41 39 39 31 35 32 27 34 12 21 23 25 31 37 29 33 26 22 16 32 35 32 27 30 28 29 18 14 13 12 15 19 15 15 16
46 53 43 44 56 50 45 44 46 42 35 37 43 37 38 30 29 34 20 14 16 28 26 21 35 38 32 32 26 28 28 27 30 32 24 28 26 24 21 17 12 13 15 24 18
54 60 44 53 34 56 54 45 36 24 31 36 42 38 37 37 27 31 25 19 15 20 35 30 25 33 31 28 35 30 26 33 33 33 29 23 24 21 17 19 19 25 16 11 11
58 61 38 46 50 43 57 58 45 33 28 28 33 35 41 46 21 28 29 18 13 14 26 38 26 18 32 27 24 32 34 28 30 28 27 31 30 19 21 24 17 13 17 17 13

GFSSW_700_spd_078.txt.gz
Wind_Speed
27 26 26 26 27 25 26 25 25 25 22 21 22 21 20 18 15 17 15 15 15 14 11 8 5 6 3 6 6 8 14 14 15 19 24 15 15 19 16 19 22 21 23 26 22
28 28 27 27 27 27 26 26 27 27 26 26 25 24 23 23 18 16 15 14 11 10 11 9 9 10 10 12 11 12 17 13 17 19 14 14 18 19 14 18 18 20 21 23 23
27 27 28 28 28 28 27 26 27 28 28 28 27 27 25 25 22 21 17 13 10 8 10 9 9 14 11 15 11 12 18 19 24 25 22 25 28 21 17 19 18 14 20 23 24
28 27 27 28 28 28 28 28 27 28 29 29 29 28 25 24 20 13 12 12 13 13 12 11 11 13 11 12 11 16 18 18 24 20 22 24 23 21 18 21 23 26 25 26 20
27 27 27 27 29 28 28 27 27 28 29 30 31 29 26 26 20 19 23 19 20 19 16 14 14 13 13 11 11 18 19 21 21 18 17 21 25 21 21 19 21 27 31 29 19
31 28 29 28 28 27 27 27 27 27 28 30 32 30 30 27 18 15 22 20 18 21 17 17 11 12 15 13 14 18 22 19 20 19 22 23 24 21 25 25 24 32 22 9 11
32 34 33 32 30 29 27 26 24 26 28 29 31 32 31 22 22 21 21 19 18 19 18 14 11 17 14 16 16 21 24 23 25 22 16 20 25 17 17 17 25 15 4 1 10
31 32 34 34 32 32 30 28 25 26 26 29 31 33 33 25 26 22 24 21 19 21 17 15 15 16 18 19 18 23 20 23 9 13 19 19 16 13 17 11 18 15 8 5 8
30 31 32 32 34 34 32 30 28 29 28 30 31 32 30 27 21 21 24 22 20 19 18 19 23 18 17 20 18 16 22 14 18 15 10 10 12 12 14 15 10 9 8 7 8
28 29 30 30 30 32 32 31 29 32 33 33 35 30 19 19 23 17 15 23 25 21 21 26 27 23 20 22 20 17 16 17 22 24 11 13 13 15 10 6 12 10 8 8 7
28 28 29 27 25 27 27 25 28 35 40 38 33 27 19 19 22 19 18 20 23 26 28 26 30 35 25 22 17 13 18 24 23 13 14 11 10 7 11 8 13 10 9 10 9
28 28 28 27 22 22 21 18 27 33 42 41 41 43 30 26 32 23 22 21 25 31 27 24 37 32 21 21 21 20 23 25 26 15 13 13 14 10 12 11 14 8 10 7 8
29 27 27 24 19 21 17 11 21 30 41 46 41 46 34 34 38 28 28 23 25 30 32 34 19 24 21 21 21 21 24 25 21 14 14 10 15 14 13 14 14 10 6 3 6
30 28 29 24 20 16 15 9 16 24 24 41 38 40 29 35 48 29 37 29 32 33 30 34 36 18 15 23 22 24 11 19 12 15 8 11 9 19 19 16 19 15 12 2 4
30 29 28 25 16 14 14 8 11 10 6 10 9 10 9 19 28 18 34 39 39 35 34 36 34 31 30 24 18 25 19 21 15 13 16 18 10 24 17 18 25 23 17 8 2
32 29 30 25 14 20 12 8 11 7 12 5 8 10 15 12 19 16 25 43 40 36 36 29 32 17 27 24 21 17 18 18 17 10 7 22 13 20 17 20 23 22 21 16 10
31 32 32 29 16 22 14 15 14 13 11 8 7 9 15 15 16 21 18 45 38 34 41 34 35 31 27 26 24 23 22 5 5 3 6 3 6 22 15 18 20 21 22 18 15
30 31 33 32 23 24 20 24 19 20 31 11 6 6 5 7 18 16 22 36 50 30 16 29 20 38 31 37 29 26 26 13 5 4 4 7 8 6 16 16 22 21 19 20 17
29 31 33 27 28 28 27 31 27 30 11 12 29 22 20 7 5 14 23 32 43 48 23 19 28 26 39 30 26 29 28 27 20 5 2 5 12 8 7 11 12 12 12 16 22
31 32 33 23 24 27 33 48 43 36 25 20 11 9 11 15 9 7 10 11 34 39 46 28 8 24 21 31 32 26 26 19 13 7 4 7 10 11 12 14 11 10 9 11 12
24 29 33 22 21 28 46 50 39 45 28 24 30 32 30 22 12 12 12 17 10 30 35 41 32 14 22 32 27 32 34 20 23 21 6 2 7 9 13 22 14 10 10 11 11
29 35 38 26 36 44 47 54 41 21 17 37 43 38 34 27 24 20 28 26 9 11 30 44 29 39 39 17 22 33 37 35 22 10 13 17 23 7 9 8 10 10 9 13 15
37 41 38 28 43 53 50 45 46 46 42 27 23 27 30 11 18 28 28 27 23 19 15 33 41 24 34 43 35 26 29 41 39 34 29 12 7 19 16 7 14 13 16 16 14
41 42 41 34 46 47 51 40 36 37 41 45 44 41 35 28 20 23 33 34 21 23 18 25 41 47 28 28 23 16 22 36 42 36 30 32 27 19 21 23 15 19 20 20 17
45 49 46 44 52 46 47 44 43 39 29 29 32 40 39 35 23 30 34 38 27 22 16 27 40 44 44 38 31 21 17 33 45 40 37 35 34 26 23 21 16 17 25 20 17
52 55 49 55 43 46 50 46 45 32 31 37 42 30 23 31 35 26 14 22 29 19 14 14 21 37 35 40 40 23 28 28 40 37 34 33 31 26 26 21 24 21 16 20 21
55 55 51 45 52 48 50 47 45 36 40 36 22 23 25 24 25 30 24 24 29 26 19 18 11 17 25 31 31 25 40 32 31 29 33 33 28 29 23 21 22 22 19 17 20

GFSSW_700_spd_081.txt.gz
Wind_Speed
27 28 28 28 27 25 25 25 25 26 26 26 25 24 23 21 17 18 17 15 15 17 16 10 12 12 9 8 6 8 9 9 10 17 23 17 12 21 21 16 19 19 18 16 18
28 28 29 30 30 27 26 26 27 28 28 27 27 26 26 25 21 18 19 18 16 16 13 9 15 12 11 13 12 12 11 8 14 21 27 22 17 24 25 25 25 21 24 25 20
29 28 29 29 30 30 27 27 28 29 29 29 28 28 26 26 25 20 20 18 17 14 12 11 15 12 13 16 17 14 13 12 14 21 21 17 16 26 30 30 27 27 27 25 32
27 26 26 28 29 29 29 27 27 29 30 31 30 28 27 24 20 10 12 12 11 14 15 15 16 16 15 17 19 18 14 15 17 17 17 16 20 25 29 31 28 28 26 27 31
35 33 29 26 26 27 28 28 27 28 31 31 32 31 29 27 22 20 25 21 20 19 20 19 19 17 16 15 16 17 18 19 17 18 17 19 24 28 29 29 28 27 29 32 21
33 33 36 34 30 27 27 27 27 28 31 32 31 30 32 29 22 19 24 22 21 22 21 19 18 17 19 15 18 18 21 21 23 21 20 23 26 25 21 24 20 25 21 18 9
32 34 33 34 35 33 31 29 27 28 30 31 32 32 34 25 26 24 22 21 19 17 18 17 17 22 20 17 19 19 22 19 15 19 22 23 25 19 13 19 16 18 15 7 10
31 32 33 32 33 35 34 31 31 30 32 33 32 32 34 27 28 22 22 23 23 22 20 17 20 24 24 21 20 19 18 18 5 8 16 21 20 11 13 15 16 15 11 11 11
31 31 31 32 32 33 34 32 32 30 34 35 35 33 29 23 22 24 24 25 27 24 21 20 23 25 24 23 21 19 16 14 11 13 18 18 17 14 14 14 13 12 13 13 13
30 30 29 30 29 30 31 30 31 33 35 36 38 33 24 24 23 13 15 23 28 27 24 25 27 29 29 25 25 16 16 12 12 9 19 17 19 11 15 16 14 12 12 15 14
29 29 28 26 26 27 26 25 27 31 36 37 40 34 23 24 20 16 22 24 20 29 32 28 32 40 35 28 25 18 14 16 11 9 24 16 15 14 11 15 15 11 12 10 9
28 28 26 23 24 23 22 22 24 29 36 34 39 43 36 34 35 21 21 21 24 27 32 29 39 36 30 27 26 21 21 18 14 9 18 16 17 17 14 16 11 8 10 10 7
29 29 26 22 21 20 20 19 22 27 34 38 32 40 33 37 42 31 27 25 26 28 33 38 31 25 38 32 29 26 23 14 18 18 12 11 13 16 15 18 15 13 10 4 7
30 30 27 21 21 19 17 16 18 23 24 29 25 16 15 35 45 33 35 34 32 29 30 32 35 17 23 36 26 28 20 19 19 17 12 11 9 18 22 18 15 14 12 8 4
31 30 29 23 19 18 13 10 11 13 7 8 8 9 8 10 13 9 35 41 41 34 28 30 32 37 21 21 28 29 17 16 18 26 17 15 14 27 17 16 16 17 16 11 3
32 31 31 24 18 19 9 8 5 5 10 1 5 5 5 6 6 9 8 36 43 37 36 34 29 26 33 31 27 19 18 17 20 17 10 16 11 24 17 19 16 12 13 11 8
32 30 32 25 19 18 10 12 7 11 6 3 6 5 1 8 7 14 15 23 33 35 41 30 38 29 22 20 25 27 24 4 5 4 8 13 11 26 18 12 13 9 7 10 10
29 28 30 23 22 21 15 18 16 14 22 6 7 1 4 7 9 12 21 16 35 29 12 31 21 39 32 36 28 31 26 11 6 4 6 9 8 17 10 13 16 15 11 10 13
25 27 28 17 22 26 23 29 20 22 7 7 16 11 8 5 6 9 20 16 16 35 21 12 21 28 23 37 35 32 27 29 28 4 3 9 14 19 18 13 14 16 13 12 11
24 27 28 21 24 27 30 45 36 27 16 11 10 7 4 7 8 9 7 2 12 17 38 26 10 10 23 19 41 39 26 18 16 7 5 5 12 12 10 12 14 16 13 7 5
24 24 28 22 24 28 44 48 41 34 28 24 26 32 33 29 26 22 12 6 3 4 15 28 37 18 14 29 32 38 36 28 25 24 6 2 10 20 12 16 14 13 10 7 8
25 29 25 22 30 36 45 46 40 35 29 35 41 33 33 27 23 23 21 20 18 25 17 8 15 30 52 12 21 33 41 37 24 8 17 24 23 13 6 16 24 13 10 9 10
29 30 30 26 38 44 37 39 39 36 28 22 22 21 21 25 19 19 27 29 27 29 12 10 7 17 25 33 44 34 21 32 36 28 34 15 14 23 17 11 12 13 13 13 15
32 36 39 37 41 38 38 40 34 31 36 38 32 27 25 23 19 17 13 12 21 28 25 26 24 27 23 23 20 27 30 25 30 33 28 39 29 29 16 21 16 18 15 14 18
42 45 43 34 47 38 41 36 41 40 35 24 22 35 36 42 40 40 35 30 19 29 29 25 22 24 29 34 36 29 30 31 26 31 30 34 39 39 30 25 22 23 24 19 22
53 53 53 46 36 45 46 43 40 36 39 32 29 26 20 25 23 25 24 18 19 19 24 23 19 19 21 29 35 39 31 33 26 18 26 40 42 36 35 31 28 25 23 20 19
55 58 43 43 50 45 51 45 43 37 38 36 30 23 22 19 22 20 15 17 21 21 22 28 27 17 20 21 31 22 49 46 43 28 18 35 43 38 28 30 26 23 27 26 20

GFSSW_700_spd_084.txt.gz
Wind_Speed
33 32 31 30 29 30 31 28 28 26 25 24 24 25 24 21 20 20 20 17 16 17 17 17 13 13 11 10 9 11 11 11 11 10 20 14 20 18 18 19 17 24 23 23 19
33 33 33 32 31 30 31 32 29 29 28 26 26 26 25 24 22 20 22 19 17 17 16 14 15 14 11 13 13 14 12 12 7 14 17 15 19 18 21 22 25 28 23 19 20
30 31 32 32 31 31 31 32 32 30 30 29 29 27 26 25 23 21 19 20 19 18 14 12 14 13 12 13 16 16 14 11 14 15 17 16 15 20 23 28 26 26 24 22 25
34 34 31 30 30 30 31 33 33 32 31 31 30 29 28 25 17 9 9 11 11 13 14 12 14 16 15 15 17 21 18 18 21 18 18 17 21 24 26 28 30 30 27 23 25
33 32 32 34 34 31 30 30 32 33 32 32 31 29 30 29 24 23 21 22 22 21 19 18 16 17 18 17 19 22 20 24 26 24 21 22 24 28 27 26 25 25 22 22 18
33 32 32 33 31 32 36 33 30 31 32 32 31 30 32 31 27 23 22 23 22 24 23 25 20 18 19 19 20 22 21 26 27 26 25 28 27 30 17 16 20 19 20 16 11
33 33 31 33 33 33 33 34 38 35 33 32 33 31 33 23 30 25 22 21 19 21 21 24 21 21 19 17 21 21 24 27 26 20 14 14 20 20 16 14 17 16 16 12 12
33 34 33 32 32 33 33 33 36 39 35 34 34 35 34 21 27 26 27 26 26 25 20 20 21 25 24 20 16 19 20 22 7 4 10 16 23 11 14 14 13 13 14 15 14
34 34 33 33 32 32 32 32 35 38 37 36 34 33 31 25 25 25 28 29 28 25 22 22 25 24 26 23 22 22 21 19 14 11 11 16 20 13 16 16 15 14 14 14 16
33 34 32 33 32 32 31 30 33 35 36 36 36 30 26 26 23 20 20 25 30 30 28 26 28 27 29 27 24 21 19 20 19 12 12 16 19 12 15 16 15 12 11 12 14
34 33 32 31 30 31 29 25 29 30 32 32 33 34 25 22 24 18 23 17 18 23 31 33 33 38 35 31 27 20 13 14 17 15 17 16 19 15 19 18 11 7 7 9 11
34 32 30 29 28 28 26 24 25 28 34 26 31 34 30 28 35 17 18 21 25 24 24 33 38 35 32 28 29 27 24 21 17 14 14 16 18 15 17 18 14 9 7 7 7
34 33 30 27 27 25 23 20 21 25 32 32 27 29 27 30 34 29 26 26 25 26 27 33 31 33 36 32 30 30 31 23 19 15 17 14 21 18 20 21 21 18 9 3 2
35 33 30 27 25 22 19 17 19 21 20 20 15 8 11 20 26 31 36 37 31 29 26 25 31 26 16 29 34 33 30 22 22 21 12 13 11 27 24 26 24 20 12 8 3
34 33 28 27 23 20 15 14 13 13 6 6 4 2 7 7 1 5 13 37 45 40 31 21 21 28 37 29 23 35 29 24 19 18 22 25 11 24 29 29 18 12 9 9 6
33 32 28 27 23 19 13 12 11 5 9 1 1 1 4 1 5 7 5 15 32 40 37 34 27 18 19 28 16 17 22 19 18 18 8 21 14 24 11 9 8 13 11 12 11
31 31 30 27 20 19 13 14 6 10 1 4 5 3 2 2 4 11 9 6 16 23 37 31 36 31 22 17 22 31 24 3 3 4 5 8 14 28 20 20 17 10 5 13 14
28 30 31 25 21 21 18 17 14 9 13 7 6 0 2 4 4 6 6 6 14 16 4 26 21 37 30 31 17 27 33 12 6 4 4 12 9 13 14 10 12 12 9 12 15
26 28 29 19 20 22 24 27 14 9 11 7 19 10 6 5 4 3 5 2 4 20 10 6 13 14 19 16 35 19 32 32 17 1 1 7 12 18 15 16 15 14 15 15 15
24 25 26 19 22 22 29 40 26 15 8 6 7 6 4 5 6 8 6 6 2 3 10 18 14 18 8 18 23 39 16 15 18 5 5 5 11 13 5 11 11 10 13 11 9
20 21 21 20 24 26 39 37 33 26 19 15 10 20 17 19 19 18 10 9 5 5 8 7 18 21 15 11 21 29 37 28 15 21 6 2 7 18 19 12 12 12 11 11 7
22 24 18 21 27 33 40 35 35 21 19 28 28 26 24 33 33 26 13 10 10 19 22 18 8 8 32 39 12 15 30 40 30 7 13 23 22 17 11 9 8 18 14 12 8
27 27 22 21 34 39 32 30 32 33 29 22 19 22 27 32 22 19 11 10 16 17 9 13 5 11 11 26 31 33 30 18 37 30 29 16 9 15 23 19 15 18 17 13 11
26 25 29 30 35 35 35 33 29 24 23 23 23 24 23 20 19 11 10 7 9 10 18 20 19 16 11 17 22 27 28 34 28 26 29 40 26 26 21 20 17 15 18 17 15
35 34 25 26 40 44 32 30 27 27 24 19 25 34 28 28 28 30 30 33 28 21 16 13 21 25 29 28 29 37 35 26 38 40 29 27 32 31 29 29 21 22 19 14 19
40 42 38 33 32 35 40 41 32 21 26 27 28 23 20 27 28 26 19 13 9 8 12 16 17 22 32 31 23 34 36 37 34 38 39 34 28 29 20 27 30 32 27 24 22
43 40 36 38 41 39 44 39 39 30 32 29 27 24 26 22 13 20 16 18 23 14 15 18 15 14 25 28 31 24 40 45 40 38 38 36 29 19 37 40 36 31 34 33 28

GFSSW_700_spd_087.txt.gz
Wind_Speed
32 33 31 31 31 31 29 30 29 28 29 29 28 28 26 21 19 18 19 16 14 16 16 15 16 15 15 13 14 14 12 13 12 10 10 10 13 14 15 18 19 25 23 23 22
31 31 32 32 31 31 32 30 29 30 31 31 30 29 30 26 21 17 18 18 17 17 18 16 15 14 14 15 17 18 15 11 14 10 11 10 15 17 19 20 22 24 23 21 24
32 31 30 31 32 33 31 32 32 29 31 31 32 30 30 30 24 21 16 18 19 17 18 17 16 14 14 17 20 21 19 11 13 14 16 15 17 18 21 22 23 25 24 23 21
32 33 33 34 35 35 35 33 32 33 30 30 31 31 30 29 19 10 7 8 8 9 9 13 14 14 15 18 20 24 21 17 17 19 20 20 22 23 24 22 23 21 21 20 21
33 33 33 33 33 34 34 37 37 34 32 30 30 31 30 30 26 24 20 20 21 18 16 14 16 15 17 17 22 27 25 22 23 22 23 23 25 27 20 24 18 20 17 17 18
32 32 32 32 32 32 32 33 33 34 36 33 29 29 32 32 24 27 24 23 25 23 21 21 20 20 23 20 23 25 22 22 24 22 23 26 28 27 17 16 15 17 15 14 14
32 32 33 33 32 33 32 32 34 34 32 36 37 33 34 21 24 26 22 21 21 21 23 24 25 23 26 22 23 24 27 25 24 20 21 17 18 17 19 14 15 15 14 15 15
33 32 32 32 34 34 34 32 34 33 33 34 34 37 34 21 25 25 26 26 28 25 24 21 25 24 25 24 21 19 22 24 14 10 6 10 21 15 11 12 16 17 17 15 16
34 32 32 31 32 34 35 35 35 33 33 33 34 33 30 24 23 23 24 25 29 28 29 27 23 25 25 24 23 23 22 20 17 12 13 11 18 13 10 11 15 17 16 13 14
35 33 33 33 31 31 33 34 36 35 34 32 32 30 25 23 24 18 15 13 25 30 30 26 27 31 28 28 25 24 25 24 22 14 15 13 18 14 13 12 14 14 10 11 11
36 34 33 32 32 31 30 29 33 34 32 29 24 27 16 18 18 14 13 15 19 23 31 33 35 38 32 32 29 19 19 19 17 14 21 19 20 17 15 13 13 12 8 10 9
37 35 34 32 29 28 30 30 30 33 35 24 26 28 23 24 31 27 23 19 23 22 20 30 39 34 33 24 27 27 26 29 24 19 18 18 21 20 17 12 9 10 10 9 7
36 34 33 30 29 24 24 25 26 30 33 33 25 23 25 26 30 25 31 26 27 27 27 29 22 26 34 30 27 30 31 30 26 20 19 23 24 18 17 18 16 14 13 11 4
35 34 32 29 28 23 22 20 23 24 22 19 15 8 12 15 16 23 29 34 28 28 24 20 23 19 16 26 30 32 31 28 26 21 11 12 13 20 24 18 15 15 12 13 7
35 33 31 29 25 23 20 17 16 16 6 6 4 5 6 4 6 8 6 36 40 27 22 16 14 22 32 17 19 24 21 25 25 22 18 17 14 14 12 24 3 8 6 14 12
32 32 31 28 24 22 18 14 12 6 9 4 4 0 1 3 6 5 1 9 25 40 35 27 18 11 8 16 28 19 14 8 13 14 10 18 18 15 13 6 8 3 10 12 15
30 31 31 28 21 19 17 15 8 9 3 5 7 3 2 2 2 3 2 3 5 10 26 25 30 30 23 15 10 20 13 5 4 5 8 11 14 28 19 16 16 1 4 14 21
26 30 30 26 20 20 19 19 14 6 14 7 7 2 4 2 2 3 5 5 7 7 3 15 13 32 29 30 20 21 31 8 6 6 7 16 10 16 13 9 6 5 7 11 21
26 28 28 21 21 23 25 27 12 15 16 11 10 8 4 3 2 6 9 7 6 0 6 1 7 7 11 13 29 21 22 28 14 1 2 7 14 21 16 19 14 10 9 14 16
22 25 25 20 23 25 29 34 23 13 9 9 11 7 5 6 3 4 5 6 3 5 4 3 7 11 9 8 19 25 12 11 19 7 11 7 13 14 3 10 8 12 9 17 16
22 21 18 20 22 22 32 30 29 19 18 12 11 10 7 5 5 6 2 5 6 6 5 9 5 9 10 4 9 20 27 15 8 18 8 5 8 18 17 12 13 12 9 15 14
22 21 18 18 26 31 31 25 27 26 20 18 18 17 14 15 17 16 8 11 13 8 13 11 6 5 15 21 11 8 11 26 24 12 10 19 22 9 8 5 10 12 12 13 11
26 24 19 21 28 35 25 21 26 28 25 17 14 18 23 26 18 18 13 8 6 11 4 8 4 5 7 7 15 14 13 17 20 22 32 17 12 10 23 20 16 16 18 16 15
28 23 27 30 31 23 30 26 22 18 19 23 23 20 18 19 18 9 10 9 6 5 11 15 12 13 11 11 16 19 18 17 17 22 24 35 30 16 16 19 20 16 18 23 20
32 33 30 21 34 33 29 22 22 27 21 17 14 22 18 13 15 16 13 17 21 22 19 16 13 12 17 21 25 28 28 26 32 36 28 25 27 24 32 32 28 21 13 18 24
41 42 31 34 22 29 33 32 29 21 17 17 19 13 13 22 21 20 15 11 12 5 6 11 12 11 19 18 22 29 28 30 37 39 42 31 36 28 25 22 27 30 28 22 20
44 42 35 28 35 22 30 25 29 24 23 21 16 16 16 15 17 18 17 15 18 17 16 16 11 9 9 3 13 21 31 26 36 41 46 37 31 20 20 23 28 28 28 29 25

GFSSW_700_spd_090.txt.gz
Wind_Speed
28 29 29 30 30 30 31 31 30 31 30 29 28 27 24 22 19 20 21 19 17 17 16 16 15 14 13 16 15 14 12 15 14 14 13 13 14 14 17 18 19 21 21 22 21
28 28 29 29 30 30 30 31 30 30 31 30 30 29 29 26 23 21 21 21 20 19 19 17 16 16 16 16 18 16 14 14 14 14 13 14 14 15 20 17 19 22 26 22 21
29 29 30 30 30 30 32 32 33 33 31 31 30 29 29 29 26 24 22 22 22 22 22 19 17 17 17 18 19 15 21 13 16 14 16 18 18 18 19 19 15 23 23 20 21
28 29 30 31 31 32 32 33 33 34 35 33 33 30 28 27 18 14 12 14 15 15 18 16 17 19 18 20 17 20 19 18 18 18 21 24 20 22 20 21 22 20 19 19 20
28 28 29 29 29 30 32 33 33 32 30 31 33 33 29 29 24 26 22 17 16 15 14 14 16 17 18 17 18 23 19 19 20 24 26 26 25 24 22 21 21 16 17 18 19
28 28 29 29 29 29 30 31 32 32 30 30 30 30 33 32 23 26 26 26 28 27 24 22 21 20 19 20 20 14 19 21 20 21 22 25 25 24 13 18 16 15 16 17 19
29 29 29 30 29 29 30 30 32 31 30 31 31 32 32 26 24 23 24 23 26 28 29 27 25 24 22 17 23 25 25 20 21 21 20 19 24 20 13 15 13 15 16 17 19
31 30 30 30 29 29 30 31 32 32 30 30 31 33 34 24 26 24 26 25 27 26 25 27 28 28 29 21 20 18 17 17 12 8 12 11 15 9 14 14 15 16 16 15 16
32 31 32 32 30 30 30 31 33 33 31 31 30 30 31 22 23 27 27 28 29 31 30 29 27 28 26 25 20 20 20 16 14 12 12 17 17 11 15 12 13 15 15 14 14
33 31 32 32 31 31 31 32 32 34 31 32 31 26 18 22 23 24 18 18 25 32 32 31 30 30 25 23 29 21 21 17 17 11 12 18 23 20 15 17 14 15 13 14 14
33 32 32 32 31 31 32 30 31 33 30 26 28 30 25 22 21 23 20 18 20 22 28 32 28 33 31 34 26 19 17 19 14 10 13 19 23 23 18 17 16 15 12 13 12
35 32 31 31 29 28 29 28 28 31 36 27 27 33 28 24 29 20 18 20 21 19 20 20 35 29 26 24 25 24 21 24 19 16 16 18 22 23 22 21 17 14 10 13 14
33 31 30 29 27 26 25 25 25 29 33 32 29 28 24 27 31 29 33 29 25 21 23 25 12 23 29 32 26 25 26 25 20 13 17 20 25 25 22 22 22 24 19 15 12
29 29 27 26 27 24 24 21 19 23 23 23 17 14 15 18 16 21 31 33 24 24 21 22 22 17 18 26 23 27 23 22 22 17 15 7 13 15 15 19 20 18 20 16 14
25 25 25 27 24 22 22 17 15 12 7 8 8 8 10 9 8 10 9 31 35 18 22 17 18 25 23 22 17 21 17 17 16 20 21 20 14 13 10 12 12 11 21 19 17
25 21 23 26 22 22 20 15 11 4 9 5 6 5 3 5 9 7 4 10 22 26 17 17 13 12 19 16 19 8 12 7 9 13 16 22 18 12 12 7 6 5 11 12 19
21 21 23 24 21 21 19 16 6 11 3 5 7 7 6 8 5 8 7 7 6 11 28 27 23 15 13 8 14 19 13 6 8 8 9 10 16 24 8 6 11 11 9 16 17
22 22 22 21 19 22 21 19 16 6 15 6 8 6 7 8 5 9 8 8 3 6 4 17 12 28 24 27 14 20 24 10 9 8 7 15 10 17 9 9 7 10 8 12 16
24 22 21 18 21 23 24 22 14 19 12 11 10 7 7 6 7 6 7 8 3 6 5 4 8 6 14 22 25 15 24 23 19 17 10 15 12 17 19 14 11 11 14 12 12
20 20 17 19 21 23 26 23 21 15 10 17 11 6 7 9 7 5 5 7 6 4 11 2 3 3 6 8 18 26 9 14 18 7 11 12 16 12 5 10 6 8 13 13 16
16 17 15 18 18 21 25 20 19 13 15 10 7 6 9 8 7 3 3 4 6 4 3 3 5 3 5 7 9 17 21 15 13 22 10 10 12 11 16 14 13 10 12 15 21
19 22 16 18 23 26 24 19 16 17 22 15 12 10 8 9 9 7 6 3 7 7 2 4 1 5 9 11 9 7 13 22 24 16 18 22 21 1 5 5 3 3 5 13 19
26 24 19 20 21 23 18 21 20 16 16 16 17 22 19 13 7 12 14 12 5 7 5 4 4 3 3 5 13 10 11 10 10 16 28 19 8 6 10 20 18 17 10 9 16
25 21 23 27 26 21 22 23 19 15 22 20 18 20 16 17 18 10 10 11 9 9 11 6 6 8 9 4 4 7 9 11 9 12 19 27 24 24 26 18 18 17 15 10 15
30 32 19 15 30 28 19 13 23 18 12 10 13 20 16 13 14 16 15 11 10 13 11 13 12 12 13 16 21 21 22 22 21 19 24 26 26 21 18 22 23 20 18 19 17
38 30 24 24 15 20 28 25 18 16 18 13 15 9 16 16 13 5 11 10 11 7 6 9 7 10 13 16 18 25 31 30 28 27 28 28 35 31 28 25 25 22 25 26 21
36 34 31 20 23 19 23 27 24 20 18 18 12 10 12 13 14 16 16 14 14 10 11 8 8 4 6 5 8 18 25 35 35 29 26 29 28 23 27 28 28 25 22 25 26

GFSSW_700_spd_093.txt.gz
Wind_Speed
26 26 27 27 28 29 28 29 29 28 29 28 28 27 28 26 24 23 22 20 17 19 17 20 17 15 14 15 16 14 18 21 17 16 16 14 14 12 16 17 16 17 19 18 27
27 28 27 28 28 28 28 28 28 29 29 28 28 27 28 28 26 25 26 23 21 19 21 21 20 17 16 15 18 19 17 18 15 15 14 12 15 16 16 17 16 15 15 19 24
27 27 27 28 29 29 29 30 29 29 31 30 30 28 28 27 26 19 25 24 24 22 22 23 21 18 18 17 19 20 26 18 17 17 16 16 19 18 19 19 15 18 21 16 24
27 27 28 27 27 28 28 29 30 30 29 30 28 27 28 27 13 23 19 16 19 22 21 22 21 20 20 21 21 27 24 22 21 20 18 20 19 22 21 20 18 19 24 21 21
29 29 29 29 28 27 28 28 28 27 27 27 27 26 25 26 23 29 24 21 16 16 14 15 18 19 23 18 20 25 25 23 21 21 22 22 24 25 25 20 18 19 19 19 20
30 31 30 29 29 28 28 29 28 27 26 26 26 26 26 27 22 23 25 26 26 24 19 17 17 18 18 20 24 21 21 23 22 24 23 23 24 23 24 17 17 20 17 19 19
31 30 31 30 28 28 28 28 29 27 27 27 26 27 28 21 22 22 24 22 24 30 31 23 21 19 16 20 22 24 27 26 27 26 25 20 27 27 22 19 17 17 16 18 13
32 32 31 30 29 29 28 29 29 28 27 27 27 28 31 23 22 21 24 25 25 26 29 31 21 25 24 20 19 18 22 29 22 20 19 20 25 18 14 14 13 16 14 17 18
32 32 32 31 30 30 29 29 30 29 28 27 27 25 28 20 17 21 26 27 27 27 30 28 33 26 22 24 25 23 28 24 21 17 13 16 16 10 10 13 13 13 14 15 17
34 33 33 32 32 31 30 29 31 31 30 28 28 22 12 8 12 21 19 20 24 26 32 35 27 25 29 29 31 28 25 25 23 19 16 20 25 20 20 18 16 15 15 15 17
34 33 32 34 33 33 31 29 29 29 32 23 18 28 22 23 22 23 23 20 21 19 28 26 29 38 33 31 32 27 26 23 19 15 15 20 23 23 23 21 20 17 16 16 15
34 32 31 32 32 31 30 27 27 29 37 30 29 31 25 24 28 23 26 22 21 21 20 24 36 31 28 29 29 31 30 29 25 22 17 20 26 24 22 23 21 20 17 15 15
32 30 30 28 30 29 25 27 24 26 33 39 28 27 27 26 30 26 29 25 21 22 23 27 24 22 31 30 31 32 30 27 27 22 18 19 29 27 25 24 22 21 20 17 17
31 29 26 24 25 26 22 22 19 21 18 22 20 14 19 21 24 26 29 31 24 30 25 29 26 25 20 33 30 32 27 23 25 24 23 20 22 20 16 15 18 18 18 17 19
30 28 25 23 22 19 27 13 14 11 6 6 7 11 12 11 8 12 16 24 32 26 21 30 22 29 29 27 26 29 21 22 23 24 23 26 19 23 19 20 17 14 16 20 20
29 27 24 23 21 21 18 13 10 6 14 7 7 6 8 10 9 10 10 15 18 31 27 27 19 20 28 24 21 16 15 15 18 22 21 23 25 19 21 16 11 10 7 18 19
27 26 22 21 15 19 15 12 9 13 7 13 8 9 10 10 10 11 9 13 10 20 33 28 27 18 16 23 18 22 13 8 6 13 14 18 21 29 6 8 10 10 6 12 16
21 24 20 19 16 18 17 12 18 12 20 3 5 13 11 9 10 9 12 12 13 14 14 30 28 31 21 20 19 25 26 12 11 9 12 25 12 24 14 18 14 14 11 12 16
19 18 17 16 17 19 16 25 20 20 15 12 12 12 15 10 7 9 12 14 9 7 11 8 18 8 30 30 23 20 25 23 24 21 11 8 14 12 12 13 8 8 11 11 15
17 16 19 16 18 18 19 34 18 17 6 10 13 10 17 12 9 10 13 10 7 3 7 4 6 5 15 15 24 34 14 19 21 15 12 16 20 17 3 12 10 4 13 12 15
17 17 13 15 13 19 27 25 21 11 11 9 11 12 11 5 8 9 9 6 6 2 1 3 8 8 8 12 12 21 30 20 18 22 10 9 7 8 8 6 9 9 6 11 14
17 18 14 11 21 20 24 19 19 21 17 15 14 11 11 8 6 5 7 4 9 3 3 4 4 9 11 5 6 5 18 26 21 18 21 22 17 7 4 2 2 3 3 5 9
22 18 16 15 18 23 17 19 21 22 18 18 20 14 10 7 5 6 5 7 10 4 6 4 6 9 6 10 10 10 12 13 17 16 20 14 10 12 11 7 8 10 7 5 5
21 18 20 21 23 17 19 20 20 22 23 19 21 21 17 16 13 9 7 5 7 5 11 11 9 12 10 4 1 7 12 12 10 14 18 24 22 24 21 22 20 17 11 5 7
28 26 15 10 24 23 18 13 21 22 16 15 25 25 22 22 21 22 20 16 9 11 7 7 13 14 18 19 17 16 15 17 20 20 21 19 20 19 18 16 18 20 18 15 12
34 29 21 20 13 16 23 23 18 16 23 16 17 15 17 24 20 8 17 14 15 10 9 11 11 12 17 17 19 24 27 28 28 27 28 26 28 21 24 28 29 28 22 23 18
32 29 20 14 20 19 17 23 22 16 13 20 15 16 16 15 18 18 16 14 12 11 8 9 8 7 14 10 10 15 21 22 26 30 31 31 25 22 23 23 23 25 26 26 23

GFSSW_700_spd_096.txt.gz
Wind_Speed
26 27 28 28 28 28 28 28 28 27 27 27 25 26 27 27 24 24 24 22 20 16 18 18 17 14 15 16 16 15 22 26 22 20 17 10 11 14 14 16 14 15 16 19 19
26 26 26 27 28 29 28 29 29 28 27 27 26 26 27 28 25 25 24 25 22 20 19 19 19 17 19 17 18 22 25 25 20 19 19 18 14 14 15 16 17 15 14 12 20
25 27 28 28 27 27 27 27 29 29 29 28 26 26 26 26 24 27 25 22 23 23 22 21 19 17 20 19 20 22 33 22 25 23 18 20 18 17 19 20 18 16 16 22 19
28 28 28 28 29 29 28 27 26 27 27 27 25 25 25 23 7 17 18 20 18 21 23 23 23 21 23 23 22 28 29 27 27 24 26 23 21 22 21 23 20 19 20 23 26
29 28 28 28 29 29 29 29 26 25 25 25 25 24 22 26 17 22 23 23 21 18 17 20 22 21 24 23 22 26 29 27 25 27 26 26 26 26 27 23 20 19 20 25 21
28 29 30 29 28 29 30 29 29 26 25 25 24 24 25 27 19 17 21 20 20 23 18 17 17 18 19 21 24 23 26 27 27 28 26 28 30 26 29 22 20 17 23 22 21
28 28 29 29 29 29 29 30 30 28 26 25 25 27 28 18 19 19 22 20 20 21 26 25 17 19 18 21 25 26 29 31 30 30 29 26 31 30 28 23 21 21 18 20 13
29 29 29 29 29 30 29 29 29 28 27 25 25 28 33 21 21 18 22 22 22 25 24 25 21 24 26 23 23 23 22 28 25 25 28 25 34 26 21 15 18 18 17 17 14
31 31 30 30 30 31 30 30 29 29 28 26 26 28 32 20 16 18 19 23 25 25 25 26 28 31 20 25 26 26 33 30 29 24 26 20 26 19 14 16 15 16 16 18 17
32 32 32 31 32 31 30 30 28 30 30 28 25 24 12 7 12 10 15 16 16 22 24 26 26 29 26 24 34 27 29 29 29 25 21 26 24 22 20 20 18 15 11 15 18
36 34 31 32 32 33 31 29 26 27 30 26 16 28 22 21 24 25 20 16 18 17 21 24 26 33 28 29 31 29 29 30 27 25 24 22 23 20 20 23 24 23 20 15 19
40 38 33 31 30 31 30 24 29 28 37 34 35 34 28 22 31 24 19 19 17 21 18 21 36 27 25 27 30 31 33 37 32 30 27 24 25 25 24 24 25 24 21 18 16
40 40 36 29 27 29 26 20 29 27 34 41 33 31 23 24 29 26 25 25 23 23 23 26 24 25 24 30 32 34 36 31 31 27 30 31 29 26 28 26 28 27 23 20 17
40 39 36 28 25 25 14 23 22 20 17 32 21 21 17 20 24 24 27 25 23 29 24 29 24 24 27 29 29 36 30 29 28 25 28 27 23 28 26 24 24 24 23 22 21
39 37 35 27 21 22 17 27 14 10 5 4 13 12 11 11 8 10 13 25 30 27 20 35 27 26 29 31 21 31 30 25 25 26 27 34 27 25 20 19 20 20 20 20 21
35 34 34 24 21 15 20 16 11 5 9 12 13 11 15 14 14 9 9 13 14 27 29 30 24 26 30 27 30 22 24 21 20 21 22 30 33 28 28 27 18 15 14 18 21
27 23 27 23 19 16 22 14 8 12 9 16 19 13 13 12 12 15 10 13 13 14 25 29 31 27 21 21 23 24 17 12 12 9 11 21 25 29 22 19 7 16 9 8 20
28 23 22 22 15 16 14 11 16 16 20 15 7 7 12 11 14 15 16 15 18 17 15 17 23 31 26 27 24 30 28 14 12 10 10 10 13 27 17 18 12 9 8 10 17
23 21 19 14 11 16 15 23 20 21 16 14 13 16 16 15 13 14 16 17 14 16 13 11 23 20 33 26 25 29 32 30 29 17 2 11 17 25 12 10 15 9 9 12 13
20 19 17 12 12 14 20 32 22 22 18 13 14 10 15 17 19 16 16 14 11 10 11 6 9 11 10 32 26 21 19 22 23 14 14 10 7 11 11 11 10 8 11 14 13
16 18 10 11 16 17 29 26 19 24 10 11 12 17 20 12 8 16 11 9 12 5 10 6 8 5 10 15 25 27 31 28 20 23 10 8 5 5 10 5 7 2 5 10 8
16 17 11 12 17 20 27 19 19 19 17 15 18 14 14 11 7 9 2 3 3 10 7 4 6 8 14 9 10 9 26 31 24 17 18 21 14 9 0 3 4 5 6 2 7
19 19 15 15 18 19 17 19 21 18 20 18 16 20 19 15 7 10 6 5 3 1 6 7 4 9 10 8 10 11 11 15 31 24 23 10 11 16 18 8 3 3 3 6 6
21 16 18 20 21 19 18 22 18 17 19 16 18 18 22 20 17 10 4 4 6 4 8 9 8 10 10 7 7 6 12 7 8 11 19 23 20 16 3 12 12 11 11 6 4
23 26 13 9 15 20 21 14 14 17 17 17 21 22 21 20 21 22 20 18 15 9 7 5 10 13 20 16 14 14 13 12 12 12 12 15 18 17 11 11 11 9 8 9 6
27 26 18 20 16 17 18 21 19 16 16 18 19 18 25 26 23 24 18 18 15 10 10 8 14 11 18 19 20 21 21 21 21 20 21 23 28 24 22 19 16 19 21 22 18
27 24 25 25 14 19 16 15 19 17 17 19 21 19 19 20 18 20 20 12 12 7 11 10 8 8 15 13 15 19 22 21 22 23 24 29 27 21 20 17 20 20 18 14 17

GFSSW_700_spd_099.txt.gz
Wind_Speed
22 22 22 23 24 25 26 26 26 26 25 25 25 25 27 28 26 26 24 22 19 18 18 17 15 14 16 16 15 11 20 28 22 20 14 16 19 11 16 14 10 13 14 18 22
23 23 23 23 23 23 24 25 26 25 25 25 26 26 27 28 27 24 23 22 22 21 21 20 17 17 20 18 18 22 25 31 21 20 27 28 21 16 12 14 14 14 15 19 17
24 26 26 26 25 25 25 25 25 25 25 25 25 25 26 28 25 26 25 21 22 20 22 22 21 22 23 21 22 20 30 24 24 22 22 24 24 16 19 22 18 18 11 16 23
23 24 25 25 25 25 25 25 25 25 24 25 26 24 24 24 14 15 17 16 15 17 20 22 24 26 23 24 21 25 25 27 27 26 27 32 24 26 20 24 24 23 21 23 25
24 25 25 26 26 26 26 25 25 24 23 24 25 25 24 27 14 20 22 24 22 21 17 17 23 25 27 26 21 25 26 27 26 27 30 26 32 32 26 27 27 25 24 22 27
25 26 26 26 26 26 26 26 25 24 23 23 26 25 27 27 18 23 24 24 20 22 23 20 19 22 21 19 22 24 26 28 30 32 30 31 36 31 31 26 29 23 18 23 28
26 27 28 28 27 28 27 26 26 26 25 24 26 29 32 19 22 21 23 18 18 19 24 25 16 20 18 24 23 26 32 33 35 35 34 29 34 39 27 23 24 26 22 26 30
26 27 28 28 29 29 30 29 28 29 26 27 26 31 37 20 26 21 23 21 19 21 23 23 24 25 26 27 27 25 25 28 33 32 29 24 40 26 21 20 26 30 27 28 28
29 30 30 29 29 31 32 30 28 32 29 30 27 30 32 19 18 20 24 25 24 23 24 24 28 32 31 28 29 30 32 31 32 23 24 28 38 35 19 23 20 15 21 21 22
32 33 32 32 30 32 33 32 29 33 33 32 29 29 21 15 19 19 14 13 15 15 20 26 29 31 34 28 29 27 36 36 36 27 23 26 31 30 27 19 22 24 25 19 20
34 35 36 35 32 33 33 32 31 32 35 33 27 29 26 19 21 20 16 18 16 20 20 21 30 38 33 35 39 35 27 33 32 27 23 28 34 20 27 23 23 19 28 24 19
38 40 40 39 35 31 33 28 26 32 39 34 32 34 30 23 36 28 24 27 21 24 19 20 36 29 28 27 26 26 30 33 36 31 28 33 36 26 25 28 28 26 21 21 27
39 40 41 42 39 33 29 23 22 31 32 41 35 35 33 30 36 28 29 30 27 26 22 28 32 20 26 23 27 33 35 33 35 30 29 36 43 32 25 24 28 30 31 25 29
40 38 38 41 40 32 21 16 18 22 18 38 33 31 27 27 30 27 29 32 33 36 24 29 29 26 25 28 24 34 29 31 32 24 22 23 29 38 31 21 28 25 25 28 31
42 32 32 39 41 28 17 21 19 11 5 8 14 11 10 17 13 13 12 27 36 35 24 45 18 24 32 33 29 33 20 26 29 25 30 26 25 30 32 29 27 25 24 26 33
30 23 26 29 35 21 22 27 6 7 8 13 15 18 17 17 19 6 13 15 25 30 33 37 29 28 31 28 25 24 21 18 17 18 15 24 24 16 26 30 26 24 26 27 36
30 31 34 34 31 17 10 17 10 9 8 16 17 19 19 17 21 19 16 15 22 19 31 36 42 35 30 28 24 25 24 3 3 5 6 18 21 28 33 26 22 23 21 26 31
32 36 38 29 17 18 18 15 12 11 24 17 22 7 15 17 22 15 23 20 18 21 11 21 11 36 35 36 25 23 21 13 8 5 4 21 10 14 18 23 21 20 23 22 18
24 21 22 16 15 15 18 13 13 21 8 16 19 10 12 7 11 12 23 25 23 19 21 10 14 12 19 28 26 29 28 26 25 20 1 9 18 21 7 13 5 14 10 14 17
19 16 14 13 14 16 20 29 28 21 16 11 16 10 14 13 12 13 15 11 23 20 31 14 7 16 16 26 30 29 21 20 22 13 7 8 13 7 12 12 16 12 11 15 16
19 16 4 8 13 21 29 30 23 22 12 15 15 18 12 15 8 11 11 19 11 8 15 14 9 12 3 11 30 27 28 18 7 21 5 2 7 6 16 4 9 9 7 11 17
14 15 9 11 17 22 29 26 25 15 9 14 18 21 14 13 12 11 5 12 10 4 2 9 6 3 11 7 8 32 27 22 20 13 15 23 16 7 11 14 4 18 4 6 7
13 16 15 21 17 16 15 16 12 15 11 13 15 17 13 14 11 9 6 4 11 10 8 3 3 3 5 11 2 8 13 16 26 30 25 7 4 7 10 10 12 10 4 2 11
14 11 11 16 15 12 16 22 18 11 16 16 16 12 15 16 17 12 11 9 13 18 13 7 2 6 4 3 6 13 6 8 5 18 25 26 23 8 18 11 8 8 15 7 11
16 17 16 13 10 13 16 21 19 13 16 13 17 16 15 18 17 19 13 17 15 16 18 11 6 9 7 6 9 13 13 10 8 11 6 19 16 6 8 21 12 13 7 10 8
18 20 20 23 20 19 15 14 16 14 14 12 13 16 14 19 20 23 16 15 19 4 8 5 8 11 20 12 12 22 21 18 16 16 12 13 21 16 11 11 15 15 14 9 17
23 18 22 24 22 19 15 15 13 10 14 14 11 17 18 19 22 20 20 20 21 8 6 10 6 3 7 10 14 14 21 20 23 20 16 18 21 25 18 13 14 20 18 19 13

GFSSW_700_spd_102.txt.gz
Wind_Speed
20 21 21 21 21 22 22 23 23 22 23 24 25 26 28 28 24 25 24 21 21 23 21 18 17 18 18 19 20 21 24 31 29 20 17 10 10 4 14 16 13 9 12 16 19
20 21 21 22 21 22 23 23 22 22 23 24 24 25 27 29 27 23 23 21 21 24 22 22 19 21 23 21 24 28 32 31 24 20 22 19 14 13 20 16 16 15 17 15 15
20 19 20 20 20 20 20 21 22 22 23 25 26 25 26 26 26 22 25 22 21 24 24 26 25 27 27 26 27 33 37 28 24 20 19 20 20 18 22 19 15 16 20 21 22
18 19 19 20 20 20 20 21 21 21 22 24 26 25 27 26 15 13 13 13 17 19 22 25 27 30 30 33 27 36 32 30 26 20 18 21 20 24 22 25 21 18 21 26 24
18 19 21 21 21 21 20 21 21 22 23 23 25 25 27 28 17 20 25 24 21 20 18 19 23 26 32 31 29 36 33 28 25 21 20 23 30 32 33 28 27 27 22 28 31
19 20 21 22 23 24 24 24 22 23 25 26 27 26 28 29 20 25 24 22 23 26 26 27 20 20 27 31 33 32 28 26 24 25 31 33 33 31 31 28 26 29 26 25 25
22 23 23 23 23 24 25 25 24 26 28 27 30 32 34 18 21 25 26 21 21 22 24 25 26 22 26 27 28 24 31 32 33 31 34 33 39 36 27 27 29 25 23 24 27
24 24 26 26 26 27 28 27 24 28 30 29 32 34 38 21 25 23 25 24 23 24 21 20 27 32 31 28 27 25 31 36 33 31 31 30 43 34 28 28 24 23 23 25 30
26 27 28 29 28 28 30 29 28 29 30 32 33 34 37 21 18 18 26 28 29 27 25 23 26 34 33 31 30 32 37 36 35 29 28 24 37 28 25 29 29 20 19 18 23
27 28 29 30 31 32 35 32 29 31 34 32 34 33 28 20 28 25 21 20 22 22 25 29 31 35 37 36 37 29 35 40 36 28 25 30 35 26 22 22 25 20 20 22 23
27 29 30 31 32 33 37 36 34 35 36 35 32 37 34 20 21 23 16 22 24 23 23 21 34 44 39 37 39 40 35 38 37 29 25 28 33 32 26 23 18 24 27 22 29
30 31 33 35 35 32 34 35 36 35 43 37 37 40 36 28 38 33 27 29 28 27 21 25 39 34 32 31 33 37 41 47 40 32 30 34 41 36 34 30 22 20 24 26 22
34 35 36 37 35 32 28 34 33 36 41 52 40 41 38 38 43 39 35 37 37 34 29 33 27 22 30 30 32 35 36 36 33 21 25 28 40 35 38 39 29 22 23 30 33
35 36 37 38 34 28 21 30 31 28 20 53 45 42 41 38 42 43 35 40 45 44 30 32 34 32 20 27 27 34 27 33 32 29 24 19 23 31 36 37 38 26 29 28 27
37 38 38 38 38 23 20 28 24 19 6 17 19 16 17 28 29 27 21 33 46 47 32 43 14 28 36 36 23 32 18 25 29 33 27 24 18 18 12 27 35 31 27 22 24
35 35 34 30 32 24 28 20 23 9 10 14 6 11 21 18 19 15 12 19 28 39 36 40 28 20 21 27 29 27 28 32 30 32 18 14 15 22 12 20 26 32 30 31 25
32 29 27 25 21 21 24 16 17 15 9 19 19 14 11 24 21 24 19 20 18 20 38 40 45 42 32 27 27 25 19 8 7 5 6 12 14 35 27 29 30 24 27 26 29
29 25 17 19 18 13 20 22 15 17 37 19 28 21 14 22 28 24 25 22 17 20 4 19 16 37 37 44 34 35 31 16 8 5 5 20 8 7 9 13 19 17 24 24 18
26 21 12 11 11 10 19 23 10 12 3 18 14 6 15 11 13 11 24 26 24 17 22 9 13 10 14 37 39 40 26 25 25 13 3 6 9 14 20 12 7 1 17 17 17
23 18 11 10 10 10 18 25 24 20 23 19 16 9 18 21 14 4 2 8 18 15 22 21 24 17 14 14 29 39 29 19 16 8 6 6 12 14 15 9 1 12 7 10 23
20 18 8 8 11 14 24 27 24 21 21 20 15 22 15 18 20 16 10 10 9 10 10 13 20 18 14 16 26 29 37 16 20 15 10 1 6 14 18 12 7 1 10 8 6
18 16 6 6 10 16 23 23 22 22 15 21 16 17 11 18 15 10 14 16 25 24 3 4 8 14 19 7 4 23 28 30 13 4 4 3 11 15 7 4 23 12 7 11 17
15 15 8 9 13 20 16 17 18 19 9 10 13 14 15 12 10 14 8 11 14 21 17 12 3 7 11 8 5 12 8 17 22 20 16 4 5 6 7 6 8 18 18 9 15
12 8 6 2 5 9 12 16 16 17 16 12 17 11 13 10 9 9 12 8 12 20 16 12 10 10 6 5 3 4 2 5 7 7 9 24 23 10 4 13 11 2 8 14 11
14 13 10 9 11 12 13 14 15 12 8 11 11 7 10 16 18 15 11 9 9 9 6 12 6 11 3 2 0 3 7 3 7 2 4 6 6 4 3 4 8 4 9 11 15
19 18 16 17 15 16 15 14 13 8 12 13 15 15 10 12 14 16 15 13 13 5 6 1 7 11 5 5 3 12 11 11 11 12 7 8 6 4 1 8 7 5 5 10 12
19 17 20 19 16 17 15 14 17 22 6 6 8 11 13 14 18 16 16 17 16 14 11 5 9 11 2 8 8 9 7 5 7 12 12 14 10 4 4 9 6 8 15 15 7

GFSSW_700_spd_105.txt.gz
Wind_Speed
20 20 19 19 21 21 22 22 22 23 24 25 26 25 28 28 25 26 23 22 22 23 23 22 22 23 24 23 24 25 29 33 31 27 20 13 12 6 5 4 9 14 15 16 16
18 19 18 18 18 19 20 21 22 23 23 25 27 26 27 29 26 22 25 23 23 23 24 23 23 26 27 25 28 29 37 35 29 24 22 18 21 20 16 12 11 10 15 19 18
17 17 17 18 17 18 19 19 20 21 22 23 25 25 27 28 27 22 25 23 23 24 25 27 28 30 31 29 32 35 43 31 30 25 22 26 27 19 19 22 14 14 17 18 20
17 17 17 17 19 19 19 19 20 20 22 23 24 24 25 25 16 13 16 12 16 22 26 28 30 34 36 36 33 40 40 32 32 28 29 28 25 26 21 28 17 18 21 25 23
16 17 18 20 19 19 21 20 21 23 24 24 25 24 25 27 17 22 27 21 18 20 21 25 29 31 37 37 35 42 40 35 33 32 31 27 30 27 33 28 22 21 26 27 27
18 20 21 21 23 22 23 22 22 25 26 27 27 27 29 29 19 24 25 24 26 27 26 26 22 24 30 32 36 37 31 35 35 34 33 32 32 30 36 32 26 27 28 27 29
21 22 22 23 23 24 25 24 25 27 28 28 31 32 34 21 25 25 27 23 24 26 27 26 29 33 30 30 33 33 39 37 35 32 36 31 41 41 32 29 29 27 31 33 31
23 23 25 26 27 27 27 25 26 28 29 30 32 36 40 29 28 27 31 27 27 29 28 22 25 32 35 32 27 29 35 36 35 33 36 31 53 38 30 30 31 34 31 27 26
24 26 27 29 29 30 31 30 30 30 31 32 33 34 41 24 21 19 23 26 30 30 30 25 23 30 33 32 31 35 33 29 27 33 29 31 44 39 30 26 24 27 26 24 24
27 28 29 30 31 33 34 34 32 34 35 36 36 34 30 11 20 24 27 24 22 28 33 33 32 35 36 34 36 33 34 37 39 35 32 36 44 36 29 32 29 27 25 23 20
28 30 31 31 32 34 37 38 35 36 37 36 37 40 39 37 36 33 30 26 23 27 31 30 34 49 45 41 41 42 30 34 34 27 32 38 43 42 37 34 33 26 22 26 24
31 32 32 32 33 34 35 37 35 34 45 34 39 43 42 39 48 38 33 33 30 31 28 29 42 38 37 38 39 39 41 44 39 36 32 38 48 42 40 37 33 32 25 21 22
31 33 34 34 34 34 34 33 30 31 38 54 37 43 43 41 47 45 35 39 38 35 33 34 39 21 36 36 39 41 42 36 35 31 32 32 43 38 35 36 34 35 32 27 23
33 35 35 36 33 31 31 22 20 22 21 50 34 28 26 25 41 47 42 42 48 50 41 37 41 35 17 32 36 39 36 32 31 27 17 18 19 34 32 33 34 34 37 34 27
34 34 35 37 36 29 32 19 14 13 6 19 20 14 19 23 27 29 35 41 49 54 33 55 39 26 39 45 24 35 23 26 24 26 29 33 20 14 11 28 31 25 26 40 33
33 33 34 34 31 28 30 20 10 7 10 10 10 17 20 17 24 20 17 25 29 43 43 49 21 31 26 23 35 32 21 20 22 20 13 26 21 19 17 20 23 30 27 30 40
32 31 29 28 22 21 24 18 6 11 7 14 17 22 20 26 26 23 17 20 19 17 32 39 43 34 23 17 20 22 17 3 3 6 8 10 19 32 10 25 17 23 18 23 32
31 26 20 22 20 21 17 8 8 11 16 32 32 27 14 17 15 16 20 23 22 17 8 23 19 40 40 35 24 24 23 10 7 4 3 10 9 12 10 8 15 19 17 13 22
26 18 20 18 19 15 11 9 11 19 10 20 29 11 17 21 15 10 10 16 22 27 12 8 12 11 13 30 43 38 21 32 26 14 2 12 16 21 22 17 18 11 3 3 10
19 15 15 14 10 11 14 16 21 20 25 24 21 12 27 28 21 21 9 8 18 12 23 12 7 14 11 6 19 40 34 24 14 10 14 6 10 14 12 14 20 6 10 12 8
15 13 11 9 10 10 15 22 25 19 16 21 25 25 24 15 19 21 9 14 9 15 4 23 15 10 12 9 14 24 32 22 27 19 9 6 7 14 16 22 15 12 9 13 4
12 9 5 9 8 12 17 25 19 18 16 23 15 13 14 20 12 11 10 17 21 19 5 5 6 2 15 13 5 13 27 39 19 8 14 11 13 13 8 10 7 10 17 9 14
11 7 6 7 5 9 10 12 16 17 17 16 12 15 16 17 9 12 18 17 19 17 9 5 5 4 4 13 16 3 8 25 38 22 18 11 5 13 16 17 14 17 16 2 13
10 4 4 5 4 5 10 11 11 12 12 7 11 9 11 10 11 12 19 16 16 19 17 12 13 8 6 12 3 3 7 10 18 16 6 12 10 16 16 14 18 16 6 14 9
10 8 8 6 9 10 11 12 14 21 7 9 7 9 15 15 14 10 15 12 7 11 15 10 9 14 9 9 3 10 6 5 5 4 5 3 10 17 13 8 6 10 3 5 18
15 13 11 12 12 14 11 12 15 14 15 8 12 8 10 12 14 15 14 15 7 7 11 10 9 11 20 8 1 6 1 7 6 3 5 2 3 15 7 11 3 9 2 5 8
15 14 14 15 14 13 11 10 12 12 6 14 12 15 14 12 14 17 16 18 14 13 10 7 6 9 12 20 13 3 6 4 11 6 8 12 5 9 14 13 10 6 6 8 9

GFSSW_700_spd_108.txt.gz
Wind_Speed
20 20 19 19 20 21 21 22 23 23 23 24 25 26 28 27 24 24 25 24 24 24 24 25 24 25 25 25 26 27 30 34 33 28 23 13 16 14 13 16 17 11 11 15 18
19 19 19 18 18 18 19 20 21 22 23 23 23 24 26 28 26 22 24 24 23 24 23 25 26 28 30 29 30 31 38 39 31 27 23 23 20 22 20 17 19 15 10 8 11
16 17 17 18 18 18 19 20 21 23 25 24 23 22 23 25 25 22 23 20 20 22 24 25 29 32 33 31 34 36 45 36 31 27 27 28 24 27 31 29 22 19 16 13 14
15 16 17 18 18 19 20 21 22 24 25 27 25 24 23 22 16 16 16 12 13 19 21 25 30 34 36 37 35 39 43 36 32 30 31 29 30 33 32 32 27 25 21 21 19
15 17 18 19 20 21 22 23 24 26 26 27 28 28 27 24 14 24 24 23 20 20 18 21 27 31 36 37 36 42 43 39 35 33 34 31 35 36 37 29 28 27 23 22 23
18 19 20 20 21 22 22 23 26 27 28 30 31 30 31 30 20 19 20 20 24 26 25 24 20 24 32 33 35 40 42 39 41 38 36 37 38 36 37 32 32 30 29 26 26
19 21 21 22 23 24 25 25 27 30 29 30 32 33 36 26 25 25 28 24 23 23 29 32 29 30 30 32 31 32 37 38 40 33 36 33 46 44 33 31 34 32 27 28 29
21 21 22 23 25 26 26 26 28 31 31 32 34 36 40 30 30 31 30 28 29 27 28 23 27 32 34 34 28 25 31 37 36 37 38 30 55 39 29 27 30 29 27 28 29
21 22 24 26 29 31 32 30 30 32 34 34 36 37 41 24 16 22 25 22 21 29 31 29 30 32 32 32 30 34 35 30 30 28 26 28 49 38 32 29 30 29 27 28 28
24 25 27 29 31 32 34 33 33 34 35 37 38 36 28 14 7 20 33 29 22 23 27 32 32 35 39 32 32 25 32 35 37 31 25 29 43 40 35 33 32 30 28 28 28
26 29 30 32 34 36 36 34 34 40 36 35 37 41 41 37 41 38 33 34 30 26 25 27 35 51 47 42 39 38 32 28 31 27 24 31 43 40 36 36 34 32 32 33 29
28 30 30 31 32 35 37 38 39 40 52 40 41 43 43 40 48 39 38 39 36 33 27 29 40 39 38 38 40 40 39 44 40 35 30 36 51 44 43 40 37 37 36 33 32
30 31 32 30 32 35 36 36 37 39 44 59 40 41 34 32 41 42 36 44 43 47 42 38 44 16 32 35 35 39 44 38 36 33 33 32 52 45 37 35 29 28 31 32 34
30 32 34 32 33 35 37 33 31 33 29 45 14 6 13 20 29 25 18 27 43 49 46 39 45 43 29 25 27 39 36 36 34 27 20 8 16 24 28 31 26 22 23 25 33
31 32 33 36 36 35 33 26 22 22 5 19 13 10 8 18 26 25 21 20 33 41 32 57 37 30 35 45 30 33 26 27 26 24 24 26 15 9 3 7 10 13 18 21 29
31 32 34 35 35 30 24 20 18 3 7 13 22 29 35 28 28 31 20 21 27 26 39 44 39 28 39 34 32 35 17 8 8 12 8 21 17 6 1 4 7 21 22 19 25
30 32 34 34 29 22 20 19 4 4 10 13 26 36 31 23 25 24 19 23 23 15 22 37 43 30 26 22 24 27 20 3 3 6 6 7 16 29 6 6 20 19 21 21 23
29 30 29 25 19 17 17 13 2 7 13 28 26 37 19 21 23 24 15 17 19 17 13 15 13 39 34 29 25 26 35 13 7 4 4 14 10 13 2 5 12 20 22 23 23
27 25 20 16 14 12 12 8 4 12 14 25 28 21 26 29 29 24 13 13 5 18 8 6 10 12 23 45 31 20 33 33 2 3 1 8 7 15 14 20 22 21 18 24 26
23 17 14 13 11 10 10 9 13 17 18 19 23 13 30 35 27 29 14 16 8 2 15 12 7 8 7 19 37 36 26 13 13 6 7 4 6 6 11 8 16 18 19 22 27
17 14 12 9 8 8 9 13 23 11 13 15 21 23 24 23 23 23 25 11 25 13 3 15 16 11 9 8 12 29 33 22 21 10 5 2 6 10 17 20 25 16 14 19 26
12 10 8 8 9 7 9 13 16 11 11 18 18 13 18 24 18 15 24 26 32 24 16 2 8 16 22 11 7 15 27 32 16 13 15 11 12 5 12 16 18 16 16 16 12
10 10 9 9 6 7 6 7 10 13 14 12 12 11 13 17 10 14 20 26 29 28 18 10 1 5 15 14 5 2 7 20 34 24 16 7 6 16 15 18 20 20 16 17 15
9 6 6 5 8 8 7 6 9 11 11 5 12 9 15 13 12 12 17 17 12 24 21 10 13 14 5 5 7 3 6 1 20 24 27 13 9 9 11 12 11 13 15 16 13
10 7 10 7 14 12 9 9 12 16 13 9 6 11 10 13 16 13 19 20 11 9 16 13 15 14 14 17 8 7 3 10 3 19 20 13 14 14 15 19 11 10 8 5 10
14 12 11 11 13 13 10 12 13 13 13 12 17 15 15 11 13 20 19 18 17 13 11 11 8 10 13 18 17 17 6 6 4 4 4 9 13 10 8 13 8 2 2 3 6
15 14 14 12 11 13 12 10 10 13 6 11 16 20 17 14 15 14 17 18 18 14 9 7 8 9 3 12 24 3 4 3 0 1 3 5 5 8 8 11 6 4 5 4 6

GFSSW_700_spd_111.txt.gz
Wind_Speed
20 20 19 18 19 19 21 22 22 22 23 23 23 24 25 26 26 24 24 23 22 25 24 23 25 25 26 27 26 26 31 32 31 29 29 16 16 19 18 19 18 17 16 16 18
17 17 16 16 16 18 19 20 21 22 22 22 22 21 23 23 21 24 24 23 22 23 24 24 26 27 29 30 30 31 38 40 31 28 27 26 21 21 22 23 19 17 15 18 19
14 13 14 14 15 16 18 19 22 23 23 23 22 22 23 22 20 19 17 15 16 19 22 26 28 30 32 33 34 36 44 39 33 29 28 30 28 24 25 31 24 21 21 19 19
11 12 13 14 15 17 19 21 23 25 26 26 25 24 24 22 16 17 19 18 14 14 15 21 28 31 34 36 35 40 42 38 33 30 32 32 31 31 31 30 29 26 26 26 24
12 13 14 15 17 17 17 20 23 25 26 28 28 27 28 25 21 24 21 21 20 21 20 18 22 26 33 35 35 40 40 38 35 33 34 33 35 33 39 28 30 34 31 32 30
14 15 16 17 17 17 17 20 23 24 26 28 30 30 30 29 24 22 23 22 21 19 24 26 21 22 29 32 34 35 34 38 37 36 38 39 39 38 41 29 30 28 30 31 32
14 15 16 17 18 19 20 23 25 26 27 28 30 32 33 27 26 28 29 26 26 26 24 24 29 29 28 31 31 34 37 37 37 34 34 33 46 47 35 32 33 30 27 29 30
15 16 18 19 21 21 24 27 29 30 31 32 31 33 35 34 25 22 22 16 17 20 29 23 25 31 35 34 30 27 30 27 18 23 29 29 54 22 18 25 25 24 25 24 24
17 17 20 22 24 25 29 32 33 33 33 33 35 36 31 14 13 17 23 18 20 25 19 22 30 31 31 33 32 31 29 25 24 17 18 24 40 30 25 27 26 26 26 25 25
19 19 22 27 29 31 31 32 33 34 34 35 32 32 22 29 37 32 31 38 40 29 26 22 27 38 40 35 32 20 26 32 32 20 22 26 38 31 28 28 29 31 31 29 27
19 21 25 29 33 35 34 33 33 37 30 34 34 39 39 39 40 37 34 37 38 35 33 27 27 45 43 43 43 37 29 29 22 13 18 26 36 36 34 36 34 32 31 31 29
21 23 27 29 32 34 37 36 35 38 47 37 35 32 35 39 40 31 31 35 36 39 36 32 41 38 35 37 39 40 39 45 33 33 28 34 45 40 41 39 36 33 33 33 33
23 25 28 30 31 32 35 37 38 40 39 31 16 11 15 19 25 18 11 19 29 37 36 39 53 29 31 35 37 38 41 37 35 21 25 32 50 39 36 30 29 29 26 28 30
24 27 29 31 31 30 34 35 35 35 26 13 15 12 16 25 26 15 20 22 25 24 14 28 50 44 31 33 28 32 32 30 28 20 19 12 17 12 12 23 23 18 21 24 27
25 28 31 32 32 32 32 29 26 26 5 16 10 17 19 29 33 36 26 27 33 31 17 36 25 26 43 47 26 25 18 19 18 23 19 25 14 11 6 11 5 13 18 19 23
26 30 31 31 32 30 26 21 20 6 5 12 21 29 29 28 19 25 24 26 27 24 29 37 32 25 34 35 39 34 17 11 11 15 10 23 20 9 13 10 17 9 11 13 12
27 30 31 31 29 25 18 15 5 2 15 14 28 24 28 26 26 28 26 17 21 15 21 26 28 32 29 29 26 28 20 8 8 7 9 9 19 25 10 12 10 12 9 13 16
27 30 29 29 25 19 13 11 2 7 12 20 24 27 20 21 33 36 35 25 13 22 24 15 13 21 36 31 29 33 33 14 9 7 8 13 12 12 5 23 14 10 15 16 14
26 28 27 24 19 15 10 4 3 10 13 20 24 20 26 23 25 28 30 22 27 33 9 8 11 12 15 39 29 27 35 33 7 5 4 10 17 13 15 18 15 15 14 12 16
24 26 23 19 15 11 6 3 6 11 11 13 11 15 22 28 22 29 16 23 34 34 30 10 9 9 5 20 33 23 33 19 16 9 7 5 6 7 18 19 19 16 13 15 25
23 22 19 14 12 8 5 4 10 4 10 9 15 19 18 21 22 17 23 35 28 37 38 17 7 8 8 15 31 35 21 23 22 13 10 9 7 14 12 15 14 16 16 18 19
21 17 14 11 10 7 5 6 7 6 9 13 12 13 15 21 20 13 21 24 28 30 39 19 5 15 19 12 11 27 38 28 23 18 18 11 8 10 14 19 16 13 14 14 18
19 17 15 11 8 7 5 3 6 6 11 9 7 11 17 18 15 19 21 28 24 24 30 32 8 7 11 15 5 10 9 29 32 15 21 12 10 17 15 9 10 9 8 11 15
16 11 10 9 10 8 7 6 7 6 8 11 10 9 17 17 12 18 22 24 23 10 20 27 17 16 3 3 5 10 6 7 23 27 30 17 13 13 18 18 12 7 9 12 12
15 13 11 8 12 11 10 8 10 10 6 9 8 12 16 20 23 13 23 25 21 16 16 19 11 23 14 15 9 5 3 7 9 20 23 32 25 19 16 13 10 10 9 7 7
14 14 12 11 12 12 12 10 12 13 13 12 12 15 13 17 16 27 27 23 28 27 21 12 9 16 6 15 13 4 2 3 6 6 10 15 20 22 20 17 12 9 6 5 3
15 16 15 12 12 12 13 13 11 13 11 7 14 18 15 17 20 22 22 23 27 27 22 18 13 18 7 16 6 10 4 5 7 4 5 8 13 18 18 18 15 12 8 6 4

GFSSW_700_spd_114.txt.gz
Wind_Speed
17 18 17 18 17 17 17 17 18 18 18 18 19 20 23 22 20 21 21 23 22 24 25 23 22 24 25 28 28 27 25 29 26 22 20 16 12 21 22 17 19 22 24 27 25
16 15 15 14 15 15 16 17 18 18 18 17 18 18 21 20 19 18 21 20 22 21 22 24 24 25 28 28 32 32 29 31 24 22 19 14 13 14 21 19 17 20 23 26 28
13 13 12 12 12 13 15 16 17 17 17 18 19 19 21 21 20 14 11 12 12 14 14 20 26 27 30 28 31 33 39 25 25 28 27 24 22 19 21 22 20 19 17 24 26
12 12 12 11 11 13 15 16 17 18 20 20 19 20 20 19 14 21 22 23 22 20 17 14 18 27 31 30 31 35 30 32 28 29 32 32 25 25 25 25 23 22 27 26 25
12 13 12 12 11 13 15 16 17 19 21 23 23 23 24 22 22 20 19 19 18 18 21 22 20 17 24 21 26 33 32 28 28 34 33 33 35 32 31 25 29 33 35 33 29
13 14 14 12 12 14 16 18 19 22 24 25 26 26 26 26 22 21 22 22 22 20 21 22 26 23 24 25 26 20 20 24 26 27 30 33 40 33 30 29 29 32 33 36 37
15 15 13 13 12 14 17 19 22 24 26 28 29 29 26 26 25 26 24 18 21 25 25 25 26 28 22 22 23 24 27 27 28 27 30 26 40 38 32 31 33 32 33 32 32
14 15 15 15 14 15 19 22 24 26 27 28 29 28 30 17 9 12 14 16 15 16 12 13 26 30 32 33 29 22 24 27 20 17 20 23 41 9 12 14 23 24 22 29 31
14 16 16 16 15 18 23 26 27 28 26 27 28 24 15 16 19 12 26 32 25 24 23 23 18 28 31 25 26 27 34 27 23 16 16 23 30 19 17 20 23 23 23 23 23
14 17 17 18 20 21 25 27 28 27 27 25 26 26 18 24 34 38 34 32 32 32 33 29 26 28 28 28 37 24 29 27 30 25 23 27 33 25 22 19 18 18 20 22 24
14 16 17 20 24 25 25 27 28 31 27 26 27 29 30 30 30 28 27 27 32 35 33 22 24 39 30 32 35 31 32 32 26 18 19 24 30 27 25 28 28 29 32 29 27
13 16 18 22 25 28 28 28 27 28 31 28 25 25 22 24 21 24 27 24 24 21 16 21 40 42 28 29 32 31 34 40 30 25 24 27 39 32 31 32 31 30 29 30 30
14 16 18 22 25 28 30 29 30 31 31 16 15 16 17 23 30 34 22 22 23 21 16 25 55 16 28 29 30 34 35 32 28 22 26 27 45 34 34 34 32 32 31 29 30
15 16 19 22 24 26 28 29 29 29 15 9 14 12 24 30 12 26 28 26 24 25 20 26 31 29 32 35 31 33 28 26 25 19 27 18 31 21 11 11 14 16 18 23 29
16 17 20 21 25 25 26 26 25 24 5 14 14 23 24 22 26 17 25 22 28 28 25 50 30 16 22 47 26 39 26 21 15 19 21 26 19 18 20 20 13 16 20 25 24
16 18 20 23 25 24 25 23 21 6 1 9 14 17 24 23 19 17 24 20 21 27 31 43 35 35 34 21 32 28 18 16 15 16 19 29 24 18 22 12 11 12 12 11 10
16 18 21 22 23 23 22 19 5 1 9 7 15 22 23 20 17 20 24 22 18 23 21 33 36 34 33 32 25 33 27 13 12 12 17 15 18 30 8 12 11 13 11 10 8
16 18 20 22 22 20 17 12 1 4 7 12 18 20 10 16 18 20 22 16 29 32 27 25 28 28 29 35 35 33 39 20 19 13 15 16 13 16 15 18 18 14 13 10 8
17 18 20 21 20 17 12 3 1 3 9 15 17 10 13 18 17 18 20 18 25 27 17 24 16 21 23 31 33 36 37 42 25 18 11 20 21 16 15 19 22 21 15 11 10
16 18 20 19 16 13 7 2 4 6 8 10 7 7 18 20 16 20 14 14 19 21 27 28 27 17 13 19 26 33 31 33 28 19 20 22 24 14 19 23 20 22 17 13 13
15 18 18 16 14 9 2 4 6 6 7 6 7 12 13 16 16 21 11 27 18 29 29 32 16 11 6 12 28 30 28 35 34 28 15 14 17 16 15 22 20 16 16 15 14
14 16 16 14 10 8 5 7 6 3 6 8 9 8 12 16 22 18 16 21 25 27 31 24 14 14 16 7 12 32 28 35 29 30 30 20 11 15 18 18 17 18 15 13 9
14 16 15 13 8 7 8 7 5 3 3 5 5 9 11 17 15 12 20 23 19 27 21 29 14 21 7 11 8 13 31 28 32 26 28 20 16 13 9 19 18 15 11 6 8
14 13 12 11 12 9 8 9 7 5 5 5 6 8 14 16 13 20 23 18 24 17 19 23 22 16 12 23 1 12 24 18 32 29 26 26 23 12 11 14 18 15 7 6 7
14 15 13 11 10 9 8 6 7 7 8 7 6 7 12 14 22 12 24 29 25 17 20 21 16 18 21 19 8 3 13 16 19 30 26 25 21 17 17 16 15 11 9 8 9
15 14 13 14 12 11 10 8 9 10 13 10 10 13 13 17 18 27 28 22 27 30 28 15 13 20 22 15 11 4 4 5 11 22 24 19 27 22 16 17 16 12 12 9 8
13 14 14 14 13 12 11 9 9 13 13 11 10 17 16 16 22 26 26 24 25 23 19 12 12 20 9 17 6 5 7 1 5 5 6 15 12 20 23 21 16 15 15 12 9

GFSSW_700_spd_117.txt.gz
Wind_Speed
16 15 15 14 14 14 14 14 14 14 14 15 16 18 18 19 18 18 18 19 20 20 24 23 23 21 23 27 24 20 28 34 29 26 25 19 17 16 16 22 16 19 18 18 26
15 14 14 14 14 14 14 14 13 13 13 14 14 16 16 16 17 15 15 17 16 16 16 20 22 21 23 22 24 29 30 34 25 23 24 22 17 12 18 22 22 20 22 31 27
14 13 13 13 13 14 13 13 13 12 12 13 14 15 15 16 16 8 15 15 16 17 16 14 17 19 23 23 24 29 40 28 26 24 26 26 24 21 21 22 22 22 20 20 17
13 12 12 13 13 14 14 14 14 14 15 16 16 17 16 15 7 16 20 18 16 15 17 17 16 15 21 25 28 35 35 30 28 30 27 29 26 27 26 26 23 22 23 23 22
13 11 12 12 14 15 14 15 15 16 16 17 18 19 18 17 11 17 18 17 18 16 17 16 15 17 21 24 24 35 34 32 31 30 31 30 33 30 31 26 26 28 28 27 28
13 11 11 12 14 15 15 15 16 17 19 21 21 20 18 15 16 19 21 22 20 20 19 20 19 15 25 28 27 28 30 29 33 33 34 32 33 31 34 29 31 33 32 31 29
13 12 13 13 14 16 17 17 18 20 22 24 22 20 19 18 18 17 16 17 13 15 17 19 23 25 18 20 23 29 31 33 33 31 29 27 38 38 31 31 34 32 30 32 32
14 13 13 13 14 17 18 19 20 22 24 24 21 20 17 17 11 16 19 18 20 22 23 20 17 22 28 28 30 27 29 34 31 28 30 28 51 30 19 22 32 33 33 33 33
15 13 13 14 15 17 19 21 23 23 23 22 19 11 10 12 19 19 24 27 34 34 30 30 27 28 25 23 27 31 37 35 34 26 28 24 36 24 24 28 26 24 22 24 25
15 13 14 14 14 17 20 23 23 21 19 18 10 10 16 20 25 24 25 24 24 23 24 29 27 30 29 23 33 30 31 33 32 27 29 31 33 28 27 23 22 24 26 27 25
15 13 14 14 15 17 20 22 23 23 21 18 20 16 18 16 15 17 21 23 25 18 18 15 25 44 30 31 38 32 34 37 33 25 25 30 32 30 27 29 31 30 28 26 25
14 14 14 14 16 17 19 19 18 17 20 19 15 12 12 17 22 22 21 20 21 21 20 22 38 36 31 34 37 36 37 42 40 34 32 34 34 31 29 32 32 32 31 31 29
13 13 13 15 17 19 18 18 18 17 16 11 7 7 14 22 20 13 21 18 19 23 21 27 44 26 30 33 40 43 41 43 36 31 28 31 41 37 36 35 36 37 35 32 30
13 12 13 15 17 19 19 20 18 17 2 3 4 10 15 21 3 19 12 20 20 26 25 35 37 34 32 38 39 37 39 37 34 30 31 29 31 32 30 28 28 30 32 31 29
13 12 12 13 15 17 18 19 17 14 4 4 3 14 16 16 18 15 17 22 24 27 23 39 38 35 38 33 27 45 34 33 29 29 31 33 32 26 21 27 23 18 17 18 19
12 10 11 12 13 15 16 17 16 3 2 2 5 14 17 15 18 16 19 16 20 22 24 30 33 32 41 43 38 31 30 34 28 29 23 37 35 33 27 17 15 15 16 17 13
11 11 11 11 12 14 14 14 5 4 4 2 9 15 16 15 19 17 20 19 18 25 35 39 28 26 38 40 37 35 30 23 20 20 20 35 33 34 18 19 19 14 13 11 9
12 10 10 10 11 12 11 8 3 2 4 7 10 13 10 14 17 21 20 21 16 21 30 29 43 26 29 28 38 40 37 27 24 16 23 33 24 31 24 26 16 16 15 11 8
12 10 9 9 10 9 7 1 2 4 6 8 10 7 7 15 18 18 20 15 14 18 19 32 35 52 30 24 26 35 43 39 39 29 20 22 29 26 20 18 23 17 14 11 6
11 11 8 9 7 7 2 5 3 8 6 4 5 5 12 16 16 19 19 9 20 16 24 30 51 32 30 18 24 30 33 36 38 23 23 21 25 29 24 20 25 20 14 10 10
11 9 8 8 7 4 2 5 5 8 7 3 6 11 13 15 14 20 13 22 14 27 25 35 18 39 26 5 14 21 32 33 30 36 18 15 21 23 20 23 27 21 16 11 7
12 10 8 8 3 4 3 5 8 5 5 5 7 9 11 12 18 21 18 18 23 23 30 22 26 26 40 16 9 12 27 33 23 28 33 28 23 7 20 19 21 23 17 12 8
11 14 11 8 5 6 9 7 7 6 6 4 7 9 10 12 19 16 19 21 15 25 21 25 16 24 26 17 23 13 17 27 31 30 30 21 24 9 10 18 25 25 18 10 9
13 9 10 9 11 10 11 7 7 9 9 9 10 11 9 13 12 17 24 18 24 21 22 17 21 27 22 28 28 35 23 23 23 31 31 31 27 11 18 19 17 11 12 10 8
16 12 11 7 8 9 8 7 8 6 7 8 8 11 10 16 19 20 22 27 20 15 17 20 27 23 28 29 24 24 13 20 16 20 26 26 26 20 16 21 20 18 15 13 11
18 12 12 8 9 10 10 8 10 9 10 9 12 11 14 17 19 27 26 23 31 19 21 19 18 22 29 13 22 16 0 17 18 27 22 22 25 16 18 24 27 24 19 18 12
18 14 11 12 9 11 10 8 8 11 11 12 12 14 17 18 21 25 28 29 30 27 23 18 15 22 22 18 26 5 13 4 7 9 22 22 17 17 18 25 23 19 18 17 12

GFSSW_700_spd_120.txt.gz
Wind_Speed
19 17 16 15 14 13 12 12 12 12 12 12 12 13 12 11 12 13 13 14 15 18 18 18 20 18 19 22 21 20 29 38 31 29 29 23 24 20 17 16 19 16 19 15 17
18 16 15 13 12 11 11 10 10 10 9 9 10 11 12 12 13 13 8 10 12 13 15 13 13 14 17 19 18 24 34 38 26 27 29 26 25 18 15 21 21 16 21 23 17
17 15 13 12 12 11 10 10 11 10 9 10 12 12 13 11 9 4 12 15 15 15 15 14 12 12 18 19 21 24 42 30 31 29 28 29 29 23 19 19 20 27 23 28 24
16 14 12 12 12 11 11 11 11 11 13 13 13 13 14 12 4 10 14 15 16 15 15 13 11 13 16 19 21 30 34 32 34 30 32 31 27 29 26 27 24 23 22 26 23
16 13 12 12 12 11 12 12 13 13 14 15 16 16 16 14 13 18 16 17 16 17 15 16 13 13 20 20 21 28 30 31 34 35 36 35 36 34 31 28 27 27 31 22 24
16 14 12 12 12 12 13 14 15 15 17 18 17 16 15 10 14 17 18 16 17 16 16 16 18 16 24 25 24 27 30 32 31 32 35 37 38 32 46 31 31 32 35 34 31
16 14 12 13 13 13 14 16 17 18 18 19 19 18 16 14 15 17 11 13 14 12 11 15 20 21 23 23 21 22 28 31 33 33 33 28 37 41 42 33 34 35 37 38 40
17 14 13 13 14 14 16 18 18 19 20 19 19 17 17 15 13 12 17 18 18 19 24 26 27 28 28 27 27 27 29 34 32 27 32 32 52 40 34 33 34 35 39 39 36
17 15 14 14 14 15 17 18 19 20 20 18 16 14 10 12 13 18 22 22 22 22 19 21 22 28 25 19 25 27 32 33 38 32 33 35 50 37 28 31 35 29 23 36 33
17 16 14 14 14 16 16 17 18 20 15 13 12 11 16 17 20 18 14 13 19 20 18 23 25 24 15 17 32 29 28 32 34 30 36 34 44 36 29 29 29 28 32 26 27
18 16 14 13 13 15 16 16 16 17 18 13 15 16 20 16 11 14 16 18 12 18 15 13 24 24 24 28 35 36 36 40 43 35 34 40 36 37 32 29 31 31 26 30 29
18 16 14 13 14 15 14 14 14 13 16 17 15 13 12 8 15 10 18 17 19 17 18 21 28 24 25 30 36 40 43 47 48 41 35 36 40 41 32 30 31 33 33 34 30
18 15 13 13 13 13 12 12 12 12 13 16 11 8 7 13 12 9 15 17 13 18 20 25 30 29 30 33 36 40 39 47 45 40 32 31 36 40 43 41 35 40 38 31 31
18 15 13 13 12 11 10 11 10 10 6 6 3 6 7 14 5 13 12 18 17 21 24 18 18 29 30 34 33 44 40 44 40 38 33 29 25 36 37 38 40 43 39 41 37
17 15 13 12 9 9 9 10 9 7 3 6 5 7 9 9 11 12 14 17 21 20 19 31 29 30 33 37 36 44 42 33 35 42 34 35 27 43 37 39 38 38 40 34 34
17 15 13 11 9 7 8 8 8 2 5 3 3 5 10 9 9 13 15 15 18 20 22 29 30 31 34 30 28 34 37 37 35 34 26 33 34 30 35 38 30 23 26 25 20
17 15 13 11 8 7 6 6 1 6 5 5 6 7 10 8 12 12 18 18 18 15 23 34 29 29 16 34 35 31 31 21 23 20 14 37 35 33 17 31 34 23 21 18 19
18 16 13 10 7 6 5 2 5 2 3 7 6 9 7 7 11 17 17 22 14 16 26 25 42 25 34 37 33 37 29 26 22 15 17 35 28 40 34 28 18 10 18 19 14
18 16 13 10 7 6 5 6 3 6 11 7 8 5 4 8 14 15 17 12 10 19 15 28 51 45 27 29 31 20 25 27 34 38 20 25 27 35 34 28 24 18 19 16 14
18 16 13 9 8 7 7 8 5 13 8 2 2 3 6 11 13 14 16 12 18 15 21 27 45 33 31 31 13 14 20 21 30 21 20 22 31 24 27 26 22 24 20 22 24
16 13 10 9 8 8 7 5 9 9 6 3 5 7 9 11 11 14 16 19 8 22 21 29 18 43 34 38 22 23 19 24 25 32 14 13 20 27 14 30 30 29 27 28 19
15 12 8 10 10 7 5 10 13 7 5 4 4 5 7 9 13 16 16 17 18 17 25 17 25 27 42 34 25 21 23 15 20 27 27 26 31 26 20 12 24 25 27 29 23
15 9 14 11 8 9 12 11 8 8 5 5 4 5 7 11 13 13 17 15 18 20 22 26 12 28 35 18 28 32 29 26 20 26 26 16 30 29 17 13 26 35 33 24 30
15 12 12 13 13 14 10 9 9 9 11 9 7 9 9 10 12 18 20 17 19 19 26 18 17 24 21 31 37 40 40 29 18 15 18 22 27 24 11 15 11 30 29 16 26
20 11 9 5 10 13 11 6 11 9 7 5 6 8 10 14 16 19 20 22 22 18 18 17 31 30 27 30 32 26 32 19 16 14 11 23 20 14 13 7 20 26 21 17 21
19 10 12 11 9 10 13 10 11 10 10 8 10 10 12 16 18 23 23 21 23 26 22 21 26 29 33 27 22 33 23 15 13 12 16 16 19 15 11 22 15 16 28 34 26
20 20 15 5 10 11 12 9 9 10 11 12 11 12 14 16 19 23 24 25 27 28 26 25 22 24 31 22 33 9 20 19 15 6 10 13 15 14 12 11 19 17 15 26 16

GFSSW_700_spd_123.txt.gz
Wind_Speed
19 18 17 16 14 12 12 11 9 9 10 10 9 10 9 10 11 9 13 10 10 11 10 13 12 11 15 17 18 21 29 38 32 29 31 21 23 19 24 26 25 20 21 24 27
20 18 18 16 13 12 10 8 6 6 7 7 7 9 9 11 10 12 4 7 9 11 13 13 14 11 11 11 17 23 37 37 31 30 29 26 30 32 24 17 15 20 18 24 24
20 20 18 15 13 11 9 6 5 5 6 7 8 9 10 12 12 7 6 11 11 11 12 12 10 12 13 14 16 22 34 28 31 30 29 34 39 33 27 18 17 24 15 26 31
21 20 19 15 12 10 9 6 6 6 7 9 10 11 13 13 8 9 13 13 14 14 14 14 13 11 13 13 11 22 27 30 34 32 33 37 38 41 35 27 21 22 21 19 31
22 19 18 15 12 10 8 7 7 8 10 12 13 13 13 14 16 14 12 13 13 14 15 16 14 14 16 14 17 24 25 26 29 30 33 35 42 44 46 34 26 32 31 26 23
21 19 18 15 11 11 9 9 9 11 13 14 15 13 13 15 13 12 14 12 11 11 11 12 13 14 20 22 23 24 28 33 34 34 35 34 39 37 49 40 39 35 40 36 31
22 19 17 15 11 10 10 10 12 14 15 15 15 14 13 14 13 13 11 11 14 15 13 14 19 25 26 26 20 22 29 30 34 31 33 36 45 43 49 39 35 42 38 45 39
22 19 18 15 12 11 11 12 14 15 15 15 14 15 13 14 12 9 13 17 18 18 19 19 19 22 25 26 31 27 31 38 40 34 33 27 43 41 42 36 43 41 39 43 51
21 20 18 15 13 12 12 13 15 16 15 14 14 14 12 9 9 14 18 19 18 14 14 19 21 23 22 22 29 19 28 32 42 34 34 31 41 40 35 36 39 36 39 37 39
22 21 18 15 14 12 12 14 16 15 15 13 13 12 9 13 14 17 18 12 15 17 18 17 17 22 22 16 28 33 28 35 39 40 29 34 41 39 38 29 36 34 36 34 38
25 22 19 17 14 12 12 13 16 17 13 13 11 15 14 13 12 13 12 13 17 18 20 16 17 19 23 28 34 36 34 38 49 47 39 41 43 41 37 45 29 30 39 34 28
26 22 19 17 15 12 12 13 15 15 15 13 13 13 10 8 7 11 15 17 18 18 20 21 20 14 24 32 31 35 38 43 44 41 34 37 42 46 40 44 37 35 31 27 33
26 21 19 17 15 12 12 12 12 13 13 12 12 9 4 4 9 10 17 19 19 20 17 19 25 14 20 29 30 37 38 39 42 47 43 37 44 49 44 43 42 46 38 34 32
25 21 19 17 15 12 12 9 9 9 8 7 6 7 4 6 3 9 16 19 19 22 19 17 8 27 28 31 31 41 35 37 41 40 35 33 26 40 42 42 41 48 44 40 37
24 21 19 18 16 13 9 7 6 6 1 9 7 5 3 6 5 4 12 15 17 20 18 24 24 27 32 33 33 26 29 36 38 44 38 41 24 52 35 38 44 40 35 42 37
24 21 21 17 15 12 8 6 5 4 4 10 7 5 5 3 5 6 13 9 15 16 17 27 28 29 29 26 26 36 41 38 37 36 23 32 30 47 34 43 43 39 40 39 39
25 24 20 19 13 12 9 7 5 5 6 4 6 6 7 2 4 8 10 12 16 18 25 36 26 29 17 27 33 28 30 10 8 10 14 25 31 35 21 27 30 28 27 18 23
26 24 22 17 14 12 10 9 5 7 7 11 11 9 3 5 6 7 10 15 6 14 25 15 40 28 33 27 33 41 29 19 7 4 13 28 23 39 31 45 30 21 17 22 32
27 24 21 17 15 13 11 10 4 6 11 11 8 1 3 4 5 9 9 8 10 14 16 24 25 42 24 23 23 23 15 24 25 24 16 18 33 28 36 39 35 21 26 19 18
24 22 22 18 15 13 12 9 7 14 12 9 5 5 6 6 7 7 7 7 18 11 15 20 39 34 24 32 15 28 21 12 5 4 5 12 25 31 22 26 25 28 28 28 31
24 24 20 18 16 15 14 8 10 16 11 8 6 7 8 7 7 8 6 16 8 13 20 25 18 42 28 33 32 31 29 27 12 15 3 5 16 21 21 22 21 21 37 33 33
25 22 19 17 16 15 12 9 13 10 9 8 9 12 5 5 9 7 11 9 19 21 21 16 26 25 43 27 10 12 26 23 17 5 21 14 23 23 12 29 21 30 36 34 29
22 20 14 17 14 13 11 11 11 8 7 1 2 2 4 8 7 6 14 13 12 19 16 20 12 19 30 19 14 41 45 38 33 14 15 10 17 13 28 12 7 32 37 33 29
23 16 18 17 16 15 15 12 10 10 13 10 11 10 11 6 8 12 20 19 18 18 20 20 14 16 17 33 40 46 47 40 30 17 12 30 21 15 20 15 15 11 15 21 24
21 17 12 11 17 15 17 6 10 9 5 9 3 5 6 12 14 17 20 25 24 23 19 13 20 24 29 35 35 37 33 38 31 19 17 25 20 18 18 16 11 20 13 4 17
22 15 15 10 10 10 19 15 9 8 10 7 8 6 10 14 14 21 25 26 28 21 18 21 17 27 38 33 29 32 17 34 22 12 9 19 11 16 16 10 14 14 14 12 15
22 20 18 12 11 8 15 8 8 11 13 11 13 14 15 15 20 27 28 26 27 25 19 26 26 26 33 32 32 6 35 31 20 42 26 28 23 8 15 11 11 11 8 12 11